Darstellungsparameter: Aktuell verwendete Einstellungen:
Skalierung der Graphiken ... ?
xyx+y,   Skalierungsfaktor:      Skalierung: Modus: x, Faktor: 1
Darstellungszeitraum ... ?
Vom - - bis: - -   Zeitraum: 12.05.2019 - 10.06.2019
Min/Max/Avg-Anzeige ... ?
Zeige MMA aktuell
Zeige MMA Monat
Zeige MMA alles
Zeige --A aktuell
Zeige --A Monat
Zeige --A alles
Keine MMA-Anzeige
MMA:
Average (ber die Originaldaten)
MMA-Basis: 12.05.2019 - 10.06.2019
Quicknavigation für Darstellung... ?
Tage:      1T, 2T, 3T, 5T -1T -2T -3T -5T +1T +2T +3T +5T
Wochen: 1W, 2W, 3W -1W -2W -3W +1W +2W +3W
Monate: 1M, 3M, 6M -1M -3M -6M +1M +3M +6M
Jahre:    1J, 3J, 5J, 10J -1J -3J -5J -10J +1J +3J +5J +10J
Nutze für die Darstellung ... ?
Originaldaten oder Mittelwerte auf ...
Stundenbasis Tagesbasis Wochenbasis
Monatsbasis Jahresbasis      Datenbasis: Original-Daten
Darstellen als:
Statistik (Auto) Statistik J:M      Darstellung:
Zur Graphik,    zurück zur Übersicht aller Sensoren.
 
Tabellarische Datenbersicht: ?
 
Sensor: Nr:Datum:Temp:Feuchte:
Aussen-T/F 1 12-05-2019 00:00:17 6.9 C 53 %
2 12-05-2019 00:12:17 6.9 C 53 %
3 12-05-2019 00:24:17 6.9 C 53 %
4 12-05-2019 00:36:17 6.9 C 53 %
5 12-05-2019 00:48:18 6.9 C 53 %
6 12-05-2019 01:00:17 6.9 C 53 %
7 12-05-2019 01:12:17 6.9 C 53 %
8 12-05-2019 01:24:17 6.9 C 53 %
9 12-05-2019 01:36:17 6.9 C 53 %
10 12-05-2019 01:48:17 6.9 C 53 %
11 12-05-2019 02:00:17 6.9 C 53 %
12 12-05-2019 02:12:17 6.9 C 53 %
13 12-05-2019 02:24:17 5.6 C 50 %
14 12-05-2019 02:36:17 5.6 C 50 %
15 12-05-2019 02:48:17 5.6 C 50 %
16 12-05-2019 03:00:17 5.6 C 50 %
17 12-05-2019 03:12:17 5.1 C 47 %
18 12-05-2019 03:24:17 5.1 C 47 %
19 12-05-2019 03:36:17 5.1 C 47 %
20 12-05-2019 03:48:17 5.1 C 47 %
21 12-05-2019 04:00:17 5.1 C 47 %
22 12-05-2019 04:12:17 5.1 C 47 %
23 12-05-2019 04:24:17 5.1 C 47 %
24 12-05-2019 04:36:18 5.1 C 47 %
25 12-05-2019 04:48:17 3.6 C 51 %
Sensor: Nr:Datum:Temp:Feuchte:
Aussen-T/F 26 12-05-2019 05:00:17 3.5 C 52 %
27 12-05-2019 05:12:17 3.5 C 52 %
28 12-05-2019 05:24:17 3.5 C 52 %
29 12-05-2019 05:36:17 3.5 C 52 %
30 12-05-2019 05:48:17 3.4 C 53 %
31 12-05-2019 06:00:17 3.4 C 53 %
32 12-05-2019 06:12:17 3.4 C 53 %
33 12-05-2019 06:24:17 3.8 C 55 %
34 12-05-2019 06:36:17 4.3 C 55 %
35 12-05-2019 06:48:17 4.7 C 51 %
36 12-05-2019 07:00:17 4.8 C 46 %
37 12-05-2019 07:12:17 4.8 C 42 %
38 12-05-2019 07:24:17 5.3 C 41 %
39 12-05-2019 07:36:17 5.6 C 39 %
40 12-05-2019 07:48:17 5.6 C 39 %
41 12-05-2019 08:00:17 5.9 C 35 %
42 12-05-2019 08:12:17 6.2 C 33 %
43 12-05-2019 08:24:17 6.6 C 31 %
44 12-05-2019 08:36:17 6.9 C 30 %
45 12-05-2019 08:48:17 7.5 C 26 %
46 12-05-2019 09:00:17 7.8 C 26 %
47 12-05-2019 09:12:17 7.9 C 25 %
48 12-05-2019 09:24:17 8.4 C 25 %
49 12-05-2019 09:36:18 8.3 C 21 %
50 12-05-2019 09:48:17 8.5 C 20 %
Sensor: Nr:Datum:Temp:Feuchte:
Aussen-T/F 51 12-05-2019 10:00:17 8.6 C 20 %
52 12-05-2019 10:12:17 8.7 C 20 %
53 12-05-2019 10:24:17 9.1 C 20 %
54 12-05-2019 10:36:17 9.2 C 20 %
55 12-05-2019 10:48:17 9.8 C 20 %
56 12-05-2019 11:00:17 9.3 C 20 %
57 12-05-2019 11:12:17 10.1 C 20 %
58 12-05-2019 11:24:17 12.7 C 20 %
59 12-05-2019 11:36:17 11.5 C 20 %
60 12-05-2019 11:48:17 12.1 C 20 %
61 12-05-2019 12:00:17 11.2 C 20 %
62 12-05-2019 12:12:17 11.1 C 20 %
63 12-05-2019 12:24:17 11.8 C 20 %
64 12-05-2019 12:36:17 10.6 C 20 %
65 12-05-2019 12:48:17 11 C 20 %
66 12-05-2019 13:00:18 11 C 20 %
67 12-05-2019 13:12:18 11 C 20 %
68 12-05-2019 13:24:17 11.8 C 20 %
69 12-05-2019 13:36:18 12.1 C 20 %
70 12-05-2019 13:48:17 12 C 20 %
71 12-05-2019 14:00:17 12.5 C 20 %
72 12-05-2019 14:12:17 13.3 C 20 %
73 12-05-2019 14:24:17 13.7 C 20 %
74 12-05-2019 14:36:17 13.8 C 20 %
75 12-05-2019 14:48:17 13.8 C 20 %
Sensor: Nr:Datum:Temp:Feuchte:
Aussen-T/F 76 12-05-2019 15:00:18 14.4 C 20 %
77 12-05-2019 15:12:18 15 C 20 %
78 12-05-2019 15:24:17 14.1 C 20 %
79 12-05-2019 15:36:17 14.1 C 20 %
80 12-05-2019 15:48:18 15.6 C 20 %
81 12-05-2019 16:00:17 16 C 20 %
82 12-05-2019 16:12:17 14.7 C 20 %
83 12-05-2019 16:24:17 16.4 C 20 %
84 12-05-2019 16:36:17 16.5 C 20 %
85 12-05-2019 16:48:17 16.5 C 20 %
86 12-05-2019 17:00:17 14.9 C 20 %
87 12-05-2019 17:12:17 14.5 C 20 %
88 12-05-2019 17:24:17 15.2 C 20 %
89 12-05-2019 17:36:17 15.2 C 20 %
90 12-05-2019 17:48:18 15 C 20 %
91 12-05-2019 18:00:17 16.1 C 20 %
92 12-05-2019 18:12:17 16.6 C 20 %
93 12-05-2019 18:24:17 14.7 C 20 %
94 12-05-2019 18:36:18 15.9 C 20 %
95 12-05-2019 18:48:17 15.8 C 20 %
96 12-05-2019 19:00:17 15.8 C 20 %
97 12-05-2019 19:12:17 15.8 C 20 %
98 12-05-2019 19:24:17 14.4 C 20 %
99 12-05-2019 19:36:17 13.9 C 20 %
100 12-05-2019 19:48:17 13.6 C 20 %
Sensor: Nr:Datum:Temp:Feuchte:
Aussen-T/F 101 12-05-2019 20:00:17 13.5 C 20 %
102 12-05-2019 20:12:17 13.2 C 20 %
103 12-05-2019 20:24:17 12.9 C 20 %
104 12-05-2019 20:36:18 12.9 C 20 %
105 12-05-2019 20:48:17 11.8 C 20 %
106 12-05-2019 21:00:17 9.7 C 20 %
107 12-05-2019 21:12:17 9 C 20 %
108 12-05-2019 21:24:17 8.7 C 20 %
109 12-05-2019 21:36:17 8.1 C 23 %
110 12-05-2019 21:48:17 8.4 C 26 %
111 12-05-2019 22:00:17 8.1 C 27 %
112 12-05-2019 22:12:17 7.7 C 26 %
113 12-05-2019 22:24:17 7.8 C 25 %
114 12-05-2019 22:36:17 7.8 C 25 %
115 12-05-2019 22:48:17 7.1 C 26 %
116 12-05-2019 23:00:17 6.7 C 29 %
117 12-05-2019 23:12:17 6.5 C 30 %
118 12-05-2019 23:24:17 6.4 C 30 %
119 12-05-2019 23:36:18 6.4 C 30 %
120 12-05-2019 23:48:17 6.1 C 30 %
121 13-05-2019 00:00:17 6 C 30 %
122 13-05-2019 00:12:17 6 C 30 %
123 13-05-2019 00:24:17 6 C 30 %
124 13-05-2019 00:36:17 5.3 C 33 %
125 13-05-2019 00:48:17 5.3 C 33 %
Sensor: Nr:Datum:Temp:Feuchte:
Aussen-T/F 126 13-05-2019 01:00:18 5.3 C 33 %
127 13-05-2019 01:12:18 5.3 C 33 %
128 13-05-2019 01:24:17 5.3 C 33 %
129 13-05-2019 01:36:17 5.3 C 33 %
130 13-05-2019 01:48:17 3.8 C 43 %
131 13-05-2019 02:00:17 3.7 C 44 %
132 13-05-2019 02:12:17 3.4 C 45 %
133 13-05-2019 02:24:17 3.4 C 45 %
134 13-05-2019 02:36:17 3.4 C 45 %
135 13-05-2019 02:48:17 3.2 C 47 %
136 13-05-2019 03:00:17 3.2 C 48 %
137 13-05-2019 03:12:17 3.2 C 48 %
138 13-05-2019 03:24:17 2.8 C 50 %
139 13-05-2019 03:36:18 2.6 C 50 %
140 13-05-2019 03:48:17 2.6 C 51 %
141 13-05-2019 04:00:17 2.5 C 51 %
142 13-05-2019 04:12:17 2.3 C 51 %
143 13-05-2019 04:24:17 2.3 C 51 %
144 13-05-2019 04:36:17 2.3 C 51 %
145 13-05-2019 04:48:17 2.2 C 52 %
146 13-05-2019 05:00:18 2 C 52 %
147 13-05-2019 05:12:18 2 C 52 %
148 13-05-2019 05:24:17 2 C 52 %
149 13-05-2019 05:36:17 1.8 C 53 %
150 13-05-2019 05:48:18 1.7 C 53 %
Sensor: Nr:Datum:Temp:Feuchte:
Aussen-T/F 151 13-05-2019 06:00:17 1.7 C 53 %
152 13-05-2019 06:12:17 1.6 C 54 %
153 13-05-2019 06:24:17 1.6 C 54 %
154 13-05-2019 06:36:17 1.6 C 54 %
155 13-05-2019 06:48:17 1.6 C 54 %
156 13-05-2019 07:00:18 1.7 C 55 %
157 13-05-2019 07:12:18 1.8 C 55 %
158 13-05-2019 07:24:17 1.8 C 55 %
159 13-05-2019 07:36:17 2.4 C 54 %
160 13-05-2019 07:48:17 2.6 C 55 %
161 13-05-2019 08:00:17 3 C 54 %
162 13-05-2019 08:12:17 3.6 C 55 %
163 13-05-2019 08:24:17 4.1 C 53 %
164 13-05-2019 08:36:17 4.7 C 52 %
165 13-05-2019 08:48:17 4.7 C 52 %
166 13-05-2019 09:00:17 5.6 C 47 %
167 13-05-2019 09:12:17 6 C 42 %
168 13-05-2019 09:24:17 7.3 C 38 %
169 13-05-2019 09:36:17 8.8 C 26 %
170 13-05-2019 09:48:17 8.9 C 25 %
171 13-05-2019 10:00:17 9.5 C 20 %
172 13-05-2019 10:12:17 10.2 C 20 %
173 13-05-2019 10:24:17 10.6 C 20 %
174 13-05-2019 10:36:17 11 C 20 %
175 13-05-2019 10:48:17 11 C 20 %
Sensor: Nr:Datum:Temp:Feuchte:
Aussen-T/F 176 13-05-2019 11:00:17 12.8 C 20 %
177 13-05-2019 11:12:17 13.2 C 20 %
178 13-05-2019 11:24:17 15.9 C 20 %
179 13-05-2019 11:36:17 15.9 C 20 %
180 13-05-2019 11:48:17 13.8 C 20 %
181 13-05-2019 12:00:17 12.9 C 20 %
182 13-05-2019 12:12:17 13.4 C 20 %
183 13-05-2019 12:24:17 13.6 C 20 %
184 13-05-2019 12:36:17 13.6 C 20 %
185 13-05-2019 12:48:17 13.7 C 20 %
186 13-05-2019 13:00:18 13.8 C 20 %
187 13-05-2019 13:12:18 14 C 20 %
188 13-05-2019 13:24:17 14.4 C 20 %
189 13-05-2019 13:36:17 14.8 C 20 %
190 13-05-2019 13:48:17 15 C 20 %
191 13-05-2019 14:00:17 15 C 20 %
192 13-05-2019 14:12:17 15 C 20 %
193 13-05-2019 14:24:17 15.8 C 20 %
194 13-05-2019 14:36:17 16.5 C 20 %
195 13-05-2019 14:48:17 17.1 C 20 %
196 13-05-2019 15:00:17 17 C 20 %
197 13-05-2019 15:12:17 17.1 C 20 %
198 13-05-2019 15:24:17 18.2 C 20 %
199 13-05-2019 15:36:17 18.6 C 20 %
200 13-05-2019 15:48:17 18.9 C 20 %
Sensor: Nr:Datum:Temp:Feuchte:
Aussen-T/F 201 13-05-2019 16:00:18 18.9 C 20 %
202 13-05-2019 16:12:18 18.9 C 20 %
203 13-05-2019 16:24:17 18.6 C 20 %
204 13-05-2019 16:36:17 18.6 C 20 %
205 13-05-2019 16:48:17 18.6 C 20 %
206 13-05-2019 17:00:17 18.6 C 20 %
207 13-05-2019 17:12:17 19 C 20 %
208 13-05-2019 17:24:17 19 C 20 %
209 13-05-2019 17:36:18 19 C 20 %
210 13-05-2019 17:48:17 19.1 C 20 %
211 13-05-2019 18:00:17 18.8 C 20 %
212 13-05-2019 18:12:17 18.5 C 20 %
213 13-05-2019 18:24:18 18.3 C 20 %
214 13-05-2019 18:36:17 18.3 C 20 %
215 13-05-2019 18:48:17 18.1 C 20 %
216 13-05-2019 19:00:18 18.3 C 20 %
217 13-05-2019 19:12:18 17.8 C 20 %
218 13-05-2019 19:24:17 17.3 C 20 %
219 13-05-2019 19:36:17 16.6 C 20 %
220 13-05-2019 19:48:17 16.2 C 20 %
221 13-05-2019 20:00:17 15.9 C 20 %
222 13-05-2019 20:12:17 15.7 C 20 %
223 13-05-2019 20:24:17 15.4 C 20 %
224 13-05-2019 20:36:18 15.1 C 20 %
225 13-05-2019 20:48:17 14.4 C 20 %
Sensor: Nr:Datum:Temp:Feuchte:
Aussen-T/F 226 13-05-2019 21:00:17 14 C 20 %
227 13-05-2019 21:12:17 12.1 C 20 %
228 13-05-2019 21:24:18 12.1 C 20 %
229 13-05-2019 21:36:17 10 C 20 %
230 13-05-2019 21:48:17 9.5 C 20 %
231 13-05-2019 22:00:17 9.5 C 20 %
232 13-05-2019 22:12:17 8.6 C 20 %
233 13-05-2019 22:24:17 8.4 C 20 %
234 13-05-2019 22:36:17 8.2 C 20 %
235 13-05-2019 22:48:17 8.2 C 20 %
236 13-05-2019 23:00:17 8.2 C 20 %
237 13-05-2019 23:12:17 8.2 C 20 %
238 13-05-2019 23:24:18 8.2 C 20 %
239 13-05-2019 23:36:17 8.2 C 20 %
240 13-05-2019 23:48:17 8.2 C 20 %
241 14-05-2019 00:00:17 8.2 C 20 %
242 14-05-2019 00:12:17 8.2 C 20 %
243 14-05-2019 00:24:18 8.2 C 20 %
244 14-05-2019 00:36:17 8.2 C 20 %
245 14-05-2019 00:48:17 8.2 C 20 %
246 14-05-2019 01:00:17 8.2 C 20 %
247 14-05-2019 01:12:17 8.2 C 20 %
248 14-05-2019 01:24:17 8.2 C 20 %
249 14-05-2019 01:36:17 8.2 C 20 %
250 14-05-2019 01:48:17 4.5 C 29 %
Sensor: Nr:Datum:Temp:Feuchte:
Aussen-T/F 251 14-05-2019 02:00:17 4.3 C 29 %
252 14-05-2019 02:12:17 4.3 C 29 %
253 14-05-2019 02:24:17 4.3 C 29 %
254 14-05-2019 02:36:17 3.6 C 32 %
255 14-05-2019 02:48:18 3.5 C 33 %
256 14-05-2019 03:00:17 3.4 C 34 %
257 14-05-2019 03:12:17 3.2 C 35 %
258 14-05-2019 03:24:17 3.1 C 35 %
259 14-05-2019 03:36:18 3.1 C 35 %
260 14-05-2019 03:48:17 3.1 C 35 %
261 14-05-2019 04:00:17 2.7 C 37 %
262 14-05-2019 04:12:17 2.6 C 38 %
263 14-05-2019 04:24:18 2.4 C 39 %
264 14-05-2019 04:36:17 2.4 C 39 %
265 14-05-2019 04:48:17 2.2 C 40 %
266 14-05-2019 05:00:17 2.2 C 41 %
267 14-05-2019 05:12:17 2.2 C 41 %
268 14-05-2019 05:24:17 2.2 C 41 %
269 14-05-2019 05:36:17 2.2 C 41 %
270 14-05-2019 05:48:17 1.7 C 45 %
271 14-05-2019 06:00:17 1.8 C 45 %
272 14-05-2019 06:12:17 1.8 C 46 %
273 14-05-2019 06:24:17 1.8 C 46 %
274 14-05-2019 06:36:17 1.8 C 47 %
275 14-05-2019 06:48:17 2 C 47 %
Sensor: Nr:Datum:Temp:Feuchte:
Aussen-T/F 276 14-05-2019 07:00:17 2 C 47 %
277 14-05-2019 07:12:17 2 C 47 %
278 14-05-2019 07:24:18 2.3 C 48 %
279 14-05-2019 07:36:17 2.4 C 48 %
280 14-05-2019 07:48:17 2.6 C 48 %
281 14-05-2019 08:00:17 3.1 C 48 %
282 14-05-2019 08:12:17 3.3 C 48 %
283 14-05-2019 08:24:17 3.3 C 48 %
284 14-05-2019 08:36:17 4.1 C 46 %
285 14-05-2019 08:48:17 5 C 39 %
286 14-05-2019 09:00:17 5.4 C 35 %
287 14-05-2019 09:12:17 5.9 C 33 %
288 14-05-2019 09:24:17 7 C 29 %
289 14-05-2019 09:36:17 8.9 C 20 %
290 14-05-2019 09:48:17 8.5 C 20 %
291 14-05-2019 10:00:17 8.5 C 20 %
292 14-05-2019 10:12:17 9.4 C 20 %
293 14-05-2019 10:24:17 10 C 20 %
294 14-05-2019 10:36:17 11.1 C 20 %
295 14-05-2019 10:48:17 11.7 C 20 %
296 14-05-2019 11:00:17 13.6 C 20 %
297 14-05-2019 11:12:17 13.1 C 20 %
298 14-05-2019 11:24:17 15.6 C 20 %
299 14-05-2019 11:36:17 14.5 C 20 %
300 14-05-2019 11:48:17 13.5 C 20 %
Sensor: Nr:Datum:Temp:Feuchte:
Aussen-T/F 301 14-05-2019 12:00:17 13.1 C 20 %
302 14-05-2019 12:12:17 13.3 C 20 %
303 14-05-2019 12:24:17 14 C 20 %
304 14-05-2019 12:36:17 14.2 C 20 %
305 14-05-2019 12:48:17 13.6 C 20 %
306 14-05-2019 13:00:17 14.4 C 20 %
307 14-05-2019 13:12:17 14.9 C 20 %
308 14-05-2019 13:24:17 14.9 C 20 %
309 14-05-2019 13:36:18 14.5 C 20 %
310 14-05-2019 13:48:17 14.4 C 20 %
311 14-05-2019 14:00:17 14.3 C 20 %
312 14-05-2019 14:12:17 15 C 20 %
313 14-05-2019 14:24:17 15.3 C 20 %
314 14-05-2019 14:36:17 15.5 C 20 %
315 14-05-2019 14:48:17 15.5 C 20 %
316 14-05-2019 15:00:17 16.7 C 20 %
317 14-05-2019 15:12:17 16.7 C 20 %
318 14-05-2019 15:24:17 16.1 C 20 %
319 14-05-2019 15:36:17 16.1 C 20 %
320 14-05-2019 15:48:17 16 C 20 %
321 14-05-2019 16:00:17 16.7 C 20 %
322 14-05-2019 16:12:17 16.5 C 20 %
323 14-05-2019 16:24:17 16.5 C 20 %
324 14-05-2019 16:36:17 17 C 20 %
325 14-05-2019 16:48:17 16.8 C 20 %
Sensor: Nr:Datum:Temp:Feuchte:
Aussen-T/F 326 14-05-2019 17:00:17 16.6 C 20 %
327 14-05-2019 17:12:17 17.8 C 20 %
328 14-05-2019 17:24:17 17 C 20 %
329 14-05-2019 17:36:17 16.9 C 20 %
330 14-05-2019 17:48:18 16.6 C 20 %
331 14-05-2019 18:00:17 16.2 C 20 %
332 14-05-2019 18:12:17 16.6 C 20 %
333 14-05-2019 18:24:17 17.3 C 20 %
334 14-05-2019 18:36:17 16.4 C 20 %
335 14-05-2019 18:48:17 17.6 C 20 %
336 14-05-2019 19:00:17 17 C 20 %
337 14-05-2019 19:12:17 17.4 C 20 %
338 14-05-2019 19:24:17 16.2 C 20 %
339 14-05-2019 19:36:17 15.7 C 20 %
340 14-05-2019 19:48:17 15 C 20 %
341 14-05-2019 20:00:18 15 C 20 %
342 14-05-2019 20:12:18 14.1 C 20 %
343 14-05-2019 20:24:17 13.1 C 20 %
344 14-05-2019 20:36:17 12.2 C 20 %
345 14-05-2019 20:48:17 12 C 20 %
346 14-05-2019 21:00:17 10.6 C 20 %
347 14-05-2019 21:12:17 10 C 20 %
348 14-05-2019 21:24:17 9.5 C 20 %
349 14-05-2019 21:36:17 9.2 C 20 %
350 14-05-2019 21:48:17 8.8 C 20 %
Sensor: Nr:Datum:Temp:Feuchte:
Aussen-T/F 351 14-05-2019 22:00:17 8.6 C 20 %
352 14-05-2019 22:12:17 8.6 C 20 %
353 14-05-2019 22:24:17 8.6 C 20 %
354 14-05-2019 22:36:17 7.8 C 20 %
355 14-05-2019 22:48:17 7.7 C 20 %
356 14-05-2019 23:00:18 7.7 C 20 %
357 14-05-2019 23:12:18 7.7 C 20 %
358 14-05-2019 23:24:17 7.7 C 20 %
359 14-05-2019 23:36:17 7.7 C 20 %
360 14-05-2019 23:48:17 7.7 C 20 %
361 15-05-2019 00:00:18 7.7 C 20 %
362 15-05-2019 00:12:18 7.7 C 20 %
363 15-05-2019 00:24:17 7.7 C 20 %
364 15-05-2019 00:36:17 7.7 C 20 %
365 15-05-2019 00:48:17 7.7 C 20 %
366 15-05-2019 01:00:17 7.7 C 20 %
367 15-05-2019 01:12:17 7.7 C 20 %
368 15-05-2019 01:24:17 7.7 C 20 %
369 15-05-2019 01:36:17 7.7 C 20 %
370 15-05-2019 01:48:17 7.7 C 20 %
371 15-05-2019 02:00:17 7.7 C 20 %
372 15-05-2019 02:12:17 7.7 C 20 %
373 15-05-2019 02:24:17 7.7 C 20 %
374 15-05-2019 02:36:17 7.7 C 20 %
375 15-05-2019 02:48:17 7.7 C 20 %
Sensor: Nr:Datum:Temp:Feuchte:
Aussen-T/F 376 15-05-2019 03:00:17 7.7 C 20 %
377 15-05-2019 03:12:17 7.7 C 20 %
378 15-05-2019 03:24:17 7.7 C 20 %
379 15-05-2019 03:36:18 7.7 C 20 %
380 15-05-2019 03:48:17 7.7 C 20 %
381 15-05-2019 04:00:18 7.7 C 20 %
382 15-05-2019 04:12:18 7.7 C 20 %
383 15-05-2019 04:24:17 7.7 C 20 %
384 15-05-2019 04:36:17 7.7 C 20 %
385 15-05-2019 04:48:18 7.7 C 20 %
386 15-05-2019 05:00:17 7.7 C 20 %
387 15-05-2019 05:12:17 7.7 C 20 %
388 15-05-2019 05:24:17 7.7 C 20 %
389 15-05-2019 05:36:17 7.7 C 20 %
390 15-05-2019 05:48:17 1.8 C 46 %
391 15-05-2019 06:00:18 1.8 C 46 %
392 15-05-2019 06:12:18 1.6 C 47 %
393 15-05-2019 06:24:17 1.7 C 47 %
394 15-05-2019 06:36:17 1.8 C 48 %
395 15-05-2019 06:48:17 1.8 C 48 %
396 15-05-2019 07:00:17 2.1 C 48 %
397 15-05-2019 07:12:17 2.2 C 48 %
398 15-05-2019 07:24:17 2.3 C 48 %
399 15-05-2019 07:36:18 2.4 C 49 %
400 15-05-2019 07:48:17 2.5 C 49 %
Sensor: Nr:Datum:Temp:Feuchte:
Aussen-T/F 401 15-05-2019 08:00:17 2.6 C 49 %
402 15-05-2019 08:12:17 2.8 C 49 %
403 15-05-2019 08:24:17 3.1 C 48 %
404 15-05-2019 08:36:17 3.6 C 48 %
405 15-05-2019 08:48:17 4.2 C 45 %
406 15-05-2019 09:00:18 4.5 C 42 %
407 15-05-2019 09:12:18 5.3 C 39 %
408 15-05-2019 09:24:17 6.4 C 35 %
409 15-05-2019 09:36:18 6.4 C 35 %
410 15-05-2019 09:48:17 8.1 C 28 %
411 15-05-2019 10:00:17 9.5 C 20 %
412 15-05-2019 10:12:17 10 C 20 %
413 15-05-2019 10:24:18 10 C 20 %
414 15-05-2019 10:36:17 11.4 C 20 %
415 15-05-2019 10:48:17 11.9 C 20 %
416 15-05-2019 11:00:17 12.2 C 20 %
417 15-05-2019 11:12:17 13.1 C 20 %
418 15-05-2019 11:24:17 15.6 C 20 %
419 15-05-2019 11:36:17 14.6 C 20 %
420 15-05-2019 11:48:18 14.6 C 20 %
421 15-05-2019 12:00:17 13.1 C 20 %
422 15-05-2019 12:12:17 13.1 C 20 %
423 15-05-2019 12:24:17 13.1 C 20 %
424 15-05-2019 12:36:17 13.1 C 20 %
425 15-05-2019 12:48:17 13.1 C 20 %
Sensor: Nr:Datum:Temp:Feuchte:
Aussen-T/F 426 15-05-2019 13:00:18 13.7 C 20 %
427 15-05-2019 13:12:18 14 C 20 %
428 15-05-2019 13:24:17 14 C 20 %
429 15-05-2019 13:36:17 14.4 C 20 %
430 15-05-2019 13:48:18 14.5 C 20 %
431 15-05-2019 14:00:17 14.5 C 20 %
432 15-05-2019 14:12:17 14.5 C 20 %
433 15-05-2019 14:24:17 15.3 C 20 %
434 15-05-2019 14:36:17 15.6 C 20 %
435 15-05-2019 14:48:17 15.6 C 20 %
436 15-05-2019 15:00:17 16.2 C 20 %
437 15-05-2019 15:12:17 16 C 20 %
438 15-05-2019 15:24:18 16.6 C 20 %
439 15-05-2019 15:36:17 17.1 C 20 %
440 15-05-2019 15:48:17 16.4 C 20 %
441 15-05-2019 16:00:17 16.7 C 20 %
442 15-05-2019 16:12:17 16.6 C 20 %
443 15-05-2019 16:24:17 16.6 C 20 %
444 15-05-2019 16:36:17 17 C 20 %
445 15-05-2019 16:48:17 17.4 C 20 %
446 15-05-2019 17:00:17 18.1 C 20 %
447 15-05-2019 17:12:17 18.1 C 20 %
448 15-05-2019 17:24:17 18.4 C 20 %
449 15-05-2019 17:36:17 18.9 C 20 %
450 15-05-2019 17:48:17 18.9 C 20 %
Sensor: Nr:Datum:Temp:Feuchte:
Aussen-T/F 451 15-05-2019 18:00:17 18.9 C 20 %
452 15-05-2019 18:12:17 17 C 20 %
453 15-05-2019 18:24:17 18 C 20 %
454 15-05-2019 18:36:17 17.6 C 20 %
455 15-05-2019 18:48:17 18.2 C 20 %
456 15-05-2019 19:00:18 17.9 C 20 %
457 15-05-2019 19:12:18 17.6 C 20 %
458 15-05-2019 19:24:17 16.6 C 20 %
459 15-05-2019 19:36:17 16 C 20 %
460 15-05-2019 19:48:17 15.6 C 20 %
461 15-05-2019 20:00:17 15.6 C 20 %
462 15-05-2019 20:12:17 15.6 C 20 %
463 15-05-2019 20:24:17 15.3 C 20 %
464 15-05-2019 20:36:17 14.3 C 20 %
465 15-05-2019 20:48:17 12.9 C 20 %
466 15-05-2019 21:00:17 12 C 20 %
467 15-05-2019 21:12:17 11.1 C 20 %
468 15-05-2019 21:24:18 10.9 C 20 %
469 15-05-2019 21:36:17 9.9 C 20 %
470 15-05-2019 21:48:17 9.9 C 20 %
471 15-05-2019 22:00:18 9.7 C 20 %
472 15-05-2019 22:12:18 9.7 C 20 %
473 15-05-2019 22:24:17 8.7 C 20 %
474 15-05-2019 22:36:17 8.6 C 20 %
475 15-05-2019 22:48:17 8.1 C 20 %
Sensor: Nr:Datum:Temp:Feuchte:
Aussen-T/F 476 15-05-2019 23:00:17 8 C 20 %
477 15-05-2019 23:12:17 7.6 C 20 %
478 15-05-2019 23:24:17 7.4 C 20 %
479 15-05-2019 23:36:17 7.1 C 20 %
480 15-05-2019 23:48:17 6.9 C 20 %
481 16-05-2019 00:00:17 6.7 C 20 %
482 16-05-2019 00:12:17 6.7 C 20 %
483 16-05-2019 00:24:17 6.6 C 20 %
484 16-05-2019 00:36:18 6.6 C 20 %
485 16-05-2019 00:48:17 6.4 C 20 %
486 16-05-2019 01:00:17 6.4 C 20 %
487 16-05-2019 01:12:17 6.4 C 20 %
488 16-05-2019 01:24:17 5.9 C 20 %
489 16-05-2019 01:36:17 5.6 C 20 %
490 16-05-2019 01:48:17 5.6 C 20 %
491 16-05-2019 02:00:17 5.6 C 20 %
492 16-05-2019 02:12:18 5.2 C 23 %
493 16-05-2019 02:24:17 5 C 25 %
494 16-05-2019 02:36:17 5 C 25 %
495 16-05-2019 02:48:17 5 C 25 %
496 16-05-2019 03:00:17 5 C 29 %
497 16-05-2019 03:12:17 5 C 29 %
498 16-05-2019 03:24:17 5 C 29 %
499 16-05-2019 03:36:18 5.3 C 28 %
500 16-05-2019 03:48:17 5.3 C 28 %
Sensor: Nr:Datum:Temp:Feuchte:
Aussen-T/F 501 16-05-2019 04:00:17 5.3 C 28 %
502 16-05-2019 04:12:17 5.3 C 28 %
503 16-05-2019 04:24:17 5.3 C 28 %
504 16-05-2019 04:36:18 5.3 C 28 %
505 16-05-2019 04:48:17 5.3 C 28 %
506 16-05-2019 05:00:17 5.3 C 28 %
507 16-05-2019 05:12:17 5.3 C 28 %
508 16-05-2019 05:24:17 5.3 C 28 %
509 16-05-2019 05:36:17 5.3 C 28 %
510 16-05-2019 05:48:17 5.7 C 30 %
511 16-05-2019 06:00:17 5.7 C 31 %
512 16-05-2019 06:12:17 5.7 C 31 %
513 16-05-2019 06:24:17 5.8 C 31 %
514 16-05-2019 06:36:17 5.8 C 31 %
515 16-05-2019 06:48:17 5.8 C 32 %
516 16-05-2019 07:00:17 5.8 C 32 %
517 16-05-2019 07:12:17 6.4 C 30 %
518 16-05-2019 07:24:17 6.6 C 27 %
519 16-05-2019 07:36:17 7.1 C 26 %
520 16-05-2019 07:48:17 7.1 C 26 %
521 16-05-2019 08:00:18 7.4 C 27 %
522 16-05-2019 08:12:18 7.7 C 26 %
523 16-05-2019 08:24:17 7.8 C 25 %
524 16-05-2019 08:36:17 7.8 C 25 %
525 16-05-2019 08:48:17 8.8 C 20 %
Sensor: Nr:Datum:Temp:Feuchte:
Aussen-T/F 526 16-05-2019 09:00:17 9.2 C 20 %
527 16-05-2019 09:12:17 10 C 20 %
528 16-05-2019 09:24:18 10.1 C 20 %
529 16-05-2019 09:36:17 10.1 C 20 %
530 16-05-2019 09:48:17 11.4 C 20 %
531 16-05-2019 10:00:18 11.7 C 20 %
532 16-05-2019 10:12:18 11.9 C 20 %
533 16-05-2019 10:24:17 11.9 C 20 %
534 16-05-2019 10:36:18 11.9 C 20 %
535 16-05-2019 10:48:17 11.9 C 20 %
536 16-05-2019 11:00:18 11.9 C 20 %
537 16-05-2019 11:12:18 11.9 C 20 %
538 16-05-2019 11:24:17 11.9 C 20 %
539 16-05-2019 11:36:18 11.9 C 20 %
540 16-05-2019 11:48:17 11.9 C 20 %
541 16-05-2019 12:00:17 11.9 C 20 %
542 16-05-2019 12:12:17 11.9 C 20 %
543 16-05-2019 12:24:17 11.9 C 20 %
544 16-05-2019 12:36:17 11.9 C 20 %
545 16-05-2019 12:48:17 11.9 C 20 %
546 16-05-2019 13:00:17 11.9 C 20 %
547 16-05-2019 13:12:17 11.9 C 20 %
548 16-05-2019 13:24:17 11.9 C 20 %
549 16-05-2019 13:36:18 11.9 C 20 %
550 16-05-2019 13:48:17 15.4 C 20 %
Sensor: Nr:Datum:Temp:Feuchte:
Aussen-T/F 551 16-05-2019 14:00:17 15.4 C 20 %
552 16-05-2019 14:12:17 15.4 C 20 %
553 16-05-2019 14:24:17 15.4 C 20 %
554 16-05-2019 14:36:17 15.4 C 20 %
555 16-05-2019 14:48:17 15.4 C 20 %
556 16-05-2019 15:00:17 15.4 C 20 %
557 16-05-2019 15:12:17 15.4 C 20 %
558 16-05-2019 15:24:17 18.7 C 20 %
559 16-05-2019 15:36:18 18.7 C 20 %
560 16-05-2019 15:48:17 18.7 C 20 %
561 16-05-2019 16:00:17 18.7 C 20 %
562 16-05-2019 16:12:17 19.6 C 20 %
563 16-05-2019 16:24:18 19.7 C 20 %
564 16-05-2019 16:36:17 19.7 C 20 %
565 16-05-2019 16:48:17 18.5 C 20 %
566 16-05-2019 17:00:17 17.9 C 20 %
567 16-05-2019 17:12:17 17.9 C 20 %
568 16-05-2019 17:24:17 17.3 C 20 %
569 16-05-2019 17:36:17 17.3 C 20 %
570 16-05-2019 17:48:17 16.9 C 20 %
571 16-05-2019 18:00:17 16.2 C 20 %
572 16-05-2019 18:12:17 16 C 20 %
573 16-05-2019 18:24:17 16 C 20 %
574 16-05-2019 18:36:17 15.2 C 20 %
575 16-05-2019 18:48:17 15 C 20 %
Sensor: Nr:Datum:Temp:Feuchte:
Aussen-T/F 576 16-05-2019 19:00:17 14.8 C 20 %
577 16-05-2019 19:12:17 14.4 C 20 %
578 16-05-2019 19:24:17 14 C 20 %
579 16-05-2019 19:36:17 13.8 C 20 %
580 16-05-2019 19:48:17 13.8 C 20 %
581 16-05-2019 20:00:17 13.2 C 20 %
582 16-05-2019 20:12:17 13 C 20 %
583 16-05-2019 20:24:17 12.5 C 20 %
584 16-05-2019 20:36:17 12.5 C 20 %
585 16-05-2019 20:48:17 12.1 C 20 %
586 16-05-2019 21:00:17 11.7 C 20 %
587 16-05-2019 21:12:17 11.5 C 20 %
588 16-05-2019 21:24:17 11.1 C 20 %
589 16-05-2019 21:36:17 10.9 C 20 %
590 16-05-2019 21:48:17 10.8 C 20 %
591 16-05-2019 22:00:17 10.6 C 20 %
592 16-05-2019 22:12:17 10.1 C 27 %
593 16-05-2019 22:24:17 9.9 C 29 %
594 16-05-2019 22:36:18 9.9 C 30 %
595 16-05-2019 22:48:17 9.9 C 30 %
596 16-05-2019 23:00:17 9.9 C 30 %
597 16-05-2019 23:12:17 9.4 C 32 %
598 16-05-2019 23:24:17 9.1 C 35 %
599 16-05-2019 23:36:17 9.1 C 35 %
600 16-05-2019 23:48:17 8.5 C 40 %
Sensor: Nr:Datum:Temp:Feuchte:
Aussen-T/F 601 17-05-2019 00:00:17 8.5 C 42 %
602 17-05-2019 00:12:17 8.5 C 44 %
603 17-05-2019 00:24:17 8.4 C 44 %
604 17-05-2019 00:36:17 8.3 C 45 %
605 17-05-2019 00:48:17 8.4 C 47 %
606 17-05-2019 01:00:17 8.4 C 47 %
607 17-05-2019 01:12:17 8.4 C 47 %
608 17-05-2019 01:24:18 8.3 C 49 %
609 17-05-2019 01:36:17 8.2 C 49 %
610 17-05-2019 01:48:17 8.2 C 49 %
611 17-05-2019 02:00:17 8.2 C 49 %
612 17-05-2019 02:12:17 8.2 C 49 %
613 17-05-2019 02:24:17 8.2 C 50 %
614 17-05-2019 02:36:17 8.2 C 50 %
615 17-05-2019 02:48:17 8.2 C 50 %
616 17-05-2019 03:00:18 8.2 C 50 %
617 17-05-2019 03:12:18 8.2 C 50 %
618 17-05-2019 03:24:17 8.2 C 50 %
619 17-05-2019 03:36:17 8.2 C 50 %
620 17-05-2019 03:48:17 8.2 C 50 %
621 17-05-2019 04:00:18 8.1 C 50 %
622 17-05-2019 04:12:18 8.1 C 50 %
623 17-05-2019 04:24:17 8.1 C 50 %
624 17-05-2019 04:36:17 8 C 50 %
625 17-05-2019 04:48:17 8 C 51 %
Sensor: Nr:Datum:Temp:Feuchte:
Aussen-T/F 626 17-05-2019 05:00:17 8 C 51 %
627 17-05-2019 05:12:17 8 C 51 %
628 17-05-2019 05:24:17 8 C 51 %
629 17-05-2019 05:36:17 8 C 51 %
630 17-05-2019 05:48:18 8.1 C 51 %
631 17-05-2019 06:00:17 8 C 52 %
632 17-05-2019 06:12:17 8 C 52 %
633 17-05-2019 06:24:17 8.1 C 52 %
634 17-05-2019 06:36:17 8.1 C 52 %
635 17-05-2019 06:48:17 8.1 C 52 %
636 17-05-2019 07:00:17 8.3 C 54 %
637 17-05-2019 07:12:17 8.4 C 54 %
638 17-05-2019 07:24:17 8.4 C 54 %
639 17-05-2019 07:36:17 8.6 C 55 %
640 17-05-2019 07:48:17 8.5 C 54 %
641 17-05-2019 08:00:17 8.6 C 52 %
642 17-05-2019 08:12:17 8.6 C 52 %
643 17-05-2019 08:24:17 8.7 C 51 %
644 17-05-2019 08:36:17 8.8 C 49 %
645 17-05-2019 08:48:17 8.9 C 48 %
646 17-05-2019 09:00:17 8.9 C 47 %
647 17-05-2019 09:12:17 9 C 47 %
648 17-05-2019 09:24:17 9.1 C 46 %
649 17-05-2019 09:36:17 9.2 C 46 %
650 17-05-2019 09:48:18 9.1 C 46 %
Sensor: Nr:Datum:Temp:Feuchte:
Aussen-T/F 651 17-05-2019 10:00:17 9.1 C 46 %
652 17-05-2019 10:12:17 9.2 C 45 %
653 17-05-2019 10:24:17 9.2 C 45 %
654 17-05-2019 10:36:17 9.5 C 44 %
655 17-05-2019 10:48:17 9.7 C 44 %
656 17-05-2019 11:00:18 9.9 C 43 %
657 17-05-2019 11:12:18 9.8 C 43 %
658 17-05-2019 11:24:17 10 C 42 %
659 17-05-2019 11:36:17 10.1 C 41 %
660 17-05-2019 11:48:17 10.4 C 42 %
661 17-05-2019 12:00:17 10.6 C 40 %
662 17-05-2019 12:12:17 11.1 C 38 %
663 17-05-2019 12:24:17 11.5 C 36 %
664 17-05-2019 12:36:17 11.9 C 35 %
665 17-05-2019 12:48:17 12.5 C 31 %
666 17-05-2019 13:00:18 12.7 C 32 %
667 17-05-2019 13:12:18 13.8 C 29 %
668 17-05-2019 13:24:17 13.9 C 28 %
669 17-05-2019 13:36:17 13.7 C 27 %
670 17-05-2019 13:48:17 14.5 C 26 %
671 17-05-2019 14:00:17 14.7 C 26 %
672 17-05-2019 14:12:17 15.1 C 25 %
673 17-05-2019 14:24:18 15.8 C 25 %
674 17-05-2019 14:36:17 16 C 22 %
675 17-05-2019 14:48:17 16.5 C 20 %
Sensor: Nr:Datum:Temp:Feuchte:
Aussen-T/F 676 17-05-2019 15:00:17 15.9 C 25 %
677 17-05-2019 15:12:17 15.8 C 23 %
678 17-05-2019 15:24:18 16.7 C 22 %
679 17-05-2019 15:36:17 16.2 C 20 %
680 17-05-2019 15:48:17 16.2 C 20 %
681 17-05-2019 16:00:17 17.4 C 20 %
682 17-05-2019 16:12:17 16.8 C 20 %
683 17-05-2019 16:24:17 16.6 C 20 %
684 17-05-2019 16:36:17 17.1 C 20 %
685 17-05-2019 16:48:17 17.4 C 20 %
686 17-05-2019 17:00:17 17.8 C 20 %
687 17-05-2019 17:12:17 17.7 C 20 %
688 17-05-2019 17:24:17 17.6 C 20 %
689 17-05-2019 17:36:17 18.7 C 20 %
690 17-05-2019 17:48:17 17.5 C 20 %
691 17-05-2019 18:00:17 17 C 20 %
692 17-05-2019 18:12:17 17 C 21 %
693 17-05-2019 18:24:17 16.5 C 26 %
694 17-05-2019 18:36:17 16.3 C 27 %
695 17-05-2019 18:48:17 16.2 C 22 %
696 17-05-2019 19:00:18 17.2 C 20 %
697 17-05-2019 19:12:18 17.3 C 20 %
698 17-05-2019 19:24:17 16.5 C 26 %
699 17-05-2019 19:36:17 16.5 C 26 %
700 17-05-2019 19:48:17 14.9 C 31 %
Sensor: Nr:Datum:Temp:Feuchte:
Aussen-T/F 701 17-05-2019 20:00:17 14.1 C 33 %
702 17-05-2019 20:12:17 13.9 C 34 %
703 17-05-2019 20:24:17 13.9 C 34 %
704 17-05-2019 20:36:17 12.4 C 39 %
705 17-05-2019 20:48:17 12 C 40 %
706 17-05-2019 21:00:17 11.6 C 41 %
707 17-05-2019 21:12:17 11.6 C 41 %
708 17-05-2019 21:24:17 11.2 C 43 %
709 17-05-2019 21:36:17 11.1 C 45 %
710 17-05-2019 21:48:17 11.3 C 46 %
711 17-05-2019 22:00:17 11.4 C 46 %
712 17-05-2019 22:12:17 11.6 C 46 %
713 17-05-2019 22:24:17 11.6 C 45 %
714 17-05-2019 22:36:17 11.6 C 45 %
715 17-05-2019 22:48:17 11.7 C 45 %
716 17-05-2019 23:00:17 11.5 C 45 %
717 17-05-2019 23:12:17 11.5 C 46 %
718 17-05-2019 23:24:17 11.3 C 49 %
719 17-05-2019 23:36:17 11.3 C 49 %
720 17-05-2019 23:48:17 11.3 C 49 %
721 18-05-2019 00:00:17 11.3 C 49 %
722 18-05-2019 00:12:17 11.3 C 49 %
723 18-05-2019 00:24:17 11.3 C 49 %
724 18-05-2019 00:36:17 11.3 C 49 %
725 18-05-2019 00:48:17 11.3 C 49 %
Sensor: Nr:Datum:Temp:Feuchte:
Aussen-T/F 726 18-05-2019 01:00:18 11.3 C 49 %
727 18-05-2019 01:12:18 11.3 C 49 %
728 18-05-2019 01:24:17 11.3 C 49 %
729 18-05-2019 01:36:17 11.3 C 49 %
730 18-05-2019 01:48:17 11.3 C 49 %
731 18-05-2019 02:00:17 11.3 C 49 %
732 18-05-2019 02:12:17 11.3 C 49 %
733 18-05-2019 02:24:18 11.3 C 49 %
734 18-05-2019 02:36:17 11.3 C 49 %
735 18-05-2019 02:48:17 11.3 C 49 %
736 18-05-2019 03:00:17 11.3 C 49 %
737 18-05-2019 03:12:17 11.3 C 49 %
738 18-05-2019 03:24:17 11.3 C 49 %
739 18-05-2019 03:36:17 11.3 C 49 %
740 18-05-2019 03:48:17 11.3 C 49 %
741 18-05-2019 04:00:17 11.3 C 49 %
742 18-05-2019 04:12:17 11.3 C 49 %
743 18-05-2019 04:24:17 11.3 C 49 %
744 18-05-2019 04:36:17 11.3 C 49 %
745 18-05-2019 04:48:17 11.3 C 49 %
746 18-05-2019 05:00:17 11.3 C 49 %
747 18-05-2019 05:12:17 11.3 C 49 %
748 18-05-2019 05:24:17 11.3 C 49 %
749 18-05-2019 05:36:17 11.3 C 49 %
750 18-05-2019 05:48:17 8.3 C 62 %
Sensor: Nr:Datum:Temp:Feuchte:
Aussen-T/F 751 18-05-2019 06:00:17 8.3 C 62 %
752 18-05-2019 06:12:17 8.3 C 62 %
753 18-05-2019 06:24:17 8.6 C 65 %
754 18-05-2019 06:36:17 8.9 C 66 %
755 18-05-2019 06:48:17 8.9 C 66 %
756 18-05-2019 07:00:17 9.6 C 67 %
757 18-05-2019 07:12:17 9.6 C 65 %
758 18-05-2019 07:24:17 9.9 C 66 %
759 18-05-2019 07:36:17 10 C 65 %
760 18-05-2019 07:48:17 10.5 C 65 %
761 18-05-2019 08:00:17 10.6 C 65 %
762 18-05-2019 08:12:17 10.6 C 65 %
763 18-05-2019 08:24:17 11.3 C 62 %
764 18-05-2019 08:36:17 11.7 C 63 %
765 18-05-2019 08:48:18 12.2 C 50 %
766 18-05-2019 09:00:17 12.3 C 44 %
767 18-05-2019 09:12:17 12.7 C 38 %
768 18-05-2019 09:24:17 13.2 C 35 %
769 18-05-2019 09:36:17 13.2 C 35 %
770 18-05-2019 09:48:17 14.1 C 31 %
771 18-05-2019 10:00:17 14.6 C 32 %
772 18-05-2019 10:12:17 14.7 C 31 %
773 18-05-2019 10:24:17 14.9 C 31 %
774 18-05-2019 10:36:17 15.8 C 30 %
775 18-05-2019 10:48:17 16.8 C 26 %
Sensor: Nr:Datum:Temp:Feuchte:
Aussen-T/F 776 18-05-2019 11:00:17 17.5 C 22 %
777 18-05-2019 11:12:17 17.6 C 20 %
778 18-05-2019 11:24:17 19.2 C 20 %
779 18-05-2019 11:36:17 18.9 C 20 %
780 18-05-2019 11:48:17 18.5 C 20 %
781 18-05-2019 12:00:17 18.7 C 20 %
782 18-05-2019 12:12:17 19 C 20 %
783 18-05-2019 12:24:17 19.2 C 20 %
784 18-05-2019 12:36:18 19.1 C 20 %
785 18-05-2019 12:48:17 19.1 C 20 %
786 18-05-2019 13:00:17 18.8 C 20 %
787 18-05-2019 13:12:17 19.4 C 20 %
788 18-05-2019 13:24:17 19.3 C 20 %
789 18-05-2019 13:36:17 19.6 C 20 %
790 18-05-2019 13:48:17 19.4 C 20 %
791 18-05-2019 14:00:17 20.1 C 20 %
792 18-05-2019 14:12:17 21.1 C 20 %
793 18-05-2019 14:24:17 21.6 C 20 %
794 18-05-2019 14:36:17 21.6 C 20 %
795 18-05-2019 14:48:17 21.4 C 20 %
796 18-05-2019 15:00:18 21.2 C 20 %
797 18-05-2019 15:12:18 21.1 C 20 %
798 18-05-2019 15:24:17 21.2 C 20 %
799 18-05-2019 15:36:17 21.2 C 20 %
800 18-05-2019 15:48:17 22.9 C 20 %
Sensor: Nr:Datum:Temp:Feuchte:
Aussen-T/F 801 18-05-2019 16:00:18 22 C 20 %
802 18-05-2019 16:12:18 22 C 20 %
803 18-05-2019 16:24:17 22.5 C 20 %
804 18-05-2019 16:36:17 22.7 C 20 %
805 18-05-2019 16:48:17 21.8 C 20 %
806 18-05-2019 17:00:17 21.5 C 20 %
807 18-05-2019 17:12:17 21.6 C 20 %
808 18-05-2019 17:24:17 21.6 C 20 %
809 18-05-2019 17:36:17 20.2 C 20 %
810 18-05-2019 17:48:18 20.4 C 20 %
811 18-05-2019 18:00:17 19.4 C 20 %
812 18-05-2019 18:12:17 18.4 C 24 %
813 18-05-2019 18:24:17 16.7 C 29 %
814 18-05-2019 18:36:18 16.2 C 30 %
815 18-05-2019 18:48:17 16.1 C 30 %
816 18-05-2019 19:00:17 15.4 C 30 %
817 18-05-2019 19:12:17 14.8 C 38 %
818 18-05-2019 19:24:18 14.7 C 42 %
819 18-05-2019 19:36:17 14.7 C 44 %
820 18-05-2019 19:48:17 14.6 C 43 %
821 18-05-2019 20:00:17 14.5 C 42 %
822 18-05-2019 20:12:17 14.4 C 44 %
823 18-05-2019 20:24:17 14.2 C 43 %
824 18-05-2019 20:36:17 14 C 43 %
825 18-05-2019 20:48:18 13.8 C 44 %
Sensor: Nr:Datum:Temp:Feuchte:
Aussen-T/F 826 18-05-2019 21:00:17 13.8 C 44 %
827 18-05-2019 21:12:17 13.8 C 44 %
828 18-05-2019 21:24:17 13.2 C 46 %
829 18-05-2019 21:36:18 13.1 C 46 %
830 18-05-2019 21:48:17 13.1 C 46 %
831 18-05-2019 22:00:17 12.5 C 47 %
832 18-05-2019 22:12:17 12.3 C 47 %
833 18-05-2019 22:24:18 12.2 C 47 %
834 18-05-2019 22:36:17 12.2 C 47 %
835 18-05-2019 22:48:17 12 C 48 %
836 18-05-2019 23:00:18 12 C 48 %
837 18-05-2019 23:12:18 12 C 48 %
838 18-05-2019 23:24:17 12 C 48 %
839 18-05-2019 23:36:17 12.1 C 49 %
840 18-05-2019 23:48:17 12.1 C 49 %
841 19-05-2019 00:00:17 12.1 C 49 %
842 19-05-2019 00:12:17 12.1 C 49 %
843 19-05-2019 00:24:18 12.3 C 48 %
844 19-05-2019 00:36:17 12.3 C 48 %
845 19-05-2019 00:48:17 12.4 C 49 %
846 19-05-2019 01:00:17 12.4 C 50 %
847 19-05-2019 01:12:17 12.3 C 51 %
848 19-05-2019 01:24:17 12.4 C 51 %
849 19-05-2019 01:36:17 12.2 C 52 %
850 19-05-2019 01:48:17 12.1 C 52 %
Sensor: Nr:Datum:Temp:Feuchte:
Aussen-T/F 851 19-05-2019 02:00:17 12.1 C 52 %
852 19-05-2019 02:12:17 12.1 C 52 %
853 19-05-2019 02:24:17 12.1 C 52 %
854 19-05-2019 02:36:17 12.1 C 52 %
855 19-05-2019 02:48:17 12.1 C 52 %
856 19-05-2019 03:00:17 12.1 C 52 %
857 19-05-2019 03:12:17 10.9 C 60 %
858 19-05-2019 03:24:17 10.9 C 60 %
859 19-05-2019 03:36:17 10.9 C 60 %
860 19-05-2019 03:48:17 10.9 C 60 %
861 19-05-2019 04:00:17 11.2 C 64 %
862 19-05-2019 04:12:17 11.2 C 64 %
863 19-05-2019 04:24:17 11.2 C 64 %
864 19-05-2019 04:36:17 11.2 C 64 %
865 19-05-2019 04:48:17 11.2 C 64 %
866 19-05-2019 05:00:17 11.2 C 64 %
867 19-05-2019 05:12:17 11.2 C 64 %
868 19-05-2019 05:24:17 11.2 C 64 %
869 19-05-2019 05:36:18 11.2 C 64 %
870 19-05-2019 05:48:17 11.2 C 64 %
871 19-05-2019 06:00:17 11.2 C 64 %
872 19-05-2019 06:12:17 11.2 C 64 %
873 19-05-2019 06:24:17 11.2 C 64 %
874 19-05-2019 06:36:17 11.2 C 64 %
875 19-05-2019 06:48:18 11.2 C 64 %
Sensor: Nr:Datum:Temp:Feuchte:
Aussen-T/F 876 19-05-2019 07:00:17 11.2 C 64 %
877 19-05-2019 07:12:17 11.2 C 64 %
878 19-05-2019 07:24:17 11.2 C 64 %
879 19-05-2019 07:36:18 11.2 C 64 %
880 19-05-2019 07:48:17 11.2 C 64 %
881 19-05-2019 08:00:17 12.1 C 64 %
882 19-05-2019 08:12:17 12.5 C 64 %
883 19-05-2019 08:24:17 12.5 C 62 %
884 19-05-2019 08:36:17 12.8 C 60 %
885 19-05-2019 08:48:17 12.8 C 60 %
886 19-05-2019 09:00:18 13.3 C 48 %
887 19-05-2019 09:12:18 13.7 C 46 %
888 19-05-2019 09:24:17 13.8 C 45 %
889 19-05-2019 09:36:17 14.3 C 41 %
890 19-05-2019 09:48:17 15.1 C 37 %
891 19-05-2019 10:00:18 15.1 C 35 %
892 19-05-2019 10:12:18 15.8 C 33 %
893 19-05-2019 10:24:17 15.9 C 32 %
894 19-05-2019 10:36:17 16 C 32 %
895 19-05-2019 10:48:17 15.9 C 32 %
896 19-05-2019 11:00:17 15.8 C 32 %
897 19-05-2019 11:12:17 16.5 C 32 %
898 19-05-2019 11:24:17 17.5 C 30 %
899 19-05-2019 11:36:17 17.8 C 30 %
900 19-05-2019 11:48:17 17.8 C 28 %
Sensor: Nr:Datum:Temp:Feuchte:
Aussen-T/F 901 19-05-2019 12:00:17 18.8 C 26 %
902 19-05-2019 12:12:17 18.6 C 25 %
903 19-05-2019 12:24:17 19.4 C 25 %
904 19-05-2019 12:36:17 19.7 C 25 %
905 19-05-2019 12:48:17 19.5 C 25 %
906 19-05-2019 13:00:17 19.5 C 25 %
907 19-05-2019 13:12:18 19 C 23 %
908 19-05-2019 13:24:17 19.1 C 22 %
909 19-05-2019 13:36:17 19.4 C 21 %
910 19-05-2019 13:48:17 19.7 C 20 %
911 19-05-2019 14:00:17 19.9 C 20 %
912 19-05-2019 14:12:17 20.6 C 20 %
913 19-05-2019 14:24:18 21.1 C 20 %
914 19-05-2019 14:36:17 21.9 C 20 %
915 19-05-2019 14:48:17 22.6 C 20 %
916 19-05-2019 15:00:18 22.6 C 20 %
917 19-05-2019 15:12:18 22.8 C 20 %
918 19-05-2019 15:24:17 23.1 C 20 %
919 19-05-2019 15:36:18 23.6 C 20 %
920 19-05-2019 15:48:17 24 C 20 %
921 19-05-2019 16:00:17 24 C 20 %
922 19-05-2019 16:12:17 23.2 C 20 %
923 19-05-2019 16:24:18 23.8 C 20 %
924 19-05-2019 16:36:17 24.2 C 20 %
925 19-05-2019 16:48:17 23.2 C 20 %
Sensor: Nr:Datum:Temp:Feuchte:
Aussen-T/F 926 19-05-2019 17:00:18 22 C 20 %
927 19-05-2019 17:12:18 19.9 C 20 %
928 19-05-2019 17:24:17 19.9 C 20 %
929 19-05-2019 17:36:17 18.9 C 20 %
930 19-05-2019 17:48:17 19.1 C 20 %
931 19-05-2019 18:00:17 19.3 C 20 %
932 19-05-2019 18:12:17 20.4 C 20 %
933 19-05-2019 18:24:17 20.4 C 20 %
934 19-05-2019 18:36:17 21.4 C 20 %
935 19-05-2019 18:48:17 21.2 C 20 %
936 19-05-2019 19:00:18 21 C 20 %
937 19-05-2019 19:12:18 23.4 C 20 %
938 19-05-2019 19:24:17 22.5 C 20 %
939 19-05-2019 19:36:18 20.4 C 20 %
940 19-05-2019 19:48:17 20.4 C 20 %
941 19-05-2019 20:00:17 19.3 C 20 %
942 19-05-2019 20:12:17 18.9 C 20 %
943 19-05-2019 20:24:18 18.8 C 20 %
944 19-05-2019 20:36:17 17.7 C 20 %
945 19-05-2019 20:48:17 16.2 C 25 %
946 19-05-2019 21:00:17 15.5 C 27 %
947 19-05-2019 21:12:17 14.9 C 29 %
948 19-05-2019 21:24:17 14.6 C 31 %
949 19-05-2019 21:36:17 14.5 C 33 %
950 19-05-2019 21:48:17 14.3 C 33 %
Sensor: Nr:Datum:Temp:Feuchte:
Aussen-T/F 951 19-05-2019 22:00:17 14.1 C 34 %
952 19-05-2019 22:12:17 14 C 35 %
953 19-05-2019 22:24:17 14.1 C 35 %
954 19-05-2019 22:36:17 14.2 C 35 %
955 19-05-2019 22:48:17 14.1 C 35 %
956 19-05-2019 23:00:17 14.4 C 32 %
957 19-05-2019 23:12:17 14.2 C 32 %
958 19-05-2019 23:24:17 14.4 C 32 %
959 19-05-2019 23:36:18 14 C 32 %
960 19-05-2019 23:48:17 13.8 C 34 %
961 20-05-2019 00:00:17 13.8 C 34 %
962 20-05-2019 00:12:17 14.2 C 32 %
963 20-05-2019 00:24:17 14 C 33 %
964 20-05-2019 00:36:17 13.7 C 35 %
965 20-05-2019 00:48:17 13.4 C 37 %
966 20-05-2019 01:00:18 13.2 C 38 %
967 20-05-2019 01:12:18 13.1 C 40 %
968 20-05-2019 01:24:17 12.9 C 41 %
969 20-05-2019 01:36:17 12.9 C 41 %
970 20-05-2019 01:48:17 12.1 C 44 %
971 20-05-2019 02:00:17 12 C 45 %
972 20-05-2019 02:12:17 12 C 45 %
973 20-05-2019 02:24:17 11.7 C 46 %
974 20-05-2019 02:36:18 11.6 C 46 %
975 20-05-2019 02:48:17 11.6 C 46 %
Sensor: Nr:Datum:Temp:Feuchte:
Aussen-T/F 976 20-05-2019 03:00:17 11.6 C 46 %
977 20-05-2019 03:12:17 11.8 C 49 %
978 20-05-2019 03:24:17 11.8 C 47 %
979 20-05-2019 03:36:17 11.7 C 47 %
980 20-05-2019 03:48:17 12 C 48 %
981 20-05-2019 04:00:18 12.1 C 47 %
982 20-05-2019 04:12:18 12.5 C 46 %
983 20-05-2019 04:24:17 12.7 C 44 %
984 20-05-2019 04:36:17 12.8 C 43 %
985 20-05-2019 04:48:17 12.9 C 41 %
986 20-05-2019 05:00:17 13.1 C 40 %
987 20-05-2019 05:12:17 13.1 C 40 %
988 20-05-2019 05:24:17 13.1 C 40 %
989 20-05-2019 05:36:17 13.1 C 40 %
990 20-05-2019 05:48:17 13.1 C 40 %
991 20-05-2019 06:00:18 13.1 C 39 %
992 20-05-2019 06:12:18 13.1 C 38 %
993 20-05-2019 06:24:17 13.1 C 39 %
994 20-05-2019 06:36:17 13.1 C 38 %
995 20-05-2019 06:48:17 13 C 39 %
996 20-05-2019 07:00:18 13.1 C 39 %
997 20-05-2019 07:12:18 13.1 C 39 %
998 20-05-2019 07:24:17 13.1 C 39 %
999 20-05-2019 07:36:17 13.1 C 39 %
1000 20-05-2019 07:48:17 13.2 C 39 %
Sensor: Nr:Datum:Temp:Feuchte:
Aussen-T/F 1001 20-05-2019 08:00:17 13.2 C 39 %
1002 20-05-2019 08:12:17 13.2 C 39 %
1003 20-05-2019 08:24:17 13.5 C 38 %
1004 20-05-2019 08:36:18 13.6 C 38 %
1005 20-05-2019 08:48:18 13.7 C 37 %
1006 20-05-2019 09:00:17 13.6 C 37 %
1007 20-05-2019 09:12:17 13.8 C 36 %
1008 20-05-2019 09:24:17 14 C 35 %
1009 20-05-2019 09:36:18 14 C 35 %
1010 20-05-2019 09:48:17 14 C 35 %
1011 20-05-2019 10:00:17 14.2 C 35 %
1012 20-05-2019 10:12:17 14.2 C 34 %
1013 20-05-2019 10:24:17 14.2 C 34 %
1014 20-05-2019 10:36:17 14 C 35 %
1015 20-05-2019 10:48:17 13.6 C 40 %
1016 20-05-2019 11:00:17 13.5 C 41 %
1017 20-05-2019 11:12:17 13.5 C 44 %
1018 20-05-2019 11:24:17 13.4 C 44 %
1019 20-05-2019 11:36:17 13.7 C 46 %
1020 20-05-2019 11:48:17 13.4 C 44 %
1021 20-05-2019 12:00:17 13.6 C 45 %
1022 20-05-2019 12:12:17 13.5 C 44 %
1023 20-05-2019 12:24:17 13.7 C 43 %
1024 20-05-2019 12:36:18 13.8 C 41 %
1025 20-05-2019 12:48:17 13.8 C 40 %
Sensor: Nr:Datum:Temp:Feuchte:
Aussen-T/F 1026 20-05-2019 13:00:17 13.8 C 41 %
1027 20-05-2019 13:12:17 13.8 C 41 %
1028 20-05-2019 13:24:18 13.4 C 42 %
1029 20-05-2019 13:36:17 13.4 C 42 %
1030 20-05-2019 13:48:17 13.5 C 42 %
1031 20-05-2019 14:00:17 13.8 C 41 %
1032 20-05-2019 14:12:17 14.1 C 37 %
1033 20-05-2019 14:24:17 14.6 C 36 %
1034 20-05-2019 14:36:17 14.5 C 36 %
1035 20-05-2019 14:48:17 14.5 C 35 %
1036 20-05-2019 15:00:17 14.9 C 34 %
1037 20-05-2019 15:12:17 14.8 C 33 %
1038 20-05-2019 15:24:17 14.5 C 35 %
1039 20-05-2019 15:36:17 14.5 C 36 %
1040 20-05-2019 15:48:17 14.5 C 34 %
1041 20-05-2019 16:00:18 14.6 C 33 %
1042 20-05-2019 16:12:18 14.7 C 33 %
1043 20-05-2019 16:24:17 14.9 C 32 %
1044 20-05-2019 16:36:18 15 C 31 %
1045 20-05-2019 16:48:18 15.1 C 31 %
1046 20-05-2019 17:00:17 15 C 31 %
1047 20-05-2019 17:12:17 14.8 C 33 %
1048 20-05-2019 17:24:17 14.8 C 32 %
1049 20-05-2019 17:36:17 14.8 C 33 %
1050 20-05-2019 17:48:17 14.8 C 33 %
Sensor: Nr:Datum:Temp:Feuchte:
Aussen-T/F 1051 20-05-2019 18:00:18 14.8 C 32 %
1052 20-05-2019 18:12:18 14.8 C 32 %
1053 20-05-2019 18:24:17 14.7 C 32 %
1054 20-05-2019 18:36:17 14.7 C 32 %
1055 20-05-2019 18:48:17 14.6 C 32 %
1056 20-05-2019 19:00:17 14.5 C 32 %
1057 20-05-2019 19:12:17 14.4 C 33 %
1058 20-05-2019 19:24:17 14.4 C 34 %
1059 20-05-2019 19:36:17 14.3 C 34 %
1060 20-05-2019 19:48:17 14.4 C 33 %
1061 20-05-2019 20:00:17 14.3 C 34 %
1062 20-05-2019 20:12:17 14.2 C 34 %
1063 20-05-2019 20:24:17 14.2 C 34 %
1064 20-05-2019 20:36:17 14.2 C 34 %
1065 20-05-2019 20:48:17 14.2 C 34 %
1066 20-05-2019 21:00:18 14 C 36 %
1067 20-05-2019 21:12:18 13.9 C 37 %
1068 20-05-2019 21:24:17 13.9 C 36 %
1069 20-05-2019 21:36:17 13.9 C 36 %
1070 20-05-2019 21:48:17 13.8 C 36 %
1071 20-05-2019 22:00:17 13.8 C 36 %
1072 20-05-2019 22:12:17 13.8 C 36 %
1073 20-05-2019 22:24:18 13.8 C 36 %
1074 20-05-2019 22:36:17 13.7 C 36 %
1075 20-05-2019 22:48:17 13.7 C 36 %
Sensor: Nr:Datum:Temp:Feuchte:
Aussen-T/F 1076 20-05-2019 23:00:17 13.7 C 36 %
1077 20-05-2019 23:12:18 13.8 C 35 %
1078 20-05-2019 23:24:17 13.7 C 36 %
1079 20-05-2019 23:36:18 14 C 33 %
1080 20-05-2019 23:48:17 14 C 32 %
1081 21-05-2019 00:00:17 14.1 C 32 %
1082 21-05-2019 00:12:17 14 C 33 %
1083 21-05-2019 00:24:17 13.9 C 34 %
1084 21-05-2019 00:36:17 13.8 C 35 %
1085 21-05-2019 00:48:17 13.8 C 35 %
1086 21-05-2019 01:00:17 13.5 C 38 %
1087 21-05-2019 01:12:17 13.5 C 39 %
1088 21-05-2019 01:24:17 13.4 C 39 %
1089 21-05-2019 01:36:17 13.4 C 40 %
1090 21-05-2019 01:48:17 13.2 C 40 %
1091 21-05-2019 02:00:17 13.2 C 41 %
1092 21-05-2019 02:12:17 13.2 C 41 %
1093 21-05-2019 02:24:17 13.2 C 40 %
1094 21-05-2019 02:36:17 13.2 C 40 %
1095 21-05-2019 02:48:18 13 C 42 %
1096 21-05-2019 03:00:17 12.9 C 43 %
1097 21-05-2019 03:12:17 13 C 43 %
1098 21-05-2019 03:24:17 13 C 43 %
1099 21-05-2019 03:36:18 12.8 C 43 %
1100 21-05-2019 03:48:17 12.8 C 43 %
Sensor: Nr:Datum:Temp:Feuchte:
Aussen-T/F 1101 21-05-2019 04:00:18 12.8 C 42 %
1102 21-05-2019 04:12:18 12.8 C 42 %
1103 21-05-2019 04:24:17 12.8 C 41 %
1104 21-05-2019 04:36:17 12.8 C 41 %
1105 21-05-2019 04:48:18 12.8 C 40 %
1106 21-05-2019 05:00:17 12.7 C 40 %
1107 21-05-2019 05:12:17 12.2 C 41 %
1108 21-05-2019 05:24:17 12 C 45 %
1109 21-05-2019 05:36:18 11.8 C 48 %
1110 21-05-2019 05:48:17 11.8 C 48 %
1111 21-05-2019 06:00:17 11.6 C 49 %
1112 21-05-2019 06:12:17 11.5 C 49 %
1113 21-05-2019 06:24:17 11.5 C 49 %
1114 21-05-2019 06:36:17 11.4 C 49 %
1115 21-05-2019 06:48:17 11.5 C 49 %
1116 21-05-2019 07:00:17 11.4 C 50 %
1117 21-05-2019 07:12:17 11.4 C 50 %
1118 21-05-2019 07:24:17 11.5 C 49 %
1119 21-05-2019 07:36:17 11.5 C 47 %
1120 21-05-2019 07:48:17 11.5 C 47 %
1121 21-05-2019 08:00:17 11.5 C 47 %
1122 21-05-2019 08:12:17 11.5 C 47 %
1123 21-05-2019 08:24:17 11.6 C 47 %
1124 21-05-2019 08:36:17 11.7 C 46 %
1125 21-05-2019 08:48:17 11.7 C 46 %
Sensor: Nr:Datum:Temp:Feuchte:
Aussen-T/F 1126 21-05-2019 09:00:17 11.7 C 46 %
1127 21-05-2019 09:12:17 11.7 C 46 %
1128 21-05-2019 09:24:17 11.7 C 46 %
1129 21-05-2019 09:36:17 11.7 C 45 %
1130 21-05-2019 09:48:17 11.7 C 46 %
1131 21-05-2019 10:00:18 11.6 C 46 %
1132 21-05-2019 10:12:18 11.6 C 47 %
1133 21-05-2019 10:24:17 11.6 C 47 %
1134 21-05-2019 10:36:17 11.6 C 46 %
1135 21-05-2019 10:48:18 11.6 C 45 %
1136 21-05-2019 11:00:17 11.7 C 46 %
1137 21-05-2019 11:12:17 11.7 C 46 %
1138 21-05-2019 11:24:17 11.4 C 45 %
1139 21-05-2019 11:36:17 11.4 C 45 %
1140 21-05-2019 11:48:17 11.4 C 46 %
1141 21-05-2019 12:00:17 11.4 C 47 %
1142 21-05-2019 12:12:17 11.4 C 46 %
1143 21-05-2019 12:24:17 11.5 C 46 %
1144 21-05-2019 12:36:17 11.4 C 46 %
1145 21-05-2019 12:48:17 11.5 C 46 %
1146 21-05-2019 13:00:17 11.4 C 46 %
1147 21-05-2019 13:12:17 11.5 C 47 %
1148 21-05-2019 13:24:17 11.6 C 46 %
1149 21-05-2019 13:36:18 11.6 C 46 %
1150 21-05-2019 13:48:17 11.8 C 47 %
Sensor: Nr:Datum:Temp:Feuchte:
Aussen-T/F 1151 21-05-2019 14:00:17 11.5 C 46 %
1152 21-05-2019 14:12:17 11.6 C 47 %
1153 21-05-2019 14:24:18 11.5 C 47 %
1154 21-05-2019 14:36:17 11.4 C 46 %
1155 21-05-2019 14:48:17 11.5 C 46 %
1156 21-05-2019 15:00:17 11.2 C 46 %
1157 21-05-2019 15:12:17 11.3 C 45 %
1158 21-05-2019 15:24:17 11.6 C 45 %
1159 21-05-2019 15:36:17 11.6 C 45 %
1160 21-05-2019 15:48:17 11.4 C 45 %
1161 21-05-2019 16:00:17 11.4 C 46 %
1162 21-05-2019 16:12:17 11.4 C 47 %
1163 21-05-2019 16:24:17 11.4 C 47 %
1164 21-05-2019 16:36:17 11.4 C 47 %
1165 21-05-2019 16:48:17 11.4 C 47 %
1166 21-05-2019 17:00:18 11.5 C 48 %
1167 21-05-2019 17:12:18 11.5 C 48 %
1168 21-05-2019 17:24:17 11.4 C 46 %
1169 21-05-2019 17:36:17 11.5 C 46 %
1170 21-05-2019 17:48:17 11.5 C 47 %
1171 21-05-2019 18:00:18 11.6 C 46 %
1172 21-05-2019 18:12:18 11.6 C 46 %
1173 21-05-2019 18:24:17 11.6 C 46 %
1174 21-05-2019 18:36:17 11.8 C 47 %
1175 21-05-2019 18:48:17 11.8 C 47 %
Sensor: Nr:Datum:Temp:Feuchte:
Aussen-T/F 1176 21-05-2019 19:00:18 11.8 C 47 %
1177 21-05-2019 19:12:18 11.8 C 45 %
1178 21-05-2019 19:24:17 11.7 C 46 %
1179 21-05-2019 19:36:17 11.7 C 47 %
1180 21-05-2019 19:48:17 11.6 C 47 %
1181 21-05-2019 20:00:17 11.6 C 49 %
1182 21-05-2019 20:12:17 11.5 C 50 %
1183 21-05-2019 20:24:17 11.5 C 50 %
1184 21-05-2019 20:36:17 11.5 C 50 %
1185 21-05-2019 20:48:17 11.4 C 49 %
1186 21-05-2019 21:00:17 11.4 C 49 %
1187 21-05-2019 21:12:17 11.3 C 49 %
1188 21-05-2019 21:24:17 11.4 C 49 %
1189 21-05-2019 21:36:17 11.3 C 50 %
1190 21-05-2019 21:48:18 11.3 C 50 %
1191 21-05-2019 22:00:17 11.3 C 50 %
1192 21-05-2019 22:12:17 11.3 C 50 %
1193 21-05-2019 22:24:17 11.2 C 50 %
1194 21-05-2019 22:36:17 11.2 C 50 %
1195 21-05-2019 22:48:17 11.3 C 50 %
1196 21-05-2019 23:00:18 11.1 C 50 %
1197 21-05-2019 23:12:18 11.3 C 50 %
1198 21-05-2019 23:24:17 11.2 C 50 %
1199 21-05-2019 23:36:17 11.2 C 51 %
1200 21-05-2019 23:48:18 11.1 C 53 %
Sensor: Nr:Datum:Temp:Feuchte:
Aussen-T/F 1201 22-05-2019 00:00:17 11.2 C 53 %
1202 22-05-2019 00:12:17 11.2 C 53 %
1203 22-05-2019 00:24:17 11.2 C 54 %
1204 22-05-2019 00:36:18 11.2 C 55 %
1205 22-05-2019 00:48:17 11.2 C 57 %
1206 22-05-2019 01:00:17 11.2 C 58 %
1207 22-05-2019 01:12:17 11.2 C 58 %
1208 22-05-2019 01:24:17 11.1 C 59 %
1209 22-05-2019 01:36:17 11.2 C 59 %
1210 22-05-2019 01:48:17 11.1 C 59 %
1211 22-05-2019 02:00:17 11 C 55 %
1212 22-05-2019 02:12:17 11 C 52 %
1213 22-05-2019 02:24:17 11 C 52 %
1214 22-05-2019 02:36:17 11 C 52 %
1215 22-05-2019 02:48:17 11.1 C 48 %
1216 22-05-2019 03:00:17 11.1 C 48 %
1217 22-05-2019 03:12:17 11.1 C 48 %
1218 22-05-2019 03:24:18 10.8 C 47 %
1219 22-05-2019 03:36:17 11.1 C 46 %
1220 22-05-2019 03:48:17 11.1 C 45 %
1221 22-05-2019 04:00:17 11.1 C 45 %
1222 22-05-2019 04:12:17 11 C 45 %
1223 22-05-2019 04:25:17 11 C 44 %
1224 22-05-2019 04:36:17 11 C 44 %
1225 22-05-2019 04:48:17 11 C 44 %
Sensor: Nr:Datum:Temp:Feuchte:
Aussen-T/F 1226 22-05-2019 05:00:17 11 C 44 %
1227 22-05-2019 05:12:17 10.9 C 45 %
1228 22-05-2019 05:24:18 10.9 C 45 %
1229 22-05-2019 05:37:17 10.9 C 45 %
1230 22-05-2019 05:48:17 10.9 C 45 %
1231 22-05-2019 06:00:18 10.8 C 43 %
1232 22-05-2019 06:12:18 10.8 C 42 %
1233 22-05-2019 06:25:17 10.7 C 42 %
1234 22-05-2019 06:36:17 10.6 C 42 %
1235 22-05-2019 06:48:17 10.6 C 42 %
1236 22-05-2019 07:00:18 10.5 C 42 %
1237 22-05-2019 07:12:18 10.5 C 43 %
1238 22-05-2019 07:24:17 10.4 C 42 %
1239 22-05-2019 07:36:17 10.2 C 42 %
1240 22-05-2019 07:48:18 10.2 C 41 %
1241 22-05-2019 08:00:17 10.2 C 41 %
1242 22-05-2019 08:12:17 10 C 41 %
1243 22-05-2019 08:24:18 10.1 C 39 %
1244 22-05-2019 08:37:17 10.3 C 37 %
1245 22-05-2019 08:49:17 10.4 C 36 %
1246 22-05-2019 09:00:17 10.4 C 35 %
1247 22-05-2019 09:12:17 10.3 C 34 %
1248 22-05-2019 09:25:17 10.4 C 32 %
1249 22-05-2019 09:37:17 10.4 C 32 %
1250 22-05-2019 09:49:17 10.5 C 31 %
Sensor: Nr:Datum:Temp:Feuchte:
Aussen-T/F 1251 22-05-2019 10:00:18 10.7 C 31 %
1252 22-05-2019 10:12:18 10.8 C 30 %
1253 22-05-2019 10:25:17 10.9 C 29 %
1254 22-05-2019 10:36:17 11 C 27 %
1255 22-05-2019 10:49:17 11.2 C 28 %
1256 22-05-2019 11:01:17 11.4 C 27 %
1257 22-05-2019 11:13:17 11.5 C 27 %
1258 22-05-2019 11:24:17 11.8 C 27 %
1259 22-05-2019 11:37:17 12.5 C 26 %
1260 22-05-2019 11:49:17 12.5 C 24 %
1261 22-05-2019 12:01:17 13.6 C 21 %
1262 22-05-2019 12:12:17 13.7 C 20 %
1263 22-05-2019 12:24:18 14.2 C 20 %
1264 22-05-2019 12:37:17 14.8 C 20 %
1265 22-05-2019 12:49:17 14.1 C 20 %
1266 22-05-2019 13:00:17 13.7 C 20 %
1267 22-05-2019 13:12:17 14.4 C 20 %
1268 22-05-2019 13:25:17 14.4 C 20 %
1269 22-05-2019 13:37:17 14.9 C 20 %
1270 22-05-2019 13:49:17 15.2 C 20 %
1271 22-05-2019 14:00:17 15.6 C 20 %
1272 22-05-2019 14:12:18 15.8 C 20 %
1273 22-05-2019 14:25:17 16.5 C 20 %
1274 22-05-2019 14:37:17 16 C 20 %
1275 22-05-2019 14:49:17 16.6 C 20 %
Sensor: Nr:Datum:Temp:Feuchte:
Aussen-T/F 1276 22-05-2019 15:01:17 17.4 C 20 %
1277 22-05-2019 15:13:17 17.1 C 20 %
1278 22-05-2019 15:25:17 18 C 20 %
1279 22-05-2019 15:37:17 18.5 C 20 %
1280 22-05-2019 15:48:17 18.8 C 20 %
1281 22-05-2019 16:01:17 18.9 C 20 %
1282 22-05-2019 16:13:17 19.7 C 20 %
1283 22-05-2019 16:25:17 18.9 C 20 %
1284 22-05-2019 16:37:17 18.1 C 20 %
1285 22-05-2019 16:49:17 18.5 C 20 %
1286 22-05-2019 17:01:17 18.5 C 20 %
1287 22-05-2019 17:13:17 18.3 C 20 %
1288 22-05-2019 17:25:17 18.2 C 20 %
1289 22-05-2019 17:37:17 19.2 C 20 %
1290 22-05-2019 17:49:17 19.3 C 20 %
1291 22-05-2019 18:01:17 19.4 C 20 %
1292 22-05-2019 18:13:17 19.2 C 20 %
1293 22-05-2019 18:25:17 20.2 C 20 %
1294 22-05-2019 18:36:18 19.6 C 20 %
1295 22-05-2019 18:49:17 19.5 C 20 %
1296 22-05-2019 19:01:17 20.1 C 20 %
1297 22-05-2019 19:13:17 21.3 C 20 %
1298 22-05-2019 19:25:18 19.7 C 20 %
1299 22-05-2019 19:37:17 18.7 C 20 %
1300 22-05-2019 19:49:17 18.7 C 20 %
Sensor: Nr:Datum:Temp:Feuchte:
Aussen-T/F 1301 22-05-2019 20:01:18 17.3 C 20 %
1302 22-05-2019 20:12:18 16.5 C 20 %
1303 22-05-2019 20:25:17 16 C 22 %
1304 22-05-2019 20:37:17 15 C 23 %
1305 22-05-2019 20:49:17 14 C 27 %
1306 22-05-2019 21:01:18 13.2 C 29 %
1307 22-05-2019 21:13:18 12.8 C 30 %
1308 22-05-2019 21:25:17 12.5 C 30 %
1309 22-05-2019 21:37:17 12 C 32 %
1310 22-05-2019 21:49:17 11.7 C 35 %
1311 22-05-2019 22:01:18 11.2 C 36 %
1312 22-05-2019 22:13:18 11 C 38 %
1313 22-05-2019 22:25:17 10.6 C 41 %
1314 22-05-2019 22:37:17 10.5 C 42 %
1315 22-05-2019 22:49:17 10.2 C 43 %
1316 22-05-2019 23:01:18 10.2 C 43 %
1317 22-05-2019 23:13:18 9.8 C 45 %
1318 22-05-2019 23:25:17 9.6 C 45 %
1319 22-05-2019 23:37:17 9.4 C 46 %
1320 22-05-2019 23:49:17 9.3 C 47 %
1321 23-05-2019 00:01:17 9.1 C 47 %
1322 23-05-2019 00:13:17 9 C 47 %
1323 23-05-2019 00:25:18 8.8 C 48 %
1324 23-05-2019 00:37:17 8.8 C 48 %
1325 23-05-2019 00:49:17 8.7 C 48 %
Sensor: Nr:Datum:Temp:Feuchte:
Aussen-T/F 1326 23-05-2019 01:01:17 8.6 C 49 %
1327 23-05-2019 01:13:17 8.6 C 49 %
1328 23-05-2019 01:25:18 8.5 C 49 %
1329 23-05-2019 01:37:17 8.4 C 49 %
1330 23-05-2019 01:49:17 8.3 C 49 %
1331 23-05-2019 02:01:17 8.1 C 49 %
1332 23-05-2019 02:13:17 8 C 49 %
1333 23-05-2019 02:25:17 8 C 50 %
1334 23-05-2019 02:37:17 8.1 C 50 %
1335 23-05-2019 02:49:17 8 C 50 %
1336 23-05-2019 03:01:17 8 C 50 %
1337 23-05-2019 03:13:17 8 C 50 %
1338 23-05-2019 03:25:17 8 C 50 %
1339 23-05-2019 03:37:17 7.9 C 51 %
1340 23-05-2019 03:49:17 7.8 C 51 %
1341 23-05-2019 04:01:17 7.6 C 51 %
1342 23-05-2019 04:13:17 7.4 C 51 %
1343 23-05-2019 04:25:18 7.5 C 51 %
1344 23-05-2019 04:37:17 7.3 C 51 %
1345 23-05-2019 04:49:17 7.3 C 51 %
1346 23-05-2019 05:01:17 7.2 C 51 %
1347 23-05-2019 05:13:17 7.1 C 51 %
1348 23-05-2019 05:25:17 7.2 C 52 %
1349 23-05-2019 05:37:17 7.1 C 52 %
1350 23-05-2019 05:49:17 7 C 52 %
Sensor: Nr:Datum:Temp:Feuchte:
Aussen-T/F 1351 23-05-2019 06:01:17 7.3 C 53 %
1352 23-05-2019 06:13:17 7.3 C 53 %
1353 23-05-2019 06:25:17 7.7 C 54 %
1354 23-05-2019 06:37:17 8 C 53 %
1355 23-05-2019 06:49:17 8 C 54 %
1356 23-05-2019 07:01:17 8.4 C 50 %
1357 23-05-2019 07:13:17 8.6 C 48 %
1358 23-05-2019 07:25:18 8.8 C 47 %
1359 23-05-2019 07:37:17 8.8 C 46 %
1360 23-05-2019 07:49:17 8.9 C 45 %
1361 23-05-2019 08:01:17 9.1 C 45 %
1362 23-05-2019 08:13:17 9.3 C 45 %
1363 23-05-2019 08:25:17 9.8 C 45 %
1364 23-05-2019 08:37:17 10.1 C 42 %
1365 23-05-2019 08:49:17 10.5 C 41 %
1366 23-05-2019 09:01:17 10.7 C 41 %
1367 23-05-2019 09:13:17 11.4 C 40 %
1368 23-05-2019 09:25:17 12 C 36 %
1369 23-05-2019 09:37:17 12.8 C 34 %
1370 23-05-2019 09:49:17 13.2 C 31 %
1371 23-05-2019 10:01:18 13.4 C 31 %
1372 23-05-2019 10:13:18 13.8 C 31 %
1373 23-05-2019 10:25:17 14.2 C 31 %
1374 23-05-2019 10:37:17 15.4 C 30 %
1375 23-05-2019 10:49:18 16.8 C 25 %
Sensor: Nr:Datum:Temp:Feuchte:
Aussen-T/F 1376 23-05-2019 11:01:17 19.3 C 20 %
1377 23-05-2019 11:13:17 19 C 20 %
1378 23-05-2019 11:25:17 21.1 C 20 %
1379 23-05-2019 11:37:17 21.2 C 20 %
1380 23-05-2019 11:49:17 21.2 C 20 %
1381 23-05-2019 12:01:17 19.2 C 20 %
1382 23-05-2019 12:13:17 19.1 C 20 %
1383 23-05-2019 12:25:18 19.3 C 20 %
1384 23-05-2019 12:37:17 19.5 C 20 %
1385 23-05-2019 12:49:17 19.5 C 20 %
1386 23-05-2019 13:01:18 19.2 C 20 %
1387 23-05-2019 13:13:18 19.3 C 20 %
1388 23-05-2019 13:25:17 20 C 20 %
1389 23-05-2019 13:37:17 20.8 C 20 %
1390 23-05-2019 13:49:17 21.6 C 20 %
1391 23-05-2019 14:01:17 21.6 C 20 %
1392 23-05-2019 14:13:17 22.6 C 20 %
1393 23-05-2019 14:25:17 22.6 C 20 %
1394 23-05-2019 14:37:18 22.5 C 20 %
1395 23-05-2019 14:49:17 23 C 20 %
1396 23-05-2019 15:01:17 22.9 C 20 %
1397 23-05-2019 15:13:17 22.8 C 20 %
1398 23-05-2019 15:25:17 22.3 C 20 %
1399 23-05-2019 15:37:18 23.6 C 20 %
1400 23-05-2019 15:49:17 24.7 C 20 %
Sensor: Nr:Datum:Temp:Feuchte:
Aussen-T/F 1401 23-05-2019 16:01:17 24.4 C 20 %
1402 23-05-2019 16:13:17 24.6 C 20 %
1403 23-05-2019 16:25:17 24.8 C 20 %
1404 23-05-2019 16:37:17 25 C 20 %
1405 23-05-2019 16:49:17 24.7 C 20 %
1406 23-05-2019 17:01:17 25.6 C 20 %
1407 23-05-2019 17:13:17 25.6 C 20 %
1408 23-05-2019 17:25:17 25.6 C 20 %
1409 23-05-2019 17:37:17 25.9 C 20 %
1410 23-05-2019 17:49:17 25.9 C 20 %
1411 23-05-2019 18:01:17 25.5 C 20 %
1412 23-05-2019 18:13:17 25.6 C 20 %
1413 23-05-2019 18:25:18 25.6 C 20 %
1414 23-05-2019 18:37:17 25.5 C 20 %
1415 23-05-2019 18:49:17 24.9 C 20 %
1416 23-05-2019 19:01:17 24.4 C 20 %
1417 23-05-2019 19:13:17 24.6 C 20 %
1418 23-05-2019 19:25:17 22.4 C 20 %
1419 23-05-2019 19:37:17 21.6 C 20 %
1420 23-05-2019 19:49:17 20.3 C 20 %
1421 23-05-2019 20:01:18 19.3 C 20 %
1422 23-05-2019 20:13:18 18.2 C 20 %
1423 23-05-2019 20:25:17 17.7 C 20 %
1424 23-05-2019 20:37:17 17 C 20 %
1425 23-05-2019 20:49:17 16.8 C 20 %
Sensor: Nr:Datum:Temp:Feuchte:
Aussen-T/F 1426 23-05-2019 21:01:18 16.3 C 20 %
1427 23-05-2019 21:13:18 16 C 21 %
1428 23-05-2019 21:25:17 15.7 C 23 %
1429 23-05-2019 21:37:18 15.1 C 25 %
1430 23-05-2019 21:49:17 14.7 C 26 %
1431 23-05-2019 22:01:17 14.5 C 28 %
1432 23-05-2019 22:13:17 14.5 C 29 %
1433 23-05-2019 22:25:17 14.4 C 29 %
1434 23-05-2019 22:37:17 13.9 C 31 %
1435 23-05-2019 22:49:17 13.6 C 32 %
1436 23-05-2019 23:01:17 13.4 C 33 %
1437 23-05-2019 23:13:17 13.4 C 33 %
1438 23-05-2019 23:25:17 13 C 32 %
1439 23-05-2019 23:37:17 13 C 32 %
1440 23-05-2019 23:49:17 12.6 C 36 %
1441 24-05-2019 00:01:17 12.2 C 37 %
1442 24-05-2019 00:13:17 12.3 C 38 %
1443 24-05-2019 00:25:17 12.4 C 38 %
1444 24-05-2019 00:37:17 12.2 C 36 %
1445 24-05-2019 00:49:17 12 C 37 %
1446 24-05-2019 01:01:17 12 C 37 %
1447 24-05-2019 01:13:17 11.8 C 39 %
1448 24-05-2019 01:25:17 11.8 C 40 %
1449 24-05-2019 01:37:18 11.9 C 40 %
1450 24-05-2019 01:49:17 11.8 C 39 %
Sensor: Nr:Datum:Temp:Feuchte:
Aussen-T/F 1451 24-05-2019 02:01:17 11.5 C 40 %
1452 24-05-2019 02:13:17 11.3 C 41 %
1453 24-05-2019 02:25:18 11.2 C 41 %
1454 24-05-2019 02:37:17 11.2 C 42 %
1455 24-05-2019 02:49:17 11.2 C 42 %
1456 24-05-2019 03:01:17 11.3 C 42 %
1457 24-05-2019 03:13:17 11.1 C 43 %
1458 24-05-2019 03:25:17 10.9 C 44 %
1459 24-05-2019 03:37:17 10.8 C 44 %
1460 24-05-2019 03:49:17 11 C 45 %
1461 24-05-2019 04:01:17 11.1 C 45 %
1462 24-05-2019 04:13:17 11 C 44 %
1463 24-05-2019 04:25:17 10.9 C 45 %
1464 24-05-2019 04:37:17 10.9 C 45 %
1465 24-05-2019 04:49:17 11.1 C 45 %
1466 24-05-2019 05:01:17 11.1 C 45 %
1467 24-05-2019 05:13:17 11 C 44 %
1468 24-05-2019 05:25:17 10.8 C 45 %
1469 24-05-2019 05:37:18 10.6 C 45 %
1470 24-05-2019 05:49:17 10.5 C 45 %
1471 24-05-2019 06:01:18 10.4 C 45 %
1472 24-05-2019 06:13:18 10.4 C 45 %
1473 24-05-2019 06:25:17 10.8 C 47 %
1474 24-05-2019 06:37:17 11 C 46 %
1475 24-05-2019 06:49:18 11.2 C 45 %
Sensor: Nr:Datum:Temp:Feuchte:
Aussen-T/F 1476 24-05-2019 07:01:17 11.3 C 45 %
1477 24-05-2019 07:13:17 11.7 C 44 %
1478 24-05-2019 07:25:17 12 C 42 %
1479 24-05-2019 07:37:17 12 C 38 %
1480 24-05-2019 07:49:17 12 C 38 %
1481 24-05-2019 08:01:17 12.7 C 35 %
1482 24-05-2019 08:13:17 13.4 C 34 %
1483 24-05-2019 08:25:17 14.1 C 28 %
1484 24-05-2019 08:37:17 14.5 C 26 %
1485 24-05-2019 08:49:17 14.9 C 26 %
1486 24-05-2019 09:01:17 15.2 C 22 %
1487 24-05-2019 09:13:17 15.9 C 22 %
1488 24-05-2019 09:25:17 16.2 C 20 %
1489 24-05-2019 09:37:17 16.8 C 20 %
1490 24-05-2019 09:49:17 16.7 C 20 %
1491 24-05-2019 10:01:17 16.7 C 22 %
1492 24-05-2019 10:13:17 17.1 C 20 %
1493 24-05-2019 10:25:17 17.7 C 20 %
1494 24-05-2019 10:37:17 19.1 C 20 %
1495 24-05-2019 10:49:17 19.5 C 20 %
1496 24-05-2019 11:01:17 20.8 C 20 %
1497 24-05-2019 11:13:17 22 C 20 %
1498 24-05-2019 11:25:17 23.9 C 20 %
1499 24-05-2019 11:37:18 23.6 C 20 %
1500 24-05-2019 11:49:17 22.3 C 20 %
Sensor: Nr:Datum:Temp:Feuchte:
Aussen-T/F 1501 24-05-2019 12:01:17 21.9 C 20 %
1502 24-05-2019 12:13:17 21.7 C 20 %
1503 24-05-2019 12:25:17 21.6 C 20 %
1504 24-05-2019 12:37:17 22.1 C 20 %
1505 24-05-2019 12:49:17 22.5 C 20 %
1506 24-05-2019 13:01:17 22.9 C 20 %
1507 24-05-2019 13:13:17 22.7 C 20 %
1508 24-05-2019 13:25:17 22.7 C 20 %
1509 24-05-2019 13:37:17 23.2 C 20 %
1510 24-05-2019 13:49:17 23.7 C 20 %
1511 24-05-2019 14:01:17 23.9 C 20 %
1512 24-05-2019 14:13:18 24.1 C 20 %
1513 24-05-2019 14:25:17 24.2 C 20 %
1514 24-05-2019 14:37:17 24 C 20 %
1515 24-05-2019 14:49:17 24.3 C 20 %
1516 24-05-2019 15:01:17 24.8 C 20 %
1517 24-05-2019 15:13:17 24.9 C 20 %
1518 24-05-2019 15:25:18 24.1 C 20 %
1519 24-05-2019 15:37:17 24.2 C 20 %
1520 24-05-2019 15:49:17 24.2 C 20 %
1521 24-05-2019 16:01:17 24.1 C 20 %
1522 24-05-2019 16:13:17 25.3 C 20 %
1523 24-05-2019 16:25:17 24.3 C 20 %
1524 24-05-2019 16:37:17 24.3 C 20 %
1525 24-05-2019 16:49:17 24.8 C 20 %
Sensor: Nr:Datum:Temp:Feuchte:
Aussen-T/F 1526 24-05-2019 17:01:17 24.3 C 20 %
1527 24-05-2019 17:13:17 24.7 C 20 %
1528 24-05-2019 17:25:17 24.8 C 20 %
1529 24-05-2019 17:37:17 25.3 C 20 %
1530 24-05-2019 17:49:17 26.6 C 20 %
1531 24-05-2019 18:01:18 26.1 C 20 %
1532 24-05-2019 18:13:18 25 C 20 %
1533 24-05-2019 18:25:17 24.3 C 20 %
1534 24-05-2019 18:37:17 24.2 C 20 %
1535 24-05-2019 18:49:17 23.4 C 20 %
1536 24-05-2019 19:01:17 22.5 C 20 %
1537 24-05-2019 19:13:17 20.9 C 20 %
1538 24-05-2019 19:25:17 19.9 C 20 %
1539 24-05-2019 19:37:17 20.6 C 20 %
1540 24-05-2019 19:49:17 20.8 C 20 %
1541 24-05-2019 20:01:17 20.5 C 20 %
1542 24-05-2019 20:13:17 19.3 C 20 %
1543 24-05-2019 20:25:17 19.5 C 20 %
1544 24-05-2019 20:37:17 18.3 C 20 %
1545 24-05-2019 20:49:17 17.6 C 20 %
1546 24-05-2019 21:01:17 17.2 C 20 %
1547 24-05-2019 21:13:17 17.2 C 20 %
1548 24-05-2019 21:25:17 16.5 C 20 %
1549 24-05-2019 21:37:18 15.9 C 20 %
1550 24-05-2019 21:49:17 15.4 C 23 %
Sensor: Nr:Datum:Temp:Feuchte:
Aussen-T/F 1551 24-05-2019 22:01:17 15 C 25 %
1552 24-05-2019 22:13:17 14.5 C 29 %
1553 24-05-2019 22:25:18 14.2 C 31 %
1554 24-05-2019 22:37:17 14.1 C 30 %
1555 24-05-2019 22:49:17 13.7 C 32 %
1556 24-05-2019 23:01:17 13.5 C 32 %
1557 24-05-2019 23:13:17 13.3 C 35 %
1558 24-05-2019 23:25:17 13.8 C 33 %
1559 24-05-2019 23:37:17 14.1 C 30 %
1560 24-05-2019 23:49:17 14.5 C 27 %
1561 25-05-2019 00:01:18 14.8 C 26 %
1562 25-05-2019 00:13:18 15 C 25 %
1563 25-05-2019 00:25:17 14.8 C 25 %
1564 25-05-2019 00:37:17 14.4 C 25 %
1565 25-05-2019 00:49:17 13.9 C 26 %
1566 25-05-2019 01:01:18 13.5 C 27 %
1567 25-05-2019 01:13:18 13.4 C 27 %
1568 25-05-2019 01:25:17 13.2 C 26 %
1569 25-05-2019 01:37:18 13.2 C 26 %
1570 25-05-2019 01:49:17 13 C 25 %
1571 25-05-2019 02:01:17 12.9 C 26 %
1572 25-05-2019 02:13:17 12.4 C 28 %
1573 25-05-2019 02:25:17 12.5 C 26 %
1574 25-05-2019 02:37:17 12.7 C 20 %
1575 25-05-2019 02:49:17 12.4 C 22 %
Sensor: Nr:Datum:Temp:Feuchte:
Aussen-T/F 1576 25-05-2019 03:01:18 12.3 C 24 %
1577 25-05-2019 03:13:18 12 C 25 %
1578 25-05-2019 03:25:17 11.5 C 27 %
1579 25-05-2019 03:37:17 11.3 C 26 %
1580 25-05-2019 03:49:17 10.8 C 27 %
1581 25-05-2019 04:01:17 10.6 C 25 %
1582 25-05-2019 04:13:18 10.6 C 25 %
1583 25-05-2019 04:25:17 10.4 C 25 %
1584 25-05-2019 04:37:17 10.1 C 26 %
1585 25-05-2019 04:49:18 10 C 26 %
1586 25-05-2019 05:01:18 10 C 25 %
1587 25-05-2019 05:13:18 9.8 C 26 %
1588 25-05-2019 05:25:17 9.6 C 28 %
1589 25-05-2019 05:37:17 9.4 C 30 %
1590 25-05-2019 05:49:17 9.2 C 32 %
1591 25-05-2019 06:01:17 9.1 C 33 %
1592 25-05-2019 06:13:17 8.9 C 35 %
1593 25-05-2019 06:25:17 9 C 35 %
1594 25-05-2019 06:37:18 8.9 C 36 %
1595 25-05-2019 06:49:17 8.9 C 38 %
1596 25-05-2019 07:01:17 9 C 38 %
1597 25-05-2019 07:13:17 10 C 30 %
1598 25-05-2019 07:25:17 11.2 C 20 %
1599 25-05-2019 07:37:18 12.2 C 20 %
1600 25-05-2019 07:49:17 12.7 C 20 %
Sensor: Nr:Datum:Temp:Feuchte:
Aussen-T/F 1601 25-05-2019 08:01:17 12.9 C 20 %
1602 25-05-2019 08:13:17 13.3 C 20 %
1603 25-05-2019 08:25:18 13.5 C 20 %
1604 25-05-2019 08:37:17 13.5 C 20 %
1605 25-05-2019 08:49:17 13.7 C 20 %
1606 25-05-2019 09:01:17 14.1 C 20 %
1607 25-05-2019 09:13:17 14.3 C 20 %
1608 25-05-2019 09:25:17 14.7 C 20 %
1609 25-05-2019 09:37:17 15.6 C 20 %
1610 25-05-2019 09:49:17 15.9 C 20 %
1611 25-05-2019 10:01:17 15.6 C 20 %
1612 25-05-2019 10:13:18 15.3 C 20 %
1613 25-05-2019 10:25:17 16.4 C 20 %
1614 25-05-2019 10:37:17 17.5 C 20 %
1615 25-05-2019 10:49:17 17 C 20 %
1616 25-05-2019 11:01:18 16.6 C 20 %
1617 25-05-2019 11:13:18 17.2 C 20 %
1618 25-05-2019 11:25:17 17.7 C 20 %
1619 25-05-2019 11:37:17 20.5 C 20 %
1620 25-05-2019 11:49:17 18.9 C 20 %
1621 25-05-2019 12:01:17 17.9 C 20 %
1622 25-05-2019 12:13:17 17.3 C 20 %
1623 25-05-2019 12:25:17 17.7 C 20 %
1624 25-05-2019 12:37:18 18.7 C 20 %
1625 25-05-2019 12:49:17 18.7 C 20 %
Sensor: Nr:Datum:Temp:Feuchte:
Aussen-T/F 1626 25-05-2019 13:01:17 19.5 C 20 %
1627 25-05-2019 13:13:17 20.4 C 20 %
1628 25-05-2019 13:25:18 20.5 C 20 %
1629 25-05-2019 13:37:17 19.9 C 20 %
1630 25-05-2019 13:49:17 19.7 C 20 %
1631 25-05-2019 14:01:17 20.2 C 20 %
1632 25-05-2019 14:13:17 20.3 C 20 %
1633 25-05-2019 14:25:17 20.5 C 20 %
1634 25-05-2019 14:37:17 21 C 20 %
1635 25-05-2019 14:49:17 21.7 C 20 %
1636 25-05-2019 15:01:17 21.4 C 20 %
1637 25-05-2019 15:13:17 22.2 C 20 %
1638 25-05-2019 15:25:17 22.5 C 20 %
1639 25-05-2019 15:37:17 22.3 C 20 %
1640 25-05-2019 15:49:17 22 C 20 %
1641 25-05-2019 16:01:17 22 C 20 %
1642 25-05-2019 16:13:18 22.9 C 20 %
1643 25-05-2019 16:25:17 23.4 C 20 %
1644 25-05-2019 16:37:17 23 C 20 %
1645 25-05-2019 16:49:17 22.2 C 20 %
1646 25-05-2019 17:01:17 23.6 C 20 %
1647 25-05-2019 17:13:17 22.5 C 20 %
1648 25-05-2019 17:25:17 22.3 C 20 %
1649 25-05-2019 17:37:17 22.5 C 20 %
1650 25-05-2019 17:49:17 21 C 20 %
Sensor: Nr:Datum:Temp:Feuchte:
Aussen-T/F 1651 25-05-2019 18:01:17 20.8 C 20 %
1652 25-05-2019 18:13:18 20.8 C 20 %
1653 25-05-2019 18:25:17 20.3 C 20 %
1654 25-05-2019 18:37:17 20.4 C 20 %
1655 25-05-2019 18:49:17 20.2 C 20 %
1656 25-05-2019 19:01:17 19.6 C 20 %
1657 25-05-2019 19:13:17 19.4 C 20 %
1658 25-05-2019 19:25:17 19.3 C 20 %
1659 25-05-2019 19:37:17 19.3 C 20 %
1660 25-05-2019 19:49:17 19.3 C 20 %
1661 25-05-2019 20:01:17 19.1 C 20 %
1662 25-05-2019 20:13:17 18.4 C 20 %
1663 25-05-2019 20:25:17 17.9 C 20 %
1664 25-05-2019 20:37:17 18 C 20 %
1665 25-05-2019 20:49:17 17.1 C 20 %
1666 25-05-2019 21:01:18 16.8 C 20 %
1667 25-05-2019 21:13:18 16.1 C 20 %
1668 25-05-2019 21:25:17 15.6 C 20 %
1669 25-05-2019 21:37:18 15.4 C 20 %
1670 25-05-2019 21:49:17 15.2 C 20 %
1671 25-05-2019 22:01:17 14.8 C 21 %
1672 25-05-2019 22:13:17 14.7 C 21 %
1673 25-05-2019 22:25:17 14.6 C 21 %
1674 25-05-2019 22:37:18 14.1 C 22 %
1675 25-05-2019 22:49:17 13.7 C 25 %
Sensor: Nr:Datum:Temp:Feuchte:
Aussen-T/F 1676 25-05-2019 23:01:17 13.4 C 26 %
1677 25-05-2019 23:13:17 13.1 C 28 %
1678 25-05-2019 23:25:18 12.5 C 30 %
1679 25-05-2019 23:37:17 12.3 C 31 %
1680 25-05-2019 23:49:17 12.1 C 31 %
1681 26-05-2019 00:01:17 11.8 C 35 %
1682 26-05-2019 00:13:17 11.4 C 36 %
1683 26-05-2019 00:25:17 11.2 C 37 %
1684 26-05-2019 00:37:17 10.8 C 40 %
1685 26-05-2019 00:49:17 10.7 C 41 %
1686 26-05-2019 01:01:17 10.4 C 41 %
1687 26-05-2019 01:13:17 10.4 C 41 %
1688 26-05-2019 01:25:18 10.2 C 43 %
1689 26-05-2019 01:37:17 10.1 C 43 %
1690 26-05-2019 01:49:17 10 C 44 %
1691 26-05-2019 02:01:17 10 C 44 %
1692 26-05-2019 02:13:17 9.9 C 46 %
1693 26-05-2019 02:25:18 9.8 C 46 %
1694 26-05-2019 02:37:17 9.7 C 46 %
1695 26-05-2019 02:49:17 9.4 C 46 %
1696 26-05-2019 03:01:17 9.4 C 47 %
1697 26-05-2019 03:13:18 9.2 C 47 %
1698 26-05-2019 03:25:17 9 C 47 %
1699 26-05-2019 03:37:17 8.9 C 48 %
1700 26-05-2019 03:49:17 8.8 C 49 %
Sensor: Nr:Datum:Temp:Feuchte:
Aussen-T/F 1701 26-05-2019 04:01:18 8.7 C 49 %
1702 26-05-2019 04:13:18 8.7 C 49 %
1703 26-05-2019 04:25:17 8.6 C 49 %
1704 26-05-2019 04:37:17 8.5 C 49 %
1705 26-05-2019 04:49:17 8.4 C 48 %
1706 26-05-2019 05:01:17 8.4 C 49 %
1707 26-05-2019 05:13:17 8.3 C 49 %
1708 26-05-2019 05:25:17 8.4 C 50 %
1709 26-05-2019 05:37:18 8.5 C 50 %
1710 26-05-2019 05:49:17 8.8 C 51 %
1711 26-05-2019 06:01:17 9.3 C 49 %
1712 26-05-2019 06:13:17 9.5 C 46 %
1713 26-05-2019 06:25:17 9.6 C 43 %
1714 26-05-2019 06:37:17 9.5 C 43 %
1715 26-05-2019 06:49:17 9.5 C 42 %
1716 26-05-2019 07:01:17 9.5 C 43 %
1717 26-05-2019 07:13:17 9.8 C 43 %
1718 26-05-2019 07:25:17 9.9 C 41 %
1719 26-05-2019 07:37:17 10.2 C 40 %
1720 26-05-2019 07:49:17 10.5 C 40 %
1721 26-05-2019 08:01:17 10.7 C 40 %
1722 26-05-2019 08:13:17 10.9 C 40 %
1723 26-05-2019 08:25:17 11.3 C 40 %
1724 26-05-2019 08:37:17 11.4 C 40 %
1725 26-05-2019 08:49:17 12.5 C 37 %
Sensor: Nr:Datum:Temp:Feuchte:
Aussen-T/F 1726 26-05-2019 09:01:17 13.7 C 30 %
1727 26-05-2019 09:13:17 14.5 C 27 %
1728 26-05-2019 09:25:17 14.9 C 26 %
1729 26-05-2019 09:37:18 16.3 C 22 %
1730 26-05-2019 09:49:17 16.6 C 20 %
1731 26-05-2019 10:01:17 17.3 C 20 %
1732 26-05-2019 10:13:17 17.3 C 20 %
1733 26-05-2019 10:25:17 17.3 C 20 %
1734 26-05-2019 10:37:17 18.2 C 20 %
1735 26-05-2019 10:49:18 18.7 C 20 %
1736 26-05-2019 11:01:17 19.3 C 20 %
1737 26-05-2019 11:13:17 21.2 C 20 %
1738 26-05-2019 11:25:17 20.8 C 20 %
1739 26-05-2019 11:37:18 21.8 C 20 %
1740 26-05-2019 11:49:17 22.1 C 20 %
1741 26-05-2019 12:01:17 21.2 C 20 %
1742 26-05-2019 12:13:17 19.6 C 20 %
1743 26-05-2019 12:25:17 19.5 C 20 %
1744 26-05-2019 12:37:17 19.9 C 20 %
1745 26-05-2019 12:49:17 19.7 C 20 %
1746 26-05-2019 13:01:18 20.1 C 20 %
1747 26-05-2019 13:13:18 20.5 C 20 %
1748 26-05-2019 13:25:17 20.9 C 20 %
1749 26-05-2019 13:37:17 20.9 C 20 %
1750 26-05-2019 13:49:17 21.4 C 20 %
Sensor: Nr:Datum:Temp:Feuchte:
Aussen-T/F 1751 26-05-2019 14:01:17 21.8 C 20 %
1752 26-05-2019 14:13:17 21.9 C 20 %
1753 26-05-2019 14:25:17 22.7 C 20 %
1754 26-05-2019 14:37:17 23.1 C 20 %
1755 26-05-2019 14:49:17 24 C 20 %
1756 26-05-2019 15:01:17 24 C 20 %
1757 26-05-2019 15:13:17 24.6 C 20 %
1758 26-05-2019 15:25:17 25.4 C 20 %
1759 26-05-2019 15:37:17 23.9 C 20 %
1760 26-05-2019 15:49:17 23.9 C 20 %
1761 26-05-2019 16:01:17 22.5 C 20 %
1762 26-05-2019 16:13:17 24.6 C 20 %
1763 26-05-2019 16:25:17 25.4 C 20 %
1764 26-05-2019 16:37:18 24.9 C 20 %
1765 26-05-2019 16:49:17 23.3 C 20 %
1766 26-05-2019 17:01:17 22.8 C 20 %
1767 26-05-2019 17:13:17 22.6 C 20 %
1768 26-05-2019 17:25:18 22.6 C 20 %
1769 26-05-2019 17:37:17 22.5 C 20 %
1770 26-05-2019 17:49:17 22.5 C 20 %
1771 26-05-2019 18:01:17 22.4 C 20 %
1772 26-05-2019 18:13:17 22.4 C 20 %
1773 26-05-2019 18:25:17 22 C 20 %
1774 26-05-2019 18:37:17 21.6 C 20 %
1775 26-05-2019 18:49:17 21.4 C 20 %
Sensor: Nr:Datum:Temp:Feuchte:
Aussen-T/F 1776 26-05-2019 19:01:17 21.1 C 20 %
1777 26-05-2019 19:13:17 20.6 C 20 %
1778 26-05-2019 19:25:17 20 C 20 %
1779 26-05-2019 19:37:17 19.5 C 20 %
1780 26-05-2019 19:49:17 19.5 C 20 %
1781 26-05-2019 20:01:17 19.1 C 20 %
1782 26-05-2019 20:13:17 18.8 C 20 %
1783 26-05-2019 20:25:17 18.4 C 20 %
1784 26-05-2019 20:37:17 18.5 C 20 %
1785 26-05-2019 20:49:18 18.4 C 20 %
1786 26-05-2019 21:01:17 18.3 C 20 %
1787 26-05-2019 21:13:17 18.3 C 20 %
1788 26-05-2019 21:25:18 18.1 C 20 %
1789 26-05-2019 21:37:17 18.5 C 20 %
1790 26-05-2019 21:49:17 18.7 C 20 %
1791 26-05-2019 22:01:17 18.7 C 20 %
1792 26-05-2019 22:13:17 18.2 C 20 %
1793 26-05-2019 22:25:17 17.3 C 20 %
1794 26-05-2019 22:37:17 17.1 C 20 %
1795 26-05-2019 22:49:17 17.1 C 20 %
1796 26-05-2019 23:01:17 17.4 C 20 %
1797 26-05-2019 23:13:17 17.2 C 20 %
1798 26-05-2019 23:25:17 17.2 C 20 %
1799 26-05-2019 23:37:17 16.7 C 20 %
1800 26-05-2019 23:49:17 16.3 C 20 %
Sensor: Nr:Datum:Temp:Feuchte:
Aussen-T/F 1801 27-05-2019 00:01:18 16.5 C 20 %
1802 27-05-2019 00:13:18 16.4 C 20 %
1803 27-05-2019 00:25:17 16.4 C 21 %
1804 27-05-2019 00:37:17 16.4 C 21 %
1805 27-05-2019 00:49:17 16.1 C 22 %
1806 27-05-2019 01:01:18 16.1 C 22 %
1807 27-05-2019 01:13:18 15.4 C 26 %
1808 27-05-2019 01:25:17 15.4 C 27 %
1809 27-05-2019 01:37:17 15.2 C 28 %
1810 27-05-2019 01:49:17 14.5 C 30 %
1811 27-05-2019 02:01:17 14.1 C 32 %
1812 27-05-2019 02:13:17 14 C 32 %
1813 27-05-2019 02:25:18 13.8 C 33 %
1814 27-05-2019 02:37:17 14.8 C 28 %
1815 27-05-2019 02:49:17 14.3 C 29 %
1816 27-05-2019 03:01:17 13.9 C 31 %
1817 27-05-2019 03:13:17 13.5 C 33 %
1818 27-05-2019 03:25:17 13.4 C 34 %
1819 27-05-2019 03:37:17 13.2 C 35 %
1820 27-05-2019 03:49:17 13.2 C 36 %
1821 27-05-2019 04:01:18 13.3 C 36 %
1822 27-05-2019 04:13:18 13.3 C 36 %
1823 27-05-2019 04:25:17 13.4 C 36 %
1824 27-05-2019 04:37:17 13.7 C 36 %
1825 27-05-2019 04:49:17 14.2 C 32 %
Sensor: Nr:Datum:Temp:Feuchte:
Aussen-T/F 1826 27-05-2019 05:01:18 14.2 C 32 %
1827 27-05-2019 05:13:18 13.8 C 40 %
1828 27-05-2019 05:25:17 13.6 C 44 %
1829 27-05-2019 05:37:18 13.5 C 45 %
1830 27-05-2019 05:49:17 13.5 C 46 %
1831 27-05-2019 06:01:18 13.5 C 47 %
1832 27-05-2019 06:13:18 13.5 C 47 %
1833 27-05-2019 06:25:17 13.4 C 48 %
1834 27-05-2019 06:37:17 13.5 C 47 %
1835 27-05-2019 06:49:17 13.6 C 47 %
1836 27-05-2019 07:01:17 13.7 C 47 %
1837 27-05-2019 07:13:17 13.8 C 46 %
1838 27-05-2019 07:25:18 14 C 44 %
1839 27-05-2019 07:37:18 14.3 C 41 %
1840 27-05-2019 07:49:17 14.5 C 39 %
1841 27-05-2019 08:01:17 14.4 C 39 %
1842 27-05-2019 08:13:17 14.5 C 40 %
1843 27-05-2019 08:25:17 14.6 C 39 %
1844 27-05-2019 08:37:18 14.7 C 40 %
1845 27-05-2019 08:49:17 14.9 C 41 %
1846 27-05-2019 09:01:17 14.9 C 41 %
1847 27-05-2019 09:13:17 15 C 40 %
1848 27-05-2019 09:25:17 15.3 C 40 %
1849 27-05-2019 09:37:17 15.4 C 39 %
1850 27-05-2019 09:49:17 15.2 C 38 %
Sensor: Nr:Datum:Temp:Feuchte:
Aussen-T/F 1851 27-05-2019 10:01:17 15.5 C 40 %
1852 27-05-2019 10:13:17 15.5 C 40 %
1853 27-05-2019 10:25:17 15.6 C 39 %
1854 27-05-2019 10:37:17 15.6 C 39 %
1855 27-05-2019 10:49:17 15.9 C 38 %
1856 27-05-2019 11:01:18 15.7 C 40 %
1857 27-05-2019 11:13:18 15.5 C 41 %
1858 27-05-2019 11:25:17 14.6 C 40 %
1859 27-05-2019 11:37:17 14.2 C 43 %
1860 27-05-2019 11:49:17 14.5 C 45 %
1861 27-05-2019 12:01:17 14.7 C 45 %
1862 27-05-2019 12:13:17 14.9 C 45 %
1863 27-05-2019 12:25:17 14.4 C 43 %
1864 27-05-2019 12:37:18 14.4 C 45 %
1865 27-05-2019 12:49:17 14.5 C 46 %
1866 27-05-2019 13:01:17 14 C 45 %
1867 27-05-2019 13:13:17 14 C 46 %
1868 27-05-2019 13:25:17 13.8 C 47 %
1869 27-05-2019 13:37:17 14.3 C 46 %
1870 27-05-2019 13:49:17 14.3 C 44 %
1871 27-05-2019 14:01:17 14.3 C 44 %
1872 27-05-2019 14:13:17 14.5 C 45 %
1873 27-05-2019 14:25:17 14 C 42 %
1874 27-05-2019 14:37:17 14.3 C 44 %
1875 27-05-2019 14:49:17 14.3 C 45 %
Sensor: Nr:Datum:Temp:Feuchte:
Aussen-T/F 1876 27-05-2019 15:01:17 14.3 C 45 %
1877 27-05-2019 15:13:17 14.5 C 43 %
1878 27-05-2019 15:25:17 15.1 C 41 %
1879 27-05-2019 15:37:18 15.4 C 39 %
1880 27-05-2019 15:49:17 15.2 C 39 %
1881 27-05-2019 16:01:17 14.9 C 40 %
1882 27-05-2019 16:13:17 15 C 45 %
1883 27-05-2019 16:25:17 14.8 C 46 %
1884 27-05-2019 16:37:17 15.2 C 42 %
1885 27-05-2019 16:49:17 15.8 C 44 %
1886 27-05-2019 17:01:18 15.7 C 41 %
1887 27-05-2019 17:13:18 15.9 C 40 %
1888 27-05-2019 17:25:17 15.9 C 40 %
1889 27-05-2019 17:37:18 16.6 C 36 %
1890 27-05-2019 17:49:17 16.8 C 33 %
1891 27-05-2019 18:01:17 16 C 35 %
1892 27-05-2019 18:13:17 15.9 C 40 %
1893 27-05-2019 18:25:18 16 C 42 %
1894 27-05-2019 18:37:17 16.2 C 43 %
1895 27-05-2019 18:49:17 16.3 C 42 %
1896 27-05-2019 19:01:17 16.3 C 42 %
1897 27-05-2019 19:13:17 16.3 C 42 %
1898 27-05-2019 19:25:18 17 C 36 %
1899 27-05-2019 19:37:17 17 C 36 %
1900 27-05-2019 19:49:17 16.5 C 38 %
Sensor: Nr:Datum:Temp:Feuchte:
Aussen-T/F 1901 27-05-2019 20:01:18 15.7 C 42 %
1902 27-05-2019 20:13:18 15.4 C 44 %
1903 27-05-2019 20:25:17 14.8 C 46 %
1904 27-05-2019 20:37:17 14.5 C 48 %
1905 27-05-2019 20:49:17 14.4 C 49 %
1906 27-05-2019 21:01:18 14.4 C 49 %
1907 27-05-2019 21:13:18 14.2 C 49 %
1908 27-05-2019 21:25:17 14.2 C 49 %
1909 27-05-2019 21:37:17 13.8 C 50 %
1910 27-05-2019 21:49:18 13.8 C 50 %
1911 27-05-2019 22:01:18 13.4 C 50 %
1912 27-05-2019 22:13:18 13.3 C 51 %
1913 27-05-2019 22:25:17 13.3 C 51 %
1914 27-05-2019 22:37:17 13.3 C 51 %
1915 27-05-2019 22:49:17 13.3 C 51 %
1916 27-05-2019 23:01:17 13.3 C 51 %
1917 27-05-2019 23:13:17 13.3 C 51 %
1918 27-05-2019 23:25:17 13.3 C 51 %
1919 27-05-2019 23:37:17 13.3 C 51 %
1920 27-05-2019 23:49:17 13.3 C 51 %
1921 28-05-2019 00:01:17 13.3 C 51 %
1922 28-05-2019 00:13:17 13.3 C 51 %
1923 28-05-2019 00:25:17 13.3 C 51 %
1924 28-05-2019 00:37:17 13.3 C 51 %
1925 28-05-2019 00:49:17 13.3 C 51 %
Sensor: Nr:Datum:Temp:Feuchte:
Aussen-T/F 1926 28-05-2019 01:01:17 13.3 C 51 %
1927 28-05-2019 01:13:17 13.3 C 51 %
1928 28-05-2019 01:25:17 11.9 C 63 %
1929 28-05-2019 01:37:17 11.9 C 63 %
1930 28-05-2019 01:49:17 11.9 C 65 %
1931 28-05-2019 02:01:17 12 C 65 %
1932 28-05-2019 02:13:17 12.1 C 65 %
1933 28-05-2019 02:25:18 12.1 C 65 %
1934 28-05-2019 02:37:17 12.1 C 65 %
1935 28-05-2019 02:49:17 12.2 C 65 %
1936 28-05-2019 03:01:18 12.3 C 65 %
1937 28-05-2019 03:13:18 12.3 C 65 %
1938 28-05-2019 03:25:17 12.3 C 65 %
1939 28-05-2019 03:37:18 12.3 C 65 %
1940 28-05-2019 03:49:17 12.3 C 65 %
1941 28-05-2019 04:01:17 12.3 C 65 %
1942 28-05-2019 04:13:17 12.3 C 65 %
1943 28-05-2019 04:25:17 12.3 C 65 %
1944 28-05-2019 04:37:17 11 C 64 %
1945 28-05-2019 04:49:17 11 C 64 %
1946 28-05-2019 05:01:18 11 C 64 %
1947 28-05-2019 05:13:18 11.4 C 66 %
1948 28-05-2019 05:25:18 11.5 C 66 %
1949 28-05-2019 05:37:17 11.5 C 66 %
1950 28-05-2019 05:49:17 11.5 C 66 %
Sensor: Nr:Datum:Temp:Feuchte:
Aussen-T/F 1951 28-05-2019 06:01:18 11.6 C 66 %
1952 28-05-2019 06:13:18 11.8 C 66 %
1953 28-05-2019 06:25:17 11.8 C 66 %
1954 28-05-2019 06:37:17 11.9 C 65 %
1955 28-05-2019 06:49:17 12 C 65 %
1956 28-05-2019 07:01:17 12 C 65 %
1957 28-05-2019 07:13:17 12.1 C 65 %
1958 28-05-2019 07:25:17 12.1 C 65 %
1959 28-05-2019 07:37:17 12.2 C 63 %
1960 28-05-2019 07:49:17 12.4 C 62 %
1961 28-05-2019 08:01:17 12.4 C 61 %
1962 28-05-2019 08:13:17 12.6 C 58 %
1963 28-05-2019 08:25:17 13.1 C 55 %
1964 28-05-2019 08:37:18 13.1 C 49 %
1965 28-05-2019 08:49:17 13.2 C 46 %
1966 28-05-2019 09:01:17 13.5 C 39 %
1967 28-05-2019 09:13:17 13.7 C 36 %
1968 28-05-2019 09:25:17 14.4 C 33 %
1969 28-05-2019 09:37:17 15.1 C 30 %
1970 28-05-2019 09:49:17 15.3 C 30 %
1971 28-05-2019 10:01:18 15.2 C 29 %
1972 28-05-2019 10:13:18 15.8 C 28 %
1973 28-05-2019 10:25:17 15.6 C 27 %
1974 28-05-2019 10:37:18 16.6 C 26 %
1975 28-05-2019 10:49:17 16 C 26 %
Sensor: Nr:Datum:Temp:Feuchte:
Aussen-T/F 1976 28-05-2019 11:01:17 15.6 C 26 %
1977 28-05-2019 11:13:17 15.9 C 26 %
1978 28-05-2019 11:25:17 17.8 C 23 %
1979 28-05-2019 11:37:18 18.3 C 20 %
1980 28-05-2019 11:49:17 18.3 C 20 %
1981 28-05-2019 12:01:17 17.8 C 20 %
1982 28-05-2019 12:13:17 17.1 C 20 %
1983 28-05-2019 12:25:17 16.6 C 20 %
1984 28-05-2019 12:37:17 16.4 C 20 %
1985 28-05-2019 12:49:17 16.8 C 20 %
1986 28-05-2019 13:01:17 17.9 C 20 %
1987 28-05-2019 13:13:17 17.9 C 20 %
1988 28-05-2019 13:25:17 18.1 C 20 %
1989 28-05-2019 13:37:17 18.6 C 20 %
1990 28-05-2019 13:49:17 19 C 20 %
1991 28-05-2019 14:01:18 19.2 C 20 %
1992 28-05-2019 14:13:18 19.3 C 20 %
1993 28-05-2019 14:25:17 19.5 C 20 %
1994 28-05-2019 14:37:17 12.6 C 26 %
1995 28-05-2019 14:49:17 12.7 C 32 %
1996 28-05-2019 15:01:18 13.2 C 29 %
1997 28-05-2019 15:13:18 13.9 C 28 %
1998 28-05-2019 15:25:17 14 C 27 %
1999 28-05-2019 15:37:18 15.5 C 25 %
2000 28-05-2019 15:49:17 15.9 C 25 %
Sensor: Nr:Datum:Temp:Feuchte:
Aussen-T/F 2001 28-05-2019 16:01:17 15.5 C 23 %
2002 28-05-2019 16:13:17 15.9 C 22 %
2003 28-05-2019 16:25:18 17.4 C 20 %
2004 28-05-2019 16:37:17 17.2 C 20 %
2005 28-05-2019 16:49:17 16.7 C 20 %
2006 28-05-2019 17:01:17 16.3 C 20 %
2007 28-05-2019 17:13:17 16.5 C 20 %
2008 28-05-2019 17:25:17 16.8 C 20 %
2009 28-05-2019 17:37:17 18.2 C 20 %
2010 28-05-2019 17:49:17 19.3 C 20 %
2011 28-05-2019 18:01:18 18.7 C 20 %
2012 28-05-2019 18:13:18 17.4 C 20 %
2013 28-05-2019 18:25:17 16.1 C 20 %
2014 28-05-2019 18:37:18 16.6 C 20 %
2015 28-05-2019 18:49:17 16.2 C 20 %
2016 28-05-2019 19:01:17 17.5 C 20 %
2017 28-05-2019 19:13:17 19.6 C 20 %
2018 28-05-2019 19:25:17 18.1 C 20 %
2019 28-05-2019 19:37:17 16.1 C 20 %
2020 28-05-2019 19:49:17 15 C 20 %
2021 28-05-2019 20:01:17 14.7 C 20 %
2022 28-05-2019 20:13:17 14.4 C 20 %
2023 28-05-2019 20:25:17 14.2 C 20 %
2024 28-05-2019 20:37:18 13.9 C 20 %
2025 28-05-2019 20:49:17 13.8 C 21 %
Sensor: Nr:Datum:Temp:Feuchte:
Aussen-T/F 2026 28-05-2019 21:01:17 13.6 C 23 %
2027 28-05-2019 21:13:17 13.2 C 24 %
2028 28-05-2019 21:25:18 12.8 C 26 %
2029 28-05-2019 21:37:17 12.7 C 31 %
2030 28-05-2019 21:49:17 12.5 C 32 %
2031 28-05-2019 22:01:17 12.3 C 33 %
2032 28-05-2019 22:13:17 12 C 35 %
2033 28-05-2019 22:25:17 11.8 C 36 %
2034 28-05-2019 22:37:17 11.9 C 37 %
2035 28-05-2019 22:49:17 12 C 36 %
2036 28-05-2019 23:01:18 12 C 36 %
2037 28-05-2019 23:13:18 12 C 36 %
2038 28-05-2019 23:25:17 12 C 36 %
2039 28-05-2019 23:37:17 11.5 C 36 %
2040 28-05-2019 23:49:17 11.5 C 35 %
2041 29-05-2019 00:01:17 11.5 C 35 %
2042 29-05-2019 00:13:17 11.7 C 31 %
2043 29-05-2019 00:25:17 11.4 C 32 %
2044 29-05-2019 00:37:18 11.4 C 32 %
2045 29-05-2019 00:49:17 11.4 C 32 %
2046 29-05-2019 01:01:17 11.5 C 34 %
2047 29-05-2019 01:13:17 11.5 C 33 %
2048 29-05-2019 01:25:17 11.6 C 33 %
2049 29-05-2019 01:37:17 11.7 C 34 %
2050 29-05-2019 01:49:17 11.9 C 33 %
Sensor: Nr:Datum:Temp:Feuchte:
Aussen-T/F 2051 29-05-2019 02:01:17 11.8 C 33 %
2052 29-05-2019 02:13:17 11.8 C 33 %
2053 29-05-2019 02:25:17 11.8 C 33 %
2054 29-05-2019 02:37:17 11.8 C 32 %
2055 29-05-2019 02:49:17 11.8 C 32 %
2056 29-05-2019 03:01:17 11.6 C 33 %
2057 29-05-2019 03:13:17 11.4 C 34 %
2058 29-05-2019 03:25:17 11.2 C 35 %
2059 29-05-2019 03:37:17 11.4 C 35 %
2060 29-05-2019 03:49:17 11.2 C 34 %
2061 29-05-2019 04:01:17 11.4 C 33 %
2062 29-05-2019 04:13:17 11.3 C 34 %
2063 29-05-2019 04:25:17 11.2 C 34 %
2064 29-05-2019 04:37:17 11 C 35 %
2065 29-05-2019 04:49:17 11 C 35 %
2066 29-05-2019 05:01:17 11 C 35 %
2067 29-05-2019 05:13:17 11 C 34 %
2068 29-05-2019 05:25:17 11 C 34 %
2069 29-05-2019 05:37:17 10.8 C 35 %
2070 29-05-2019 05:49:17 10.8 C 34 %
2071 29-05-2019 06:01:18 10.8 C 35 %
2072 29-05-2019 06:13:18 10.8 C 35 %
2073 29-05-2019 06:25:17 10.8 C 34 %
2074 29-05-2019 06:37:17 11 C 33 %
2075 29-05-2019 06:49:18 10.9 C 34 %
Sensor: Nr:Datum:Temp:Feuchte:
Aussen-T/F 2076 29-05-2019 07:01:17 10.8 C 33 %
2077 29-05-2019 07:13:17 10.6 C 34 %
2078 29-05-2019 07:25:17 10.5 C 35 %
2079 29-05-2019 07:37:18 10.5 C 35 %
2080 29-05-2019 07:49:17 10.6 C 33 %
2081 29-05-2019 08:01:17 10.8 C 34 %
2082 29-05-2019 08:13:17 10.9 C 32 %
2083 29-05-2019 08:25:17 11.2 C 31 %
2084 29-05-2019 08:37:17 11.2 C 30 %
2085 29-05-2019 08:49:17 11.7 C 27 %
2086 29-05-2019 09:01:18 12.1 C 26 %
2087 29-05-2019 09:13:18 12.7 C 25 %
2088 29-05-2019 09:25:17 13.2 C 20 %
2089 29-05-2019 09:37:18 14.4 C 20 %
2090 29-05-2019 09:49:17 14.3 C 20 %
2091 29-05-2019 10:01:17 14.1 C 20 %
2092 29-05-2019 10:13:17 14.4 C 20 %
2093 29-05-2019 10:25:17 14.8 C 20 %
2094 29-05-2019 10:37:17 15.3 C 20 %
2095 29-05-2019 10:49:17 15.8 C 20 %
2096 29-05-2019 11:01:17 16.7 C 20 %
2097 29-05-2019 11:13:17 17.6 C 20 %
2098 29-05-2019 11:25:17 17.5 C 20 %
2099 29-05-2019 11:37:17 19.3 C 20 %
2100 29-05-2019 11:49:17 19.1 C 20 %
Sensor: Nr:Datum:Temp:Feuchte:
Aussen-T/F 2101 29-05-2019 12:01:18 17.9 C 20 %
2102 29-05-2019 12:13:18 17 C 20 %
2103 29-05-2019 12:25:17 16.8 C 20 %
2104 29-05-2019 12:37:17 17 C 20 %
2105 29-05-2019 12:49:18 16.4 C 20 %
2106 29-05-2019 13:01:17 16.5 C 20 %
2107 29-05-2019 13:13:17 17 C 20 %
2108 29-05-2019 13:25:17 17.5 C 20 %
2109 29-05-2019 13:37:18 17 C 20 %
2110 29-05-2019 13:49:17 17.1 C 20 %
2111 29-05-2019 14:01:17 17.3 C 20 %
2112 29-05-2019 14:13:17 18.3 C 20 %
2113 29-05-2019 14:25:17 18.7 C 20 %
2114 29-05-2019 14:37:18 19.7 C 20 %
2115 29-05-2019 14:49:17 20.4 C 20 %
2116 29-05-2019 15:01:17 20.5 C 20 %
2117 29-05-2019 15:13:17 19.8 C 20 %
2118 29-05-2019 15:25:18 20.1 C 20 %
2119 29-05-2019 15:37:17 20.1 C 20 %
2120 29-05-2019 15:49:17 20.6 C 20 %
2121 29-05-2019 16:01:18 20.8 C 20 %
2122 29-05-2019 16:13:18 20.5 C 20 %
2123 29-05-2019 16:25:17 20.8 C 20 %
2124 29-05-2019 16:37:17 21.5 C 20 %
2125 29-05-2019 16:49:17 22.3 C 20 %
Sensor: Nr:Datum:Temp:Feuchte:
Aussen-T/F 2126 29-05-2019 17:01:17 22.6 C 20 %
2127 29-05-2019 17:13:17 23 C 20 %
2128 29-05-2019 17:25:17 23 C 20 %
2129 29-05-2019 17:37:17 24.3 C 20 %
2130 29-05-2019 17:49:17 23.2 C 20 %
2131 29-05-2019 18:01:17 23.1 C 20 %
2132 29-05-2019 18:13:17 21.7 C 20 %
2133 29-05-2019 18:25:17 22.5 C 20 %
2134 29-05-2019 18:37:17 22.6 C 20 %
2135 29-05-2019 18:49:17 22.6 C 20 %
2136 29-05-2019 19:01:18 23.3 C 20 %
2137 29-05-2019 19:13:18 23.6 C 20 %
2138 29-05-2019 19:25:17 21.8 C 20 %
2139 29-05-2019 19:37:17 21.3 C 20 %
2140 29-05-2019 19:49:17 20.4 C 20 %
2141 29-05-2019 20:01:17 19.1 C 20 %
2142 29-05-2019 20:13:17 18.3 C 20 %
2143 29-05-2019 20:25:17 17.2 C 20 %
2144 29-05-2019 20:37:18 17.4 C 20 %
2145 29-05-2019 20:49:17 16.9 C 20 %
2146 29-05-2019 21:01:17 15.9 C 20 %
2147 29-05-2019 21:13:17 15 C 20 %
2148 29-05-2019 21:25:17 14 C 20 %
2149 29-05-2019 21:37:17 13.4 C 23 %
2150 29-05-2019 21:49:17 13.1 C 25 %
Sensor: Nr:Datum:Temp:Feuchte:
Aussen-T/F 2151 29-05-2019 22:01:17 13.1 C 27 %
2152 29-05-2019 22:13:17 12.9 C 28 %
2153 29-05-2019 22:25:17 12.8 C 28 %
2154 29-05-2019 22:37:17 12.7 C 28 %
2155 29-05-2019 22:49:17 12.8 C 29 %
2156 29-05-2019 23:01:17 12.7 C 29 %
2157 29-05-2019 23:13:17 12.8 C 29 %
2158 29-05-2019 23:25:17 12.8 C 30 %
2159 29-05-2019 23:37:17 12.4 C 30 %
2160 29-05-2019 23:49:17 12.2 C 30 %
2161 30-05-2019 00:01:17 12.2 C 30 %
2162 30-05-2019 00:13:17 12.2 C 30 %
2163 30-05-2019 00:25:17 11.4 C 32 %
2164 30-05-2019 00:37:17 11.4 C 33 %
2165 30-05-2019 00:49:18 11.4 C 33 %
2166 30-05-2019 01:01:17 11.4 C 33 %
2167 30-05-2019 01:13:17 10.9 C 36 %
2168 30-05-2019 01:25:17 10.7 C 37 %
2169 30-05-2019 01:37:17 10.7 C 38 %
2170 30-05-2019 01:49:17 10.7 C 37 %
2171 30-05-2019 02:01:17 10.6 C 37 %
2172 30-05-2019 02:13:17 10.6 C 37 %
2173 30-05-2019 02:25:17 10.4 C 38 %
2174 30-05-2019 02:37:17 10.2 C 39 %
2175 30-05-2019 02:49:17 10.1 C 40 %
Sensor: Nr:Datum:Temp:Feuchte:
Aussen-T/F 2176 30-05-2019 03:01:17 9.7 C 40 %
2177 30-05-2019 03:13:17 9.5 C 42 %
2178 30-05-2019 03:25:17 9.5 C 43 %
2179 30-05-2019 03:37:17 9.2 C 43 %
2180 30-05-2019 03:49:17 9.3 C 45 %
2181 30-05-2019 04:01:18 9.3 C 45 %
2182 30-05-2019 04:13:18 9.3 C 45 %
2183 30-05-2019 04:25:17 9.3 C 45 %
2184 30-05-2019 04:37:17 9.3 C 45 %
2185 30-05-2019 04:49:17 9 C 45 %
2186 30-05-2019 05:01:18 9 C 45 %
2187 30-05-2019 05:13:18 8.7 C 46 %
2188 30-05-2019 05:25:17 8.6 C 46 %
2189 30-05-2019 05:37:17 8.8 C 47 %
2190 30-05-2019 05:49:17 8.8 C 47 %
2191 30-05-2019 06:01:17 8.8 C 47 %
2192 30-05-2019 06:13:17 8.8 C 47 %
2193 30-05-2019 06:25:17 10 C 45 %
2194 30-05-2019 06:37:17 10.1 C 43 %
2195 30-05-2019 06:49:17 10.4 C 40 %
2196 30-05-2019 07:01:17 10.9 C 39 %
2197 30-05-2019 07:13:17 11.3 C 36 %
2198 30-05-2019 07:25:17 11.6 C 35 %
2199 30-05-2019 07:37:17 12 C 34 %
2200 30-05-2019 07:49:17 12.1 C 31 %
Sensor: Nr:Datum:Temp:Feuchte:
Aussen-T/F 2201 30-05-2019 08:01:17 12.3 C 30 %
2202 30-05-2019 08:13:17 12.4 C 30 %
2203 30-05-2019 08:25:17 12.8 C 28 %
2204 30-05-2019 08:37:17 12.7 C 28 %
2205 30-05-2019 08:49:17 13.5 C 27 %
2206 30-05-2019 09:01:18 14.2 C 25 %
2207 30-05-2019 09:13:18 14.7 C 25 %
2208 30-05-2019 09:25:17 15.1 C 24 %
2209 30-05-2019 09:37:17 15.6 C 23 %
2210 30-05-2019 09:49:17 15.9 C 23 %
2211 30-05-2019 10:01:18 16.1 C 22 %
2212 30-05-2019 10:13:18 16.8 C 20 %
2213 30-05-2019 10:25:17 17 C 20 %
2214 30-05-2019 10:37:17 17.6 C 20 %
2215 30-05-2019 10:49:17 18.2 C 20 %
2216 30-05-2019 11:01:18 19.1 C 20 %
2217 30-05-2019 11:13:18 18.9 C 20 %
2218 30-05-2019 11:25:17 19 C 20 %
2219 30-05-2019 11:37:17 19.1 C 20 %
2220 30-05-2019 11:49:18 19 C 20 %
2221 30-05-2019 12:01:17 18.7 C 20 %
2222 30-05-2019 12:13:17 18.7 C 20 %
2223 30-05-2019 12:25:18 18.5 C 20 %
2224 30-05-2019 12:37:17 18.6 C 20 %
2225 30-05-2019 12:49:17 18.8 C 20 %
Sensor: Nr:Datum:Temp:Feuchte:
Aussen-T/F 2226 30-05-2019 13:01:17 18.8 C 20 %
2227 30-05-2019 13:13:17 18.4 C 20 %
2228 30-05-2019 13:25:17 18.2 C 20 %
2229 30-05-2019 13:37:17 18.4 C 20 %
2230 30-05-2019 13:49:17 18.5 C 20 %
2231 30-05-2019 14:01:17 19.2 C 20 %
2232 30-05-2019 14:13:17 20 C 20 %
2233 30-05-2019 14:25:17 20.3 C 20 %
2234 30-05-2019 14:37:17 20.5 C 20 %
2235 30-05-2019 14:49:17 20.7 C 20 %
2236 30-05-2019 15:01:18 20.4 C 20 %
2237 30-05-2019 15:13:18 20.6 C 20 %
2238 30-05-2019 15:25:17 22.2 C 20 %
2239 30-05-2019 15:37:17 22.3 C 20 %
2240 30-05-2019 15:49:17 22.8 C 20 %
2241 30-05-2019 16:01:17 22.4 C 20 %
2242 30-05-2019 16:13:17 23.2 C 20 %
2243 30-05-2019 16:25:17 22.8 C 20 %
2244 30-05-2019 16:37:17 22.4 C 20 %
2245 30-05-2019 16:49:17 22 C 20 %
2246 30-05-2019 17:01:17 22 C 20 %
2247 30-05-2019 17:13:17 22.4 C 20 %
2248 30-05-2019 17:25:17 22.4 C 20 %
2249 30-05-2019 17:37:17 22.9 C 20 %
2250 30-05-2019 17:49:17 22.1 C 20 %
Sensor: Nr:Datum:Temp:Feuchte:
Aussen-T/F 2251 30-05-2019 18:01:17 21.6 C 20 %
2252 30-05-2019 18:13:17 21.2 C 20 %
2253 30-05-2019 18:25:17 21 C 20 %
2254 30-05-2019 18:37:17 22.6 C 20 %
2255 30-05-2019 18:49:17 21.7 C 20 %
2256 30-05-2019 19:01:17 21.7 C 20 %
2257 30-05-2019 19:13:17 20.4 C 20 %
2258 30-05-2019 19:25:17 20.1 C 20 %
2259 30-05-2019 19:37:17 19.7 C 20 %
2260 30-05-2019 19:49:17 19.6 C 20 %
2261 30-05-2019 20:01:18 19.7 C 20 %
2262 30-05-2019 20:13:18 19.4 C 20 %
2263 30-05-2019 20:25:17 18.9 C 23 %
2264 30-05-2019 20:37:17 18.7 C 22 %
2265 30-05-2019 20:49:17 18.4 C 25 %
2266 30-05-2019 21:01:17 18.6 C 25 %
2267 30-05-2019 21:13:17 17.8 C 27 %
2268 30-05-2019 21:25:17 17.3 C 29 %
2269 30-05-2019 21:37:17 17.2 C 29 %
2270 30-05-2019 21:49:17 16.9 C 30 %
2271 30-05-2019 22:01:17 16.6 C 31 %
2272 30-05-2019 22:13:17 16.5 C 32 %
2273 30-05-2019 22:25:18 16.3 C 32 %
2274 30-05-2019 22:37:17 16.2 C 33 %
2275 30-05-2019 22:49:17 16.2 C 35 %
Sensor: Nr:Datum:Temp:Feuchte:
Aussen-T/F 2276 30-05-2019 23:01:17 16 C 35 %
2277 30-05-2019 23:13:17 15.8 C 36 %
2278 30-05-2019 23:25:17 15.4 C 37 %
2279 30-05-2019 23:37:17 15.3 C 38 %
2280 30-05-2019 23:49:17 15.2 C 39 %
2281 31-05-2019 00:01:18 15.4 C 39 %
2282 31-05-2019 00:13:18 15.4 C 39 %
2283 31-05-2019 00:25:17 15.6 C 38 %
2284 31-05-2019 00:37:17 15.6 C 38 %
2285 31-05-2019 00:49:18 15.9 C 38 %
2286 31-05-2019 01:01:17 15.5 C 39 %
2287 31-05-2019 01:13:17 15.5 C 39 %
2288 31-05-2019 01:25:17 15.6 C 38 %
2289 31-05-2019 01:37:18 15.9 C 38 %
2290 31-05-2019 01:49:17 15.8 C 38 %
2291 31-05-2019 02:01:17 15.8 C 38 %
2292 31-05-2019 02:13:17 15.8 C 38 %
2293 31-05-2019 02:25:17 15.2 C 38 %
2294 31-05-2019 02:37:18 14.8 C 41 %
2295 31-05-2019 02:49:17 14.5 C 41 %
2296 31-05-2019 03:01:17 14.1 C 42 %
2297 31-05-2019 03:13:17 13.7 C 44 %
2298 31-05-2019 03:25:17 13.6 C 46 %
2299 31-05-2019 03:37:17 14.1 C 46 %
2300 31-05-2019 03:49:17 14 C 45 %
Sensor: Nr:Datum:Temp:Feuchte:
Aussen-T/F 2301 31-05-2019 04:01:18 13.6 C 45 %
2302 31-05-2019 04:13:18 13.4 C 45 %
2303 31-05-2019 04:25:17 12.8 C 46 %
2304 31-05-2019 04:37:17 12.8 C 48 %
2305 31-05-2019 04:49:17 12.4 C 48 %
2306 31-05-2019 05:01:17 12.3 C 48 %
2307 31-05-2019 05:13:17 12.1 C 48 %
2308 31-05-2019 05:25:17 12.2 C 49 %
2309 31-05-2019 05:37:18 12.2 C 49 %
2310 31-05-2019 05:49:17 12.2 C 49 %
2311 31-05-2019 06:01:17 12.2 C 49 %
2312 31-05-2019 06:13:17 12.3 C 50 %
2313 31-05-2019 06:25:17 12.3 C 50 %
2314 31-05-2019 06:37:18 12.4 C 50 %
2315 31-05-2019 06:49:17 12.5 C 50 %
2316 31-05-2019 07:01:17 12.5 C 50 %
2317 31-05-2019 07:13:17 12.8 C 50 %
2318 31-05-2019 07:25:17 12.8 C 49 %
2319 31-05-2019 07:37:17 12.9 C 49 %
2320 31-05-2019 07:49:17 13.2 C 49 %
2321 31-05-2019 08:01:17 13.4 C 49 %
2322 31-05-2019 08:13:18 13.8 C 49 %
2323 31-05-2019 08:25:17 14.2 C 47 %
2324 31-05-2019 08:37:17 14.9 C 45 %
2325 31-05-2019 08:49:17 15.4 C 37 %
Sensor: Nr:Datum:Temp:Feuchte:
Aussen-T/F 2326 31-05-2019 09:01:17 15.8 C 34 %
2327 31-05-2019 09:13:17 17 C 28 %
2328 31-05-2019 09:25:17 17.5 C 27 %
2329 31-05-2019 09:37:18 18.1 C 26 %
2330 31-05-2019 09:49:17 19.4 C 23 %
2331 31-05-2019 10:01:17 19.4 C 22 %
2332 31-05-2019 10:13:17 19.2 C 21 %
2333 31-05-2019 10:25:17 19.2 C 21 %
2334 31-05-2019 10:37:17 20.6 C 20 %
2335 31-05-2019 10:49:18 20.8 C 20 %
2336 31-05-2019 11:01:17 21.2 C 20 %
2337 31-05-2019 11:13:17 21.2 C 20 %
2338 31-05-2019 11:25:17 22.2 C 20 %
2339 31-05-2019 11:37:17 24.1 C 20 %
2340 31-05-2019 11:49:17 24.3 C 20 %
2341 31-05-2019 12:01:17 23.2 C 20 %
2342 31-05-2019 12:13:17 22.9 C 20 %
2343 31-05-2019 12:25:17 22.3 C 20 %
2344 31-05-2019 12:37:17 22.5 C 20 %
2345 31-05-2019 12:49:17 22.9 C 20 %
2346 31-05-2019 13:01:17 23 C 20 %
2347 31-05-2019 13:13:17 23.4 C 20 %
2348 31-05-2019 13:25:17 23.5 C 20 %
2349 31-05-2019 13:37:17 24.3 C 20 %
2350 31-05-2019 13:49:17 24.8 C 20 %
Sensor: Nr:Datum:Temp:Feuchte:
Aussen-T/F 2351 31-05-2019 14:01:18 24.6 C 20 %
2352 31-05-2019 14:13:18 24.7 C 20 %
2353 31-05-2019 14:25:17 24.7 C 20 %
2354 31-05-2019 14:37:17 25.5 C 20 %
2355 31-05-2019 14:49:17 25.8 C 20 %
2356 31-05-2019 15:01:17 25.8 C 20 %
2357 31-05-2019 15:13:17 25.8 C 20 %
2358 31-05-2019 15:25:18 26.2 C 20 %
2359 31-05-2019 15:37:17 25.8 C 20 %
2360 31-05-2019 15:49:17 27.2 C 20 %
2361 31-05-2019 16:01:17 27.2 C 20 %
2362 31-05-2019 16:13:17 27.2 C 20 %
2363 31-05-2019 16:25:18 27.6 C 20 %
2364 31-05-2019 16:37:17 27.2 C 20 %
2365 31-05-2019 16:49:17 27.6 C 20 %
2366 31-05-2019 17:01:17 28.3 C 20 %
2367 31-05-2019 17:13:17 28 C 20 %
2368 31-05-2019 17:25:17 28.6 C 20 %
2369 31-05-2019 17:37:18 28.7 C 20 %
2370 31-05-2019 17:49:18 28.1 C 20 %
2371 31-05-2019 18:01:17 28.6 C 20 %
2372 31-05-2019 18:13:17 28.1 C 20 %
2373 31-05-2019 18:25:17 28.3 C 20 %
2374 31-05-2019 18:37:18 27.4 C 20 %
2375 31-05-2019 18:49:17 28.1 C 20 %
Sensor: Nr:Datum:Temp:Feuchte:
Aussen-T/F 2376 31-05-2019 19:01:17 27.7 C 20 %
2377 31-05-2019 19:13:17 27.2 C 20 %
2378 31-05-2019 19:25:17 25.3 C 20 %
2379 31-05-2019 19:37:17 24.9 C 20 %
2380 31-05-2019 19:49:17 24.1 C 20 %
2381 31-05-2019 20:01:17 23 C 20 %
2382 31-05-2019 20:13:17 23.6 C 20 %
2383 31-05-2019 20:25:17 23.6 C 20 %
2384 31-05-2019 20:37:17 23 C 20 %
2385 31-05-2019 20:49:18 21.8 C 20 %
2386 31-05-2019 21:01:17 20.4 C 20 %
2387 31-05-2019 21:13:17 19.3 C 21 %
2388 31-05-2019 21:25:17 18.9 C 22 %
2389 31-05-2019 21:37:17 18.3 C 23 %
2390 31-05-2019 21:49:17 17.9 C 25 %
2391 31-05-2019 22:01:17 17.8 C 25 %
2392 31-05-2019 22:13:17 17.6 C 25 %
2393 31-05-2019 22:25:18 17.1 C 26 %
2394 31-05-2019 22:37:17 16.6 C 28 %
2395 31-05-2019 22:49:17 16.3 C 29 %
2396 31-05-2019 23:01:17 16.1 C 30 %
2397 31-05-2019 23:13:17 15.6 C 31 %
2398 31-05-2019 23:25:17 15.3 C 32 %
2399 31-05-2019 23:37:17 15.1 C 34 %
2400 31-05-2019 23:49:17 14.9 C 36 %
Sensor: Nr:Datum:Temp:Feuchte:
Aussen-T/F 2401 01-06-2019 00:01:17 14.7 C 36 %
2402 01-06-2019 00:13:17 14.5 C 37 %
2403 01-06-2019 00:25:17 14.2 C 37 %
2404 01-06-2019 00:37:18 14.1 C 38 %
2405 01-06-2019 00:49:17 13.9 C 40 %
2406 01-06-2019 01:01:17 13.8 C 41 %
2407 01-06-2019 01:13:17 13.7 C 42 %
2408 01-06-2019 01:25:17 13.7 C 43 %
2409 01-06-2019 01:37:17 13.5 C 43 %
2410 01-06-2019 01:49:17 13.4 C 43 %
2411 01-06-2019 02:01:17 13.4 C 43 %
2412 01-06-2019 02:13:17 13.2 C 44 %
2413 01-06-2019 02:25:17 13.2 C 45 %
2414 01-06-2019 02:37:17 13 C 45 %
2415 01-06-2019 02:49:17 12.9 C 46 %
2416 01-06-2019 03:01:18 12.8 C 46 %
2417 01-06-2019 03:13:18 12.7 C 46 %
2418 01-06-2019 03:25:17 12.6 C 46 %
2419 01-06-2019 03:37:17 12.4 C 46 %
2420 01-06-2019 03:49:17 12.2 C 46 %
2421 01-06-2019 04:01:18 12.1 C 47 %
2422 01-06-2019 04:13:18 12 C 47 %
2423 01-06-2019 04:25:17 12 C 47 %
2424 01-06-2019 04:37:17 11.8 C 48 %
2425 01-06-2019 04:49:17 11.6 C 48 %
Sensor: Nr:Datum:Temp:Feuchte:
Aussen-T/F 2426 01-06-2019 05:01:18 11.6 C 48 %
2427 01-06-2019 05:13:18 11.5 C 49 %
2428 01-06-2019 05:25:17 11.5 C 49 %
2429 01-06-2019 05:37:17 11.3 C 48 %
2430 01-06-2019 05:49:17 11.4 C 49 %
2431 01-06-2019 06:01:17 11.8 C 50 %
2432 01-06-2019 06:13:17 11.6 C 48 %
2433 01-06-2019 06:25:17 11.5 C 48 %
2434 01-06-2019 06:37:17 11.6 C 49 %
2435 01-06-2019 06:49:17 11.9 C 49 %
2436 01-06-2019 07:01:17 12.3 C 49 %
2437 01-06-2019 07:13:17 12.5 C 48 %
2438 01-06-2019 07:25:17 12.8 C 47 %
2439 01-06-2019 07:37:17 13.3 C 45 %
2440 01-06-2019 07:49:17 13.4 C 45 %
2441 01-06-2019 08:01:17 13.7 C 43 %
2442 01-06-2019 08:13:18 14 C 39 %
2443 01-06-2019 08:25:17 14.5 C 37 %
2444 01-06-2019 08:37:17 14.8 C 37 %
2445 01-06-2019 08:49:17 15.2 C 34 %
2446 01-06-2019 09:01:17 15.8 C 34 %
2447 01-06-2019 09:13:17 16.3 C 31 %
2448 01-06-2019 09:25:17 17 C 30 %
2449 01-06-2019 09:37:17 17 C 30 %
2450 01-06-2019 09:49:17 18.3 C 27 %
Sensor: Nr:Datum:Temp:Feuchte:
Aussen-T/F 2451 01-06-2019 10:01:18 18.2 C 27 %
2452 01-06-2019 10:13:18 18.8 C 25 %
2453 01-06-2019 10:25:17 19.3 C 25 %
2454 01-06-2019 10:37:17 19.3 C 25 %
2455 01-06-2019 10:49:17 20.8 C 23 %
2456 01-06-2019 11:01:18 22.1 C 20 %
2457 01-06-2019 11:13:18 23.2 C 20 %
2458 01-06-2019 11:25:17 23.1 C 20 %
2459 01-06-2019 11:37:18 24 C 20 %
2460 01-06-2019 11:49:17 26.1 C 20 %
2461 01-06-2019 12:01:17 24.4 C 20 %
2462 01-06-2019 12:13:17 24.5 C 20 %
2463 01-06-2019 12:25:18 24.5 C 20 %
2464 01-06-2019 12:37:17 23.7 C 20 %
2465 01-06-2019 12:49:17 23.7 C 20 %
2466 01-06-2019 13:01:17 24.4 C 20 %
2467 01-06-2019 13:13:17 24.3 C 20 %
2468 01-06-2019 13:25:17 24.7 C 20 %
2469 01-06-2019 13:37:17 24.7 C 20 %
2470 01-06-2019 13:49:17 24.7 C 20 %
2471 01-06-2019 14:01:17 25.9 C 20 %
2472 01-06-2019 14:13:17 26.4 C 20 %
2473 01-06-2019 14:25:17 26.4 C 20 %
2474 01-06-2019 14:37:17 27.5 C 20 %
2475 01-06-2019 14:49:17 28.3 C 20 %
Sensor: Nr:Datum:Temp:Feuchte:
Aussen-T/F 2476 01-06-2019 15:01:17 28.4 C 20 %
2477 01-06-2019 15:13:17 28.4 C 20 %
2478 01-06-2019 15:25:17 29.2 C 20 %
2479 01-06-2019 15:37:17 28.8 C 20 %
2480 01-06-2019 15:49:17 29.2 C 20 %
2481 01-06-2019 16:01:18 29.5 C 20 %
2482 01-06-2019 16:13:18 29.8 C 20 %
2483 01-06-2019 16:25:17 30.3 C 20 %
2484 01-06-2019 16:37:17 30.4 C 20 %
2485 01-06-2019 16:49:17 30.6 C 20 %
2486 01-06-2019 17:01:17 30.8 C 20 %
2487 01-06-2019 17:13:17 30.7 C 20 %
2488 01-06-2019 17:25:17 30.9 C 20 %
2489 01-06-2019 17:37:17 30.7 C 20 %
2490 01-06-2019 17:49:17 31.1 C 20 %
2491 01-06-2019 18:01:17 31.4 C 20 %
2492 01-06-2019 18:13:17 31.1 C 20 %
2493 01-06-2019 18:25:18 31 C 20 %
2494 01-06-2019 18:37:17 30.6 C 20 %
2495 01-06-2019 18:49:17 30.1 C 20 %
2496 01-06-2019 19:01:17 29.6 C 20 %
2497 01-06-2019 19:13:17 30.3 C 20 %
2498 01-06-2019 19:25:18 30.9 C 20 %
2499 01-06-2019 19:37:17 29.4 C 20 %
2500 01-06-2019 19:49:17 27.1 C 20 %
Sensor: Nr:Datum:Temp:Feuchte:
Aussen-T/F 2501 01-06-2019 20:01:17 26.4 C 20 %
2502 01-06-2019 20:13:17 25.7 C 20 %
2503 01-06-2019 20:25:18 24.8 C 20 %
2504 01-06-2019 20:37:17 24.1 C 20 %
2505 01-06-2019 20:49:17 23.2 C 20 %
2506 01-06-2019 21:01:17 22.9 C 20 %
2507 01-06-2019 21:13:17 22.1 C 20 %
2508 01-06-2019 21:25:17 21.5 C 20 %
2509 01-06-2019 21:37:17 20.8 C 20 %
2510 01-06-2019 21:49:17 20.4 C 21 %
2511 01-06-2019 22:01:17 20 C 22 %
2512 01-06-2019 22:13:17 19.6 C 24 %
2513 01-06-2019 22:25:17 19.3 C 25 %
2514 01-06-2019 22:37:17 19.1 C 25 %
2515 01-06-2019 22:49:17 18.8 C 26 %
2516 01-06-2019 23:01:17 18.8 C 26 %
2517 01-06-2019 23:13:17 18.8 C 26 %
2518 01-06-2019 23:25:17 17.9 C 29 %
2519 01-06-2019 23:37:18 17.6 C 30 %
2520 01-06-2019 23:49:17 17.2 C 31 %
2521 02-06-2019 00:01:17 16.8 C 34 %
2522 02-06-2019 00:13:17 16.6 C 34 %
2523 02-06-2019 00:25:17 16.4 C 35 %
2524 02-06-2019 00:37:17 16.2 C 35 %
2525 02-06-2019 00:49:17 15.9 C 37 %
Sensor: Nr:Datum:Temp:Feuchte:
Aussen-T/F 2526 02-06-2019 01:01:17 15.6 C 37 %
2527 02-06-2019 01:13:18 15.4 C 38 %
2528 02-06-2019 01:25:17 15.4 C 38 %
2529 02-06-2019 01:37:17 15 C 40 %
2530 02-06-2019 01:49:17 14.9 C 41 %
2531 02-06-2019 02:01:17 14.9 C 41 %
2532 02-06-2019 02:13:17 14.8 C 41 %
2533 02-06-2019 02:25:17 14.5 C 42 %
2534 02-06-2019 02:37:17 14.4 C 43 %
2535 02-06-2019 02:49:17 14.3 C 44 %
2536 02-06-2019 03:01:17 14.3 C 44 %
2537 02-06-2019 03:13:17 14.1 C 44 %
2538 02-06-2019 03:25:18 14 C 45 %
2539 02-06-2019 03:37:17 13.9 C 45 %
2540 02-06-2019 03:49:17 13.9 C 45 %
2541 02-06-2019 04:01:18 13.6 C 46 %
2542 02-06-2019 04:13:18 13.5 C 46 %
2543 02-06-2019 04:25:17 13.6 C 47 %
2544 02-06-2019 04:37:17 13.6 C 47 %
2545 02-06-2019 04:49:17 13.2 C 46 %
2546 02-06-2019 05:01:18 13.2 C 47 %
2547 02-06-2019 05:13:18 13 C 47 %
2548 02-06-2019 05:25:17 13 C 47 %
2549 02-06-2019 05:37:17 13 C 47 %
2550 02-06-2019 05:49:17 12.9 C 48 %
Sensor: Nr:Datum:Temp:Feuchte:
Aussen-T/F 2551 02-06-2019 06:01:18 13 C 47 %
2552 02-06-2019 06:13:18 13 C 47 %
2553 02-06-2019 06:25:17 13.2 C 48 %
2554 02-06-2019 06:37:17 13.4 C 48 %
2555 02-06-2019 06:49:17 13.6 C 48 %
2556 02-06-2019 07:01:18 13.5 C 47 %
2557 02-06-2019 07:13:18 13.7 C 47 %
2558 02-06-2019 07:25:17 13.8 C 47 %
2559 02-06-2019 07:37:17 13.8 C 47 %
2560 02-06-2019 07:49:17 14.1 C 47 %
2561 02-06-2019 08:01:18 14.4 C 47 %
2562 02-06-2019 08:13:18 14.8 C 46 %
2563 02-06-2019 08:25:17 15.1 C 45 %
2564 02-06-2019 08:37:17 15.5 C 44 %
2565 02-06-2019 08:49:17 15.5 C 44 %
2566 02-06-2019 09:01:17 15.5 C 44 %
2567 02-06-2019 09:13:17 17.2 C 36 %
2568 02-06-2019 09:25:17 17.8 C 35 %
2569 02-06-2019 09:37:17 18.6 C 34 %
2570 02-06-2019 09:49:17 20 C 29 %
2571 02-06-2019 10:01:17 19.7 C 29 %
2572 02-06-2019 10:13:17 19.7 C 29 %
2573 02-06-2019 10:25:17 19.7 C 29 %
2574 02-06-2019 10:37:17 19.7 C 29 %
2575 02-06-2019 10:49:17 23.2 C 23 %
Sensor: Nr:Datum:Temp:Feuchte:
Aussen-T/F 2576 02-06-2019 11:01:17 23.9 C 22 %
2577 02-06-2019 11:13:17 23.9 C 22 %
2578 02-06-2019 11:25:17 23.9 C 22 %
2579 02-06-2019 11:37:18 26.6 C 20 %
2580 02-06-2019 11:49:17 29 C 20 %
2581 02-06-2019 12:01:18 29 C 20 %
2582 02-06-2019 12:13:18 29 C 20 %
2583 02-06-2019 12:25:17 29 C 20 %
2584 02-06-2019 12:37:17 27.8 C 20 %
2585 02-06-2019 12:49:17 27.9 C 20 %
2586 02-06-2019 13:01:17 27.9 C 20 %
2587 02-06-2019 13:13:17 27.8 C 20 %
2588 02-06-2019 13:25:17 27.8 C 20 %
2589 02-06-2019 13:37:18 27.8 C 20 %
2590 02-06-2019 13:49:18 28.7 C 20 %
2591 02-06-2019 14:01:17 29.2 C 20 %
2592 02-06-2019 14:13:17 29.1 C 20 %
2593 02-06-2019 14:25:17 30.6 C 20 %
2594 02-06-2019 14:37:17 30.6 C 20 %
2595 02-06-2019 14:49:17 30.8 C 20 %
2596 02-06-2019 15:01:17 31.4 C 20 %
2597 02-06-2019 15:13:17 31.9 C 20 %
2598 02-06-2019 15:25:17 32.3 C 20 %
2599 02-06-2019 15:37:18 32.3 C 20 %
2600 02-06-2019 15:49:17 32.5 C 20 %
Sensor: Nr:Datum:Temp:Feuchte:
Aussen-T/F 2601 02-06-2019 16:01:17 32.7 C 20 %
2602 02-06-2019 16:13:17 33.1 C 20 %
2603 02-06-2019 16:25:18 33.2 C 20 %
2604 02-06-2019 16:37:17 33 C 20 %
2605 02-06-2019 16:49:17 33.1 C 20 %
2606 02-06-2019 17:01:17 33.1 C 20 %
2607 02-06-2019 17:13:17 33 C 20 %
2608 02-06-2019 17:25:17 33.5 C 20 %
2609 02-06-2019 17:37:17 33 C 20 %
2610 02-06-2019 17:49:17 34 C 20 %
2611 02-06-2019 18:01:17 33.1 C 20 %
2612 02-06-2019 18:13:17 33.6 C 20 %
2613 02-06-2019 18:25:17 33.1 C 20 %
2614 02-06-2019 18:37:17 32.4 C 20 %
2615 02-06-2019 18:49:17 32.5 C 20 %
2616 02-06-2019 19:01:17 32.8 C 20 %
2617 02-06-2019 19:13:17 33.1 C 20 %
2618 02-06-2019 19:25:17 33.4 C 20 %
2619 02-06-2019 19:37:18 30.9 C 20 %
2620 02-06-2019 19:49:17 29.8 C 20 %
2621 02-06-2019 20:01:17 28.2 C 20 %
2622 02-06-2019 20:13:17 27.5 C 20 %
2623 02-06-2019 20:25:17 26.6 C 20 %
2624 02-06-2019 20:37:17 25.9 C 20 %
2625 02-06-2019 20:49:17 25.3 C 20 %
Sensor: Nr:Datum:Temp:Feuchte:
Aussen-T/F 2626 02-06-2019 21:01:17 24.3 C 20 %
2627 02-06-2019 21:13:17 24.2 C 20 %
2628 02-06-2019 21:25:18 23 C 20 %
2629 02-06-2019 21:37:17 22.5 C 20 %
2630 02-06-2019 21:49:17 22.2 C 20 %
2631 02-06-2019 22:01:17 21.4 C 20 %
2632 02-06-2019 22:13:17 20.9 C 20 %
2633 02-06-2019 22:25:17 20.9 C 20 %
2634 02-06-2019 22:37:17 20.4 C 20 %
2635 02-06-2019 22:49:18 20.1 C 20 %
2636 02-06-2019 23:01:17 19.6 C 20 %
2637 02-06-2019 23:13:17 19.3 C 21 %
2638 02-06-2019 23:25:17 18.6 C 23 %
2639 02-06-2019 23:37:18 18.3 C 24 %
2640 02-06-2019 23:49:17 18 C 25 %
2641 03-06-2019 00:01:17 17.9 C 27 %
2642 03-06-2019 00:13:17 17.7 C 26 %
2643 03-06-2019 00:25:18 17.4 C 26 %
2644 03-06-2019 00:37:17 17.3 C 27 %
2645 03-06-2019 00:49:17 17 C 27 %
2646 03-06-2019 01:01:17 16.9 C 29 %
2647 03-06-2019 01:13:17 16.6 C 30 %
2648 03-06-2019 01:25:17 16.4 C 30 %
2649 03-06-2019 01:37:17 16.2 C 31 %
2650 03-06-2019 01:49:17 16.1 C 31 %
Sensor: Nr:Datum:Temp:Feuchte:
Aussen-T/F 2651 03-06-2019 02:01:17 16 C 32 %
2652 03-06-2019 02:13:17 15.9 C 33 %
2653 03-06-2019 02:25:17 15.9 C 33 %
2654 03-06-2019 02:37:17 15.7 C 35 %
2655 03-06-2019 02:49:17 15.7 C 35 %
2656 03-06-2019 03:01:17 15.5 C 35 %
2657 03-06-2019 03:13:18 15.5 C 36 %
2658 03-06-2019 03:25:17 15.4 C 36 %
2659 03-06-2019 03:37:17 15 C 37 %
2660 03-06-2019 03:49:17 14.9 C 38 %
2661 03-06-2019 04:01:17 14.9 C 38 %
2662 03-06-2019 04:13:17 14.7 C 40 %
2663 03-06-2019 04:25:17 14.5 C 40 %
2664 03-06-2019 04:37:17 14.5 C 41 %
2665 03-06-2019 04:49:17 14.4 C 41 %
2666 03-06-2019 05:01:18 14.3 C 41 %
2667 03-06-2019 05:13:18 14.4 C 42 %
2668 03-06-2019 05:25:17 14.8 C 43 %
2669 03-06-2019 05:37:17 14.9 C 43 %
2670 03-06-2019 05:49:17 15.1 C 41 %
2671 03-06-2019 06:01:17 14.9 C 40 %
2672 03-06-2019 06:13:17 14.9 C 41 %
2673 03-06-2019 06:25:17 14.9 C 41 %
2674 03-06-2019 06:37:17 15.6 C 41 %
2675 03-06-2019 06:49:17 15.8 C 40 %
Sensor: Nr:Datum:Temp:Feuchte:
Aussen-T/F 2676 03-06-2019 07:01:18 16.2 C 38 %
2677 03-06-2019 07:13:18 16.5 C 36 %
2678 03-06-2019 07:25:17 16.8 C 35 %
2679 03-06-2019 07:37:17 16.6 C 35 %
2680 03-06-2019 07:49:17 16.6 C 35 %
2681 03-06-2019 08:01:18 16.9 C 35 %
2682 03-06-2019 08:13:18 17.4 C 33 %
2683 03-06-2019 08:25:17 18.1 C 31 %
2684 03-06-2019 08:37:18 19 C 30 %
2685 03-06-2019 08:49:17 20.3 C 25 %
2686 03-06-2019 09:01:18 20.8 C 25 %
2687 03-06-2019 09:13:18 20.5 C 26 %
2688 03-06-2019 09:25:17 20.8 C 26 %
2689 03-06-2019 09:37:17 21.6 C 25 %
2690 03-06-2019 09:49:17 22.1 C 22 %
2691 03-06-2019 10:01:18 20.4 C 31 %
2692 03-06-2019 10:13:18 20.8 C 36 %
2693 03-06-2019 10:25:17 20.5 C 36 %
2694 03-06-2019 10:37:17 20.7 C 36 %
2695 03-06-2019 10:49:18 21.7 C 27 %
2696 03-06-2019 11:01:17 22.9 C 23 %
2697 03-06-2019 11:13:17 23.3 C 23 %
2698 03-06-2019 11:25:17 23.3 C 23 %
2699 03-06-2019 11:37:18 23.3 C 23 %
2700 03-06-2019 11:49:17 27.7 C 20 %
Sensor: Nr:Datum:Temp:Feuchte:
Aussen-T/F 2701 03-06-2019 12:01:17 27.7 C 20 %
2702 03-06-2019 12:13:17 27.7 C 20 %
2703 03-06-2019 12:25:17 27.4 C 20 %
2704 03-06-2019 12:37:17 27.3 C 20 %
2705 03-06-2019 12:49:17 27.8 C 20 %
2706 03-06-2019 13:01:17 28.4 C 20 %
2707 03-06-2019 13:13:17 28.5 C 20 %
2708 03-06-2019 13:25:17 28.5 C 20 %
2709 03-06-2019 13:37:18 28.5 C 20 %
2710 03-06-2019 13:49:17 28.6 C 20 %
2711 03-06-2019 14:01:17 29 C 20 %
2712 03-06-2019 14:13:17 29.2 C 20 %
2713 03-06-2019 14:25:17 29.7 C 20 %
2714 03-06-2019 14:37:17 30.3 C 20 %
2715 03-06-2019 14:49:17 30.4 C 20 %
2716 03-06-2019 15:01:17 30.2 C 20 %
2717 03-06-2019 15:13:17 31 C 20 %
2718 03-06-2019 15:25:18 30.7 C 20 %
2719 03-06-2019 15:37:17 30.3 C 20 %
2720 03-06-2019 15:49:17 30.6 C 20 %
2721 03-06-2019 16:01:18 28.5 C 20 %
2722 03-06-2019 16:13:18 27.8 C 20 %
2723 03-06-2019 16:25:17 27.5 C 20 %
2724 03-06-2019 16:37:17 26.4 C 20 %
2725 03-06-2019 16:49:17 26.3 C 20 %
Sensor: Nr:Datum:Temp:Feuchte:
Aussen-T/F 2726 03-06-2019 17:01:17 26.3 C 20 %
2727 03-06-2019 17:13:17 26.3 C 20 %
2728 03-06-2019 17:25:17 26.3 C 20 %
2729 03-06-2019 17:37:17 26.3 C 20 %
2730 03-06-2019 17:49:17 25.3 C 20 %
2731 03-06-2019 18:01:18 24.9 C 20 %
2732 03-06-2019 18:13:18 24.5 C 20 %
2733 03-06-2019 18:25:17 24.3 C 20 %
2734 03-06-2019 18:37:17 24.3 C 20 %
2735 03-06-2019 18:49:18 23.8 C 20 %
2736 03-06-2019 19:01:17 23.4 C 20 %
2737 03-06-2019 19:13:17 23.3 C 20 %
2738 03-06-2019 19:25:17 22.6 C 20 %
2739 03-06-2019 19:37:17 22.6 C 20 %
2740 03-06-2019 19:49:17 22.9 C 20 %
2741 03-06-2019 20:01:17 23.2 C 20 %
2742 03-06-2019 20:13:17 23 C 20 %
2743 03-06-2019 20:26:17 22.6 C 20 %
2744 03-06-2019 20:37:17 22.6 C 20 %
2745 03-06-2019 20:49:17 22.1 C 20 %
2746 03-06-2019 21:02:17 21.3 C 20 %
2747 03-06-2019 21:13:17 21.3 C 20 %
2748 03-06-2019 21:25:17 20 C 21 %
2749 03-06-2019 21:37:18 20 C 21 %
2750 03-06-2019 21:50:17 19.8 C 22 %
Sensor: Nr:Datum:Temp:Feuchte:
Aussen-T/F 2751 03-06-2019 22:01:17 19.6 C 25 %
2752 03-06-2019 22:13:17 19.3 C 25 %
2753 03-06-2019 22:26:17 19.1 C 25 %
2754 03-06-2019 22:38:17 19 C 25 %
2755 03-06-2019 22:49:17 18.8 C 26 %
2756 03-06-2019 23:01:18 18.3 C 27 %
2757 03-06-2019 23:13:18 18 C 29 %
2758 03-06-2019 23:26:17 17.8 C 30 %
2759 03-06-2019 23:37:17 17.2 C 30 %
2760 03-06-2019 23:49:17 16.9 C 32 %
2761 04-06-2019 00:02:17 16.7 C 34 %
2762 04-06-2019 00:14:17 16.4 C 35 %
2763 04-06-2019 00:25:17 16.4 C 36 %
2764 04-06-2019 00:38:17 16.3 C 36 %
2765 04-06-2019 00:50:17 16.3 C 37 %
2766 04-06-2019 01:01:17 16 C 37 %
2767 04-06-2019 01:13:17 15.8 C 39 %
2768 04-06-2019 01:26:17 15.5 C 40 %
2769 04-06-2019 01:37:17 15.3 C 41 %
2770 04-06-2019 01:50:17 15.1 C 41 %
2771 04-06-2019 02:02:17 15 C 42 %
2772 04-06-2019 02:14:17 15 C 43 %
2773 04-06-2019 02:26:17 14.8 C 44 %
2774 04-06-2019 02:38:17 14.6 C 45 %
2775 04-06-2019 02:50:17 14.5 C 44 %
Sensor: Nr:Datum:Temp:Feuchte:
Aussen-T/F 2776 04-06-2019 03:02:17 14.2 C 44 %
2777 04-06-2019 03:14:17 14.1 C 45 %
2778 04-06-2019 03:26:17 14 C 45 %
2779 04-06-2019 03:38:18 13.8 C 46 %
2780 04-06-2019 03:50:17 13.6 C 46 %
2781 04-06-2019 04:02:17 13.5 C 46 %
2782 04-06-2019 04:14:17 13.4 C 46 %
2783 04-06-2019 04:26:17 13.4 C 46 %
2784 04-06-2019 04:38:17 13.3 C 46 %
2785 04-06-2019 04:50:17 13 C 46 %
2786 04-06-2019 05:02:17 13 C 46 %
2787 04-06-2019 05:14:17 13 C 47 %
2788 04-06-2019 05:26:17 12.8 C 47 %
2789 04-06-2019 05:38:17 12.9 C 48 %
2790 04-06-2019 05:50:17 12.9 C 48 %
2791 04-06-2019 06:02:17 12.9 C 48 %
2792 04-06-2019 06:14:17 13 C 47 %
2793 04-06-2019 06:26:17 13.1 C 47 %
2794 04-06-2019 06:38:17 13.3 C 47 %
2795 04-06-2019 06:50:17 13.8 C 48 %
2796 04-06-2019 07:02:17 14.5 C 44 %
2797 04-06-2019 07:14:17 14.9 C 40 %
2798 04-06-2019 07:26:18 15.3 C 35 %
2799 04-06-2019 07:38:17 15.8 C 33 %
2800 04-06-2019 07:50:17 16.2 C 32 %
Sensor: Nr:Datum:Temp:Feuchte:
Aussen-T/F 2801 04-06-2019 08:02:18 16.3 C 31 %
2802 04-06-2019 08:14:18 16.5 C 31 %
2803 04-06-2019 08:26:17 17.2 C 30 %
2804 04-06-2019 08:38:17 17.7 C 30 %
2805 04-06-2019 08:50:17 17.6 C 30 %
2806 04-06-2019 09:02:17 17.7 C 30 %
2807 04-06-2019 09:14:17 18.1 C 29 %
2808 04-06-2019 09:26:18 19 C 27 %
2809 04-06-2019 09:38:17 19.2 C 25 %
2810 04-06-2019 09:50:17 20 C 25 %
2811 04-06-2019 10:02:17 20.2 C 23 %
2812 04-06-2019 10:14:17 20.5 C 22 %
2813 04-06-2019 10:26:18 21.2 C 20 %
2814 04-06-2019 10:38:17 21.4 C 20 %
2815 04-06-2019 10:50:17 22.3 C 20 %
2816 04-06-2019 11:02:17 22.9 C 20 %
2817 04-06-2019 11:14:17 23.3 C 20 %
2818 04-06-2019 11:26:17 23.6 C 20 %
2819 04-06-2019 11:38:17 25.1 C 20 %
2820 04-06-2019 11:50:17 26.3 C 20 %
2821 04-06-2019 12:02:17 24.9 C 20 %
2822 04-06-2019 12:14:17 24.8 C 20 %
2823 04-06-2019 12:26:17 25.2 C 20 %
2824 04-06-2019 12:38:17 25.5 C 20 %
2825 04-06-2019 12:50:17 25.4 C 20 %
Sensor: Nr:Datum:Temp:Feuchte:
Aussen-T/F 2826 04-06-2019 13:02:17 26.1 C 20 %
2827 04-06-2019 13:14:18 26.3 C 20 %
2828 04-06-2019 13:26:17 26.8 C 20 %
2829 04-06-2019 13:38:17 26.8 C 20 %
2830 04-06-2019 13:50:17 27.6 C 20 %
2831 04-06-2019 14:02:18 27.7 C 20 %
2832 04-06-2019 14:14:18 28.4 C 20 %
2833 04-06-2019 14:26:17 29 C 20 %
2834 04-06-2019 14:38:17 29.4 C 20 %
2835 04-06-2019 14:50:17 29.5 C 20 %
2836 04-06-2019 15:02:17 29.5 C 20 %
2837 04-06-2019 15:14:17 29.4 C 20 %
2838 04-06-2019 15:26:17 30 C 20 %
2839 04-06-2019 15:38:17 30.2 C 20 %
2840 04-06-2019 15:50:17 29.6 C 20 %
2841 04-06-2019 16:02:17 30.2 C 20 %
2842 04-06-2019 16:14:17 30.7 C 20 %
2843 04-06-2019 16:26:17 30.9 C 20 %
2844 04-06-2019 16:38:17 31.5 C 20 %
2845 04-06-2019 16:50:17 31.6 C 20 %
2846 04-06-2019 17:02:17 32.2 C 20 %
2847 04-06-2019 17:14:17 32.1 C 20 %
2848 04-06-2019 17:26:17 32.6 C 20 %
2849 04-06-2019 17:38:17 32.2 C 20 %
2850 04-06-2019 17:50:17 32.8 C 20 %
Sensor: Nr:Datum:Temp:Feuchte:
Aussen-T/F 2851 04-06-2019 18:02:17 32.1 C 20 %
2852 04-06-2019 18:14:17 31.7 C 20 %
2853 04-06-2019 18:26:17 31 C 20 %
2854 04-06-2019 18:38:18 30.5 C 20 %
2855 04-06-2019 18:50:17 29.3 C 20 %
2856 04-06-2019 19:02:17 30.4 C 20 %
2857 04-06-2019 19:14:17 30.1 C 20 %
2858 04-06-2019 19:26:17 29.5 C 20 %
2859 04-06-2019 19:38:17 27.9 C 20 %
2860 04-06-2019 19:50:17 27.8 C 20 %
2861 04-06-2019 20:02:17 27.8 C 20 %
2862 04-06-2019 20:14:17 26.7 C 20 %
2863 04-06-2019 20:26:17 26.1 C 20 %
2864 04-06-2019 20:38:17 25 C 20 %
2865 04-06-2019 20:50:17 24.1 C 20 %
2866 04-06-2019 21:02:17 23.5 C 20 %
2867 04-06-2019 21:14:17 23.2 C 20 %
2868 04-06-2019 21:26:17 22.7 C 20 %
2869 04-06-2019 21:38:17 22.4 C 20 %
2870 04-06-2019 21:50:17 22.1 C 20 %
2871 04-06-2019 22:02:18 21.9 C 20 %
2872 04-06-2019 22:14:18 21.8 C 20 %
2873 04-06-2019 22:26:17 21.6 C 20 %
2874 04-06-2019 22:38:17 21.6 C 20 %
2875 04-06-2019 22:50:17 21.5 C 20 %
Sensor: Nr:Datum:Temp:Feuchte:
Aussen-T/F 2876 04-06-2019 23:02:17 21.5 C 20 %
2877 04-06-2019 23:14:17 22.4 C 20 %
2878 04-06-2019 23:26:18 22.8 C 20 %
2879 04-06-2019 23:38:17 22.5 C 20 %
2880 04-06-2019 23:50:17 22.5 C 20 %
2881 05-06-2019 00:02:18 23 C 20 %
2882 05-06-2019 00:14:18 24.1 C 20 %
2883 05-06-2019 00:26:17 23.3 C 20 %
2884 05-06-2019 00:38:18 22.5 C 20 %
2885 05-06-2019 00:50:17 21.3 C 20 %
2886 05-06-2019 01:02:17 21.5 C 20 %
2887 05-06-2019 01:14:17 20.7 C 20 %
2888 05-06-2019 01:26:17 21.2 C 20 %
2889 05-06-2019 01:38:17 21 C 20 %
2890 05-06-2019 01:50:17 20.7 C 20 %
2891 05-06-2019 02:02:17 20.7 C 20 %
2892 05-06-2019 02:14:17 20 C 22 %
2893 05-06-2019 02:26:17 20.1 C 21 %
2894 05-06-2019 02:38:17 20.2 C 21 %
2895 05-06-2019 02:50:17 19.7 C 22 %
2896 05-06-2019 03:02:18 19.7 C 22 %
2897 05-06-2019 03:14:18 18.7 C 25 %
2898 05-06-2019 03:26:17 18.8 C 26 %
2899 05-06-2019 03:38:18 19.2 C 24 %
2900 05-06-2019 03:50:17 19.3 C 25 %
Sensor: Nr:Datum:Temp:Feuchte:
Aussen-T/F 2901 05-06-2019 04:02:17 19.3 C 25 %
2902 05-06-2019 04:14:17 19.1 C 26 %
2903 05-06-2019 04:26:17 18.3 C 27 %
2904 05-06-2019 04:38:17 17.9 C 30 %
2905 05-06-2019 04:50:17 17.8 C 30 %
2906 05-06-2019 05:02:17 17.2 C 30 %
2907 05-06-2019 05:14:17 17.2 C 30 %
2908 05-06-2019 05:26:17 17.1 C 31 %
2909 05-06-2019 05:38:17 16.9 C 32 %
2910 05-06-2019 05:50:17 17.2 C 31 %
2911 05-06-2019 06:02:18 17.8 C 30 %
2912 05-06-2019 06:14:18 18 C 29 %
2913 05-06-2019 06:26:17 17.8 C 30 %
2914 05-06-2019 06:38:18 17.8 C 31 %
2915 05-06-2019 06:50:17 18.1 C 30 %
2916 05-06-2019 07:02:17 18.2 C 30 %
2917 05-06-2019 07:14:17 17.8 C 32 %
2918 05-06-2019 07:26:18 17.8 C 33 %
2919 05-06-2019 07:38:17 17.9 C 33 %
2920 05-06-2019 07:50:17 17.8 C 34 %
2921 05-06-2019 08:02:17 17.9 C 35 %
2922 05-06-2019 08:14:17 18.3 C 35 %
2923 05-06-2019 08:26:17 18.7 C 33 %
2924 05-06-2019 08:38:17 19 C 31 %
2925 05-06-2019 08:50:18 19.6 C 30 %
Sensor: Nr:Datum:Temp:Feuchte:
Aussen-T/F 2926 05-06-2019 09:02:17 20 C 28 %
2927 05-06-2019 09:14:17 21.6 C 21 %
2928 05-06-2019 09:26:17 22.7 C 20 %
2929 05-06-2019 09:38:18 23.9 C 20 %
2930 05-06-2019 09:50:17 22.9 C 20 %
2931 05-06-2019 10:02:17 22.6 C 20 %
2932 05-06-2019 10:14:17 23.2 C 20 %
2933 05-06-2019 10:26:18 23.4 C 20 %
2934 05-06-2019 10:38:17 24.3 C 20 %
2935 05-06-2019 10:50:17 24.6 C 20 %
2936 05-06-2019 11:02:17 25 C 20 %
2937 05-06-2019 11:14:17 25.6 C 20 %
2938 05-06-2019 11:26:17 25.7 C 20 %
2939 05-06-2019 11:38:17 26.9 C 20 %
2940 05-06-2019 11:50:17 28 C 20 %
2941 05-06-2019 12:02:17 26.8 C 20 %
2942 05-06-2019 12:14:17 26 C 20 %
2943 05-06-2019 12:26:17 25.9 C 20 %
2944 05-06-2019 12:38:17 25.1 C 20 %
2945 05-06-2019 12:50:17 25.5 C 20 %
2946 05-06-2019 13:02:17 26.2 C 20 %
2947 05-06-2019 13:14:17 26.6 C 20 %
2948 05-06-2019 13:26:17 26.7 C 20 %
2949 05-06-2019 13:38:17 26.8 C 20 %
2950 05-06-2019 13:50:17 27.2 C 20 %
Sensor: Nr:Datum:Temp:Feuchte:
Aussen-T/F 2951 05-06-2019 14:02:17 27.8 C 20 %
2952 05-06-2019 14:14:17 28.4 C 20 %
2953 05-06-2019 14:26:17 28.9 C 20 %
2954 05-06-2019 14:38:17 29.4 C 20 %
2955 05-06-2019 14:50:17 29.9 C 20 %
2956 05-06-2019 15:02:17 30.4 C 20 %
2957 05-06-2019 15:14:17 30.7 C 20 %
2958 05-06-2019 15:26:17 30.5 C 20 %
2959 05-06-2019 15:38:17 30.6 C 20 %
2960 05-06-2019 15:50:17 30.6 C 20 %
2961 05-06-2019 16:02:18 30.6 C 20 %
2962 05-06-2019 16:14:18 30.6 C 20 %
2963 05-06-2019 16:26:17 30.6 C 20 %
2964 05-06-2019 16:38:17 30.6 C 20 %
2965 05-06-2019 16:50:17 30.6 C 20 %
2966 05-06-2019 17:02:17 30 C 20 %
2967 05-06-2019 17:14:17 29.7 C 20 %
2968 05-06-2019 17:26:17 30.5 C 20 %
2969 05-06-2019 17:38:17 31.5 C 20 %
2970 05-06-2019 17:50:17 31.5 C 20 %
2971 05-06-2019 18:02:17 30.1 C 20 %
2972 05-06-2019 18:14:17 27.2 C 20 %
2973 05-06-2019 18:26:18 26 C 20 %
2974 05-06-2019 18:38:17 27.2 C 20 %
2975 05-06-2019 18:50:17 28.5 C 20 %
Sensor: Nr:Datum:Temp:Feuchte:
Aussen-T/F 2976 05-06-2019 19:02:17 30.2 C 20 %
2977 05-06-2019 19:14:17 29.8 C 20 %
2978 05-06-2019 19:26:17 29.8 C 20 %
2979 05-06-2019 19:38:17 27.3 C 20 %
2980 05-06-2019 19:50:17 26.5 C 20 %
2981 05-06-2019 20:02:17 26.8 C 20 %
2982 05-06-2019 20:14:17 26.3 C 20 %
2983 05-06-2019 20:26:17 25.8 C 20 %
2984 05-06-2019 20:38:17 25.4 C 20 %
2985 05-06-2019 20:50:17 24.6 C 20 %
2986 05-06-2019 21:02:17 24.1 C 20 %
2987 05-06-2019 21:14:17 23.1 C 20 %
2988 05-06-2019 21:26:17 22.8 C 20 %
2989 05-06-2019 21:38:18 22.2 C 20 %
2990 05-06-2019 21:50:18 22.1 C 21 %
2991 05-06-2019 22:02:17 22 C 21 %
2992 05-06-2019 22:14:17 21.8 C 21 %
2993 05-06-2019 22:26:17 21.5 C 21 %
2994 05-06-2019 22:38:17 21.1 C 22 %
2995 05-06-2019 22:50:17 20.8 C 24 %
2996 05-06-2019 23:02:17 20.8 C 23 %
2997 05-06-2019 23:14:17 20.7 C 23 %
2998 05-06-2019 23:26:17 20.8 C 24 %
2999 05-06-2019 23:38:18 20.7 C 24 %
3000 05-06-2019 23:50:17 20.7 C 25 %
Sensor: Nr:Datum:Temp:Feuchte:
Aussen-T/F 3001 06-06-2019 00:02:17 20.7 C 25 %
3002 06-06-2019 00:14:17 22 C 20 %
3003 06-06-2019 00:26:17 23 C 20 %
3004 06-06-2019 00:38:17 22.6 C 20 %
3005 06-06-2019 00:50:17 21.8 C 20 %
3006 06-06-2019 01:02:17 21.2 C 20 %
3007 06-06-2019 01:14:17 18.1 C 31 %
3008 06-06-2019 01:26:17 17.3 C 39 %
3009 06-06-2019 01:38:17 17 C 40 %
3010 06-06-2019 01:50:17 16.7 C 43 %
3011 06-06-2019 02:02:17 16.8 C 44 %
3012 06-06-2019 02:14:17 16.9 C 47 %
3013 06-06-2019 02:26:17 16.7 C 47 %
3014 06-06-2019 02:38:18 16.8 C 47 %
3015 06-06-2019 02:50:17 16.8 C 47 %
3016 06-06-2019 03:02:17 16.5 C 46 %
3017 06-06-2019 03:14:17 16.6 C 47 %
3018 06-06-2019 03:26:17 16.4 C 47 %
3019 06-06-2019 03:38:17 16.5 C 48 %
3020 06-06-2019 03:50:17 16.4 C 47 %
3021 06-06-2019 04:02:17 16.4 C 47 %
3022 06-06-2019 04:14:17 16.4 C 47 %
3023 06-06-2019 04:26:18 16.4 C 48 %
3024 06-06-2019 04:38:17 16.4 C 49 %
3025 06-06-2019 04:50:17 16.4 C 50 %
Sensor: Nr:Datum:Temp:Feuchte:
Aussen-T/F 3026 06-06-2019 05:02:17 16.3 C 49 %
3027 06-06-2019 05:14:17 15.9 C 45 %
3028 06-06-2019 05:26:17 15.9 C 45 %
3029 06-06-2019 05:38:17 15 C 37 %
3030 06-06-2019 05:50:17 14.8 C 38 %
3031 06-06-2019 06:02:18 14.6 C 38 %
3032 06-06-2019 06:14:18 14.6 C 38 %
3033 06-06-2019 06:26:17 14.3 C 37 %
3034 06-06-2019 06:38:17 13.6 C 34 %
3035 06-06-2019 06:50:17 13.5 C 35 %
3036 06-06-2019 07:02:17 13.5 C 32 %
3037 06-06-2019 07:14:17 13.3 C 33 %
3038 06-06-2019 07:26:17 13.2 C 32 %
3039 06-06-2019 07:38:17 13.7 C 31 %
3040 06-06-2019 07:50:17 13.8 C 30 %
3041 06-06-2019 08:02:17 13.9 C 30 %
3042 06-06-2019 08:14:17 13.8 C 30 %
3043 06-06-2019 08:26:17 13.7 C 27 %
3044 06-06-2019 08:38:17 13.4 C 27 %
3045 06-06-2019 08:50:17 13.5 C 27 %
3046 06-06-2019 09:02:17 13.5 C 27 %
3047 06-06-2019 09:14:17 13.2 C 25 %
3048 06-06-2019 09:26:17 13.5 C 25 %
3049 06-06-2019 09:38:17 13.5 C 25 %
3050 06-06-2019 09:50:17 14.2 C 25 %
Sensor: Nr:Datum:Temp:Feuchte:
Aussen-T/F 3051 06-06-2019 10:02:17 14.2 C 25 %
3052 06-06-2019 10:14:17 13.9 C 23 %
3053 06-06-2019 10:26:17 13.9 C 24 %
3054 06-06-2019 10:38:17 14.5 C 23 %
3055 06-06-2019 10:50:17 15.2 C 20 %
3056 06-06-2019 11:02:18 15.4 C 20 %
3057 06-06-2019 11:14:18 16 C 20 %
3058 06-06-2019 11:26:17 15.4 C 20 %
3059 06-06-2019 11:38:18 15.4 C 20 %
3060 06-06-2019 11:50:17 15.4 C 20 %
3061 06-06-2019 12:02:17 15.3 C 20 %
3062 06-06-2019 12:14:17 15.6 C 20 %
3063 06-06-2019 12:26:17 15.6 C 20 %
3064 06-06-2019 12:38:17 16.5 C 20 %
3065 06-06-2019 12:50:18 16.7 C 20 %
3066 06-06-2019 13:02:17 17.6 C 20 %
3067 06-06-2019 13:14:17 18 C 20 %
3068 06-06-2019 13:26:17 17.4 C 20 %
3069 06-06-2019 13:38:17 17.2 C 20 %
3070 06-06-2019 13:50:17 17.5 C 20 %
3071 06-06-2019 14:02:17 18.1 C 20 %
3072 06-06-2019 14:14:17 17.9 C 20 %
3073 06-06-2019 14:26:17 17.9 C 20 %
3074 06-06-2019 14:38:18 18.1 C 20 %
3075 06-06-2019 14:50:17 18.2 C 20 %
Sensor: Nr:Datum:Temp:Feuchte:
Aussen-T/F 3076 06-06-2019 15:02:17 18.2 C 20 %
3077 06-06-2019 15:14:17 18.5 C 20 %
3078 06-06-2019 15:26:17 19.4 C 20 %
3079 06-06-2019 15:38:17 18.9 C 20 %
3080 06-06-2019 15:50:17 18.7 C 20 %
3081 06-06-2019 16:02:17 19.1 C 20 %
3082 06-06-2019 16:14:17 18.8 C 20 %
3083 06-06-2019 16:26:17 18.7 C 20 %
3084 06-06-2019 16:38:17 19.1 C 20 %
3085 06-06-2019 16:50:17 18.5 C 20 %
3086 06-06-2019 17:02:17 17.9 C 20 %
3087 06-06-2019 17:14:17 17.2 C 20 %
3088 06-06-2019 17:26:17 17.2 C 20 %
3089 06-06-2019 17:38:17 17 C 20 %
3090 06-06-2019 17:50:17 16.8 C 20 %
3091 06-06-2019 18:02:18 16.6 C 20 %
3092 06-06-2019 18:14:18 16.5 C 20 %
3093 06-06-2019 18:26:17 17.2 C 20 %
3094 06-06-2019 18:38:17 18.6 C 20 %
3095 06-06-2019 18:50:17 19.7 C 20 %
3096 06-06-2019 19:02:17 19.5 C 20 %
3097 06-06-2019 19:14:17 19.1 C 20 %
3098 06-06-2019 19:26:17 18.6 C 20 %
3099 06-06-2019 19:38:17 17.9 C 20 %
3100 06-06-2019 19:50:17 17.8 C 20 %
Sensor: Nr:Datum:Temp:Feuchte:
Aussen-T/F 3101 06-06-2019 20:02:17 17.6 C 20 %
3102 06-06-2019 20:14:17 17.3 C 20 %
3103 06-06-2019 20:26:17 17.1 C 20 %
3104 06-06-2019 20:38:17 16.9 C 20 %
3105 06-06-2019 20:50:17 16.4 C 20 %
3106 06-06-2019 21:02:17 15.5 C 20 %
3107 06-06-2019 21:14:17 14.7 C 25 %
3108 06-06-2019 21:26:17 14.1 C 26 %
3109 06-06-2019 21:38:17 13.7 C 27 %
3110 06-06-2019 21:50:17 13.3 C 29 %
3111 06-06-2019 22:02:17 12.9 C 31 %
3112 06-06-2019 22:14:17 12.6 C 31 %
3113 06-06-2019 22:26:18 12.1 C 34 %
3114 06-06-2019 22:38:17 11.9 C 35 %
3115 06-06-2019 22:50:17 11.8 C 36 %
3116 06-06-2019 23:02:18 11.5 C 36 %
3117 06-06-2019 23:14:18 11.5 C 37 %
3118 06-06-2019 23:26:17 11 C 37 %
3119 06-06-2019 23:38:17 11.1 C 38 %
3120 06-06-2019 23:50:17 10.6 C 39 %
3121 07-06-2019 00:02:17 10.3 C 41 %
3122 07-06-2019 00:14:17 10.2 C 42 %
3123 07-06-2019 00:26:17 10.2 C 43 %
3124 07-06-2019 00:38:17 10 C 43 %
3125 07-06-2019 00:50:17 10 C 43 %
Sensor: Nr:Datum:Temp:Feuchte:
Aussen-T/F 3126 07-06-2019 01:02:17 9.8 C 44 %
3127 07-06-2019 01:14:17 9.7 C 45 %
3128 07-06-2019 01:26:17 9.7 C 46 %
3129 07-06-2019 01:38:17 9.6 C 46 %
3130 07-06-2019 01:50:17 9.4 C 46 %
3131 07-06-2019 02:02:18 9.2 C 46 %
3132 07-06-2019 02:14:18 9.2 C 46 %
3133 07-06-2019 02:26:17 9.3 C 47 %
3134 07-06-2019 02:38:17 9 C 47 %
3135 07-06-2019 02:50:17 8.9 C 48 %
3136 07-06-2019 03:02:17 9.1 C 48 %
3137 07-06-2019 03:14:17 9 C 48 %
3138 07-06-2019 03:26:17 9.4 C 49 %
3139 07-06-2019 03:38:17 10 C 50 %
3140 07-06-2019 03:50:17 10.2 C 49 %
3141 07-06-2019 04:02:17 10.5 C 48 %
3142 07-06-2019 04:14:17 10.6 C 46 %
3143 07-06-2019 04:26:17 10.4 C 44 %
3144 07-06-2019 04:38:17 10.4 C 44 %
3145 07-06-2019 04:50:17 9.5 C 45 %
3146 07-06-2019 05:02:18 9.1 C 45 %
3147 07-06-2019 05:14:18 9 C 46 %
3148 07-06-2019 05:26:17 9 C 46 %
3149 07-06-2019 05:38:17 9 C 48 %
3150 07-06-2019 05:50:17 9 C 48 %
Sensor: Nr:Datum:Temp:Feuchte:
Aussen-T/F 3151 07-06-2019 06:02:17 9.2 C 49 %
3152 07-06-2019 06:14:17 9.6 C 50 %
3153 07-06-2019 06:26:17 9.6 C 49 %
3154 07-06-2019 06:38:17 9.7 C 49 %
3155 07-06-2019 06:50:17 10.1 C 49 %
3156 07-06-2019 07:02:17 10.5 C 48 %
3157 07-06-2019 07:14:17 10.4 C 45 %
3158 07-06-2019 07:26:17 10.3 C 45 %
3159 07-06-2019 07:38:17 10.5 C 45 %
3160 07-06-2019 07:50:17 11 C 44 %
3161 07-06-2019 08:02:18 11.4 C 42 %
3162 07-06-2019 08:14:18 12.2 C 34 %
3163 07-06-2019 08:26:17 12.6 C 33 %
3164 07-06-2019 08:38:17 13.1 C 30 %
3165 07-06-2019 08:50:17 13.9 C 27 %
3166 07-06-2019 09:02:17 14.1 C 26 %
3167 07-06-2019 09:14:17 14.4 C 25 %
3168 07-06-2019 09:26:17 14.7 C 25 %
3169 07-06-2019 09:38:17 15.5 C 24 %
3170 07-06-2019 09:50:17 16.1 C 21 %
3171 07-06-2019 10:02:17 16.2 C 20 %
3172 07-06-2019 10:14:17 16.2 C 20 %
3173 07-06-2019 10:26:17 16.2 C 20 %
3174 07-06-2019 10:38:17 19.2 C 20 %
3175 07-06-2019 10:50:17 19.8 C 20 %
Sensor: Nr:Datum:Temp:Feuchte:
Aussen-T/F 3176 07-06-2019 11:02:17 20 C 20 %
3177 07-06-2019 11:14:17 20.4 C 20 %
3178 07-06-2019 11:26:17 20.5 C 20 %
3179 07-06-2019 11:38:17 20.6 C 20 %
3180 07-06-2019 11:50:17 21.5 C 20 %
3181 07-06-2019 12:02:18 21.7 C 20 %
3182 07-06-2019 12:14:18 21.7 C 20 %
3183 07-06-2019 12:26:17 21.7 C 20 %
3184 07-06-2019 12:38:17 20.8 C 20 %
3185 07-06-2019 12:50:18 20.9 C 20 %
3186 07-06-2019 13:02:17 21.4 C 20 %
3187 07-06-2019 13:14:17 21.4 C 20 %
3188 07-06-2019 13:26:17 21.6 C 20 %
3189 07-06-2019 13:38:17 20.9 C 20 %
3190 07-06-2019 13:50:17 20.9 C 20 %
3191 07-06-2019 14:02:17 20.9 C 20 %
3192 07-06-2019 14:14:17 20.8 C 20 %
3193 07-06-2019 14:26:17 21.8 C 20 %
3194 07-06-2019 14:38:18 21.8 C 20 %
3195 07-06-2019 14:50:17 23.7 C 20 %
3196 07-06-2019 15:02:17 24.3 C 20 %
3197 07-06-2019 15:14:18 24.9 C 20 %
3198 07-06-2019 15:26:17 24.8 C 20 %
3199 07-06-2019 15:38:17 24.8 C 20 %
3200 07-06-2019 15:50:17 26.3 C 20 %
Sensor: Nr:Datum:Temp:Feuchte:
Aussen-T/F 3201 07-06-2019 16:02:17 26.8 C 20 %
3202 07-06-2019 16:14:17 27.7 C 20 %
3203 07-06-2019 16:26:17 26.1 C 20 %
3204 07-06-2019 16:38:17 25.6 C 20 %
3205 07-06-2019 16:50:17 25.5 C 20 %
3206 07-06-2019 17:02:17 26.7 C 20 %
3207 07-06-2019 17:14:17 26.4 C 20 %
3208 07-06-2019 17:26:17 25.5 C 20 %
3209 07-06-2019 17:38:18 24.4 C 20 %
3210 07-06-2019 17:50:17 23.9 C 20 %
3211 07-06-2019 18:02:17 24 C 20 %
3212 07-06-2019 18:14:17 23.4 C 20 %
3213 07-06-2019 18:26:17 23.4 C 20 %
3214 07-06-2019 18:38:17 21.4 C 20 %
3215 07-06-2019 18:50:18 21.4 C 20 %
3216 07-06-2019 19:02:17 21.4 C 20 %
3217 07-06-2019 19:14:17 19 C 20 %
3218 07-06-2019 19:26:17 19 C 20 %
3219 07-06-2019 19:38:17 19 C 20 %
3220 07-06-2019 19:50:17 16.3 C 20 %
3221 07-06-2019 20:02:18 16.3 C 20 %
3222 07-06-2019 20:14:18 16.3 C 20 %
3223 07-06-2019 20:26:17 16.3 C 20 %
3224 07-06-2019 20:38:17 16.3 C 20 %
3225 07-06-2019 20:50:18 14.1 C 22 %
Sensor: Nr:Datum:Temp:Feuchte:
Aussen-T/F 3226 07-06-2019 21:02:17 14.7 C 21 %
3227 07-06-2019 21:14:17 14.7 C 21 %
3228 07-06-2019 21:26:17 14.7 C 22 %
3229 07-06-2019 21:38:17 14.8 C 20 %
3230 07-06-2019 21:50:17 14.9 C 20 %
3231 07-06-2019 22:02:18 15.1 C 20 %
3232 07-06-2019 22:14:18 14.5 C 20 %
3233 07-06-2019 22:26:17 14.2 C 20 %
3234 07-06-2019 22:38:17 14.3 C 20 %
3235 07-06-2019 22:50:18 13.9 C 20 %
3236 07-06-2019 23:02:17 14.5 C 20 %
3237 07-06-2019 23:14:17 15.1 C 20 %
3238 07-06-2019 23:26:17 15.1 C 20 %
3239 07-06-2019 23:38:17 15.1 C 20 %
3240 07-06-2019 23:50:17 15 C 20 %
3241 08-06-2019 00:02:18 15.1 C 20 %
3242 08-06-2019 00:14:18 15 C 20 %
3243 08-06-2019 00:26:17 15 C 20 %
3244 08-06-2019 00:38:17 15.1 C 20 %
3245 08-06-2019 00:50:17 15.5 C 20 %
3246 08-06-2019 01:02:17 15.5 C 20 %
3247 08-06-2019 01:14:17 15.4 C 20 %
3248 08-06-2019 01:26:17 15.6 C 20 %
3249 08-06-2019 01:38:18 15.4 C 20 %
3250 08-06-2019 01:50:17 15.4 C 20 %
Sensor: Nr:Datum:Temp:Feuchte:
Aussen-T/F 3251 08-06-2019 02:02:17 15.7 C 20 %
3252 08-06-2019 02:14:17 15.7 C 20 %
3253 08-06-2019 02:26:17 15.7 C 20 %
3254 08-06-2019 02:38:17 15.7 C 20 %
3255 08-06-2019 02:50:17 15.7 C 20 %
3256 08-06-2019 03:02:17 14.5 C 20 %
3257 08-06-2019 03:14:17 14.8 C 20 %
3258 08-06-2019 03:26:17 14.9 C 20 %
3259 08-06-2019 03:38:18 14.9 C 20 %
3260 08-06-2019 03:50:17 15 C 20 %
3261 08-06-2019 04:02:17 14.9 C 20 %
3262 08-06-2019 04:14:17 14.8 C 20 %
3263 08-06-2019 04:26:17 14.8 C 20 %
3264 08-06-2019 04:38:17 14.7 C 20 %
3265 08-06-2019 04:50:17 14.5 C 20 %
3266 08-06-2019 05:02:18 14.4 C 20 %
3267 08-06-2019 05:14:18 14.1 C 20 %
3268 08-06-2019 05:26:17 13.9 C 20 %
3269 08-06-2019 05:38:17 13.8 C 20 %
3270 08-06-2019 05:50:17 13.5 C 20 %
3271 08-06-2019 06:02:18 13.5 C 20 %
3272 08-06-2019 06:14:18 13.3 C 20 %
3273 08-06-2019 06:26:17 13.3 C 20 %
3274 08-06-2019 06:38:17 13 C 20 %
3275 08-06-2019 06:50:17 13 C 20 %
Sensor: Nr:Datum:Temp:Feuchte:
Aussen-T/F 3276 08-06-2019 07:02:17 13.5 C 20 %
3277 08-06-2019 07:14:17 13.4 C 20 %
3278 08-06-2019 07:26:17 13.6 C 20 %
3279 08-06-2019 07:38:18 13.7 C 20 %
3280 08-06-2019 07:50:17 14.1 C 20 %
3281 08-06-2019 08:02:17 14.2 C 20 %
3282 08-06-2019 08:14:17 14.6 C 20 %
3283 08-06-2019 08:26:17 14.6 C 20 %
3284 08-06-2019 08:38:17 14.6 C 20 %
3285 08-06-2019 08:50:17 14.3 C 20 %
3286 08-06-2019 09:02:18 14.5 C 20 %
3287 08-06-2019 09:14:18 14.5 C 20 %
3288 08-06-2019 09:26:17 14.8 C 20 %
3289 08-06-2019 09:38:17 15.3 C 20 %
3290 08-06-2019 09:50:17 15.4 C 20 %
3291 08-06-2019 10:02:17 15.3 C 20 %
3292 08-06-2019 10:14:17 14.9 C 20 %
3293 08-06-2019 10:26:17 14.7 C 20 %
3294 08-06-2019 10:38:17 15.3 C 20 %
3295 08-06-2019 10:50:17 16.2 C 20 %
3296 08-06-2019 11:02:17 15.9 C 20 %
3297 08-06-2019 11:14:17 16.4 C 20 %
3298 08-06-2019 11:26:17 16.3 C 20 %
3299 08-06-2019 11:38:17 16.8 C 20 %
3300 08-06-2019 11:50:17 16.8 C 20 %
Sensor: Nr:Datum:Temp:Feuchte:
Aussen-T/F 3301 08-06-2019 12:02:17 17.2 C 20 %
3302 08-06-2019 12:14:17 16.7 C 20 %
3303 08-06-2019 12:26:17 16.7 C 20 %
3304 08-06-2019 12:38:17 16.7 C 20 %
3305 08-06-2019 12:50:17 18.3 C 20 %
3306 08-06-2019 13:02:18 17.9 C 20 %
3307 08-06-2019 13:14:18 18.3 C 20 %
3308 08-06-2019 13:26:17 18.5 C 20 %
3309 08-06-2019 13:38:17 17.9 C 20 %
3310 08-06-2019 13:50:17 18.6 C 20 %
3311 08-06-2019 14:02:17 19.1 C 20 %
3312 08-06-2019 14:14:17 18.7 C 20 %
3313 08-06-2019 14:26:17 19.4 C 20 %
3314 08-06-2019 14:38:17 20.1 C 20 %
3315 08-06-2019 14:50:17 20.1 C 20 %
3316 08-06-2019 15:02:18 21.2 C 20 %
3317 08-06-2019 15:14:18 19.6 C 20 %
3318 08-06-2019 15:26:17 20.4 C 20 %
3319 08-06-2019 15:38:17 20.3 C 20 %
3320 08-06-2019 15:50:18 20.1 C 20 %
3321 08-06-2019 16:02:17 19.4 C 20 %
3322 08-06-2019 16:14:17 19.7 C 20 %
3323 08-06-2019 16:26:17 22.2 C 20 %
3324 08-06-2019 16:38:17 20.8 C 20 %
3325 08-06-2019 16:50:17 20.8 C 20 %
Sensor: Nr:Datum:Temp:Feuchte:
Aussen-T/F 3326 08-06-2019 17:02:17 20.5 C 20 %
3327 08-06-2019 17:14:17 21.2 C 20 %
3328 08-06-2019 17:26:17 20.5 C 20 %
3329 08-06-2019 17:38:17 20.1 C 20 %
3330 08-06-2019 17:50:17 21.3 C 20 %
3331 08-06-2019 18:02:18 20.4 C 20 %
3332 08-06-2019 18:14:18 22 C 20 %
3333 08-06-2019 18:26:17 21.8 C 20 %
3334 08-06-2019 18:38:17 20.8 C 20 %
3335 08-06-2019 18:50:17 18.9 C 20 %
3336 08-06-2019 19:02:17 18.9 C 20 %
3337 08-06-2019 19:14:17 19.1 C 20 %
3338 08-06-2019 19:26:17 19.1 C 20 %
3339 08-06-2019 19:38:17 19.1 C 20 %
3340 08-06-2019 19:50:17 18.9 C 20 %
3341 08-06-2019 20:02:17 18.6 C 20 %
3342 08-06-2019 20:14:17 17.7 C 20 %
3343 08-06-2019 20:26:17 17.5 C 20 %
3344 08-06-2019 20:38:17 16.5 C 20 %
3345 08-06-2019 20:50:17 16.4 C 20 %
3346 08-06-2019 21:02:17 16.2 C 20 %
3347 08-06-2019 21:14:17 16 C 20 %
3348 08-06-2019 21:26:17 16 C 20 %
3349 08-06-2019 21:38:17 16 C 20 %
3350 08-06-2019 21:50:17 15.5 C 20 %
Sensor: Nr:Datum:Temp:Feuchte:
Aussen-T/F 3351 08-06-2019 22:02:17 15.1 C 20 %
3352 08-06-2019 22:14:17 14.2 C 20 %
3353 08-06-2019 22:26:17 13.9 C 20 %
3354 08-06-2019 22:38:18 13.6 C 20 %
3355 08-06-2019 22:50:17 13.2 C 22 %
3356 08-06-2019 23:02:17 12.7 C 25 %
3357 08-06-2019 23:14:17 12.7 C 26 %
3358 08-06-2019 23:26:17 12.6 C 26 %
3359 08-06-2019 23:38:17 12.4 C 26 %
3360 08-06-2019 23:50:17 12.2 C 27 %
3361 09-06-2019 00:02:17 11.8 C 30 %
3362 09-06-2019 00:14:17 11.8 C 30 %
3363 09-06-2019 00:26:17 11.5 C 31 %
3364 09-06-2019 00:38:17 11.1 C 33 %
3365 09-06-2019 00:50:17 11 C 35 %
3366 09-06-2019 01:02:18 11.1 C 34 %
3367 09-06-2019 01:14:18 10.9 C 35 %
3368 09-06-2019 01:26:17 11.2 C 34 %
3369 09-06-2019 01:38:17 11.1 C 33 %
3370 09-06-2019 01:50:18 10.7 C 33 %
3371 09-06-2019 02:02:17 11 C 35 %
3372 09-06-2019 02:14:17 11 C 34 %
3373 09-06-2019 02:26:17 11.1 C 35 %
3374 09-06-2019 02:38:17 10.8 C 35 %
3375 09-06-2019 02:50:17 10.4 C 36 %
Sensor: Nr:Datum:Temp:Feuchte:
Aussen-T/F 3376 09-06-2019 03:02:17 10.4 C 37 %
3377 09-06-2019 03:14:17 10.4 C 37 %
3378 09-06-2019 03:26:18 10.1 C 38 %
3379 09-06-2019 03:38:17 9.8 C 40 %
3380 09-06-2019 03:50:17 9.7 C 41 %
3381 09-06-2019 04:02:18 9.6 C 41 %
3382 09-06-2019 04:14:18 9.5 C 41 %
3383 09-06-2019 04:26:17 9 C 40 %
3384 09-06-2019 04:38:17 8.7 C 41 %
3385 09-06-2019 04:50:17 8.6 C 43 %
3386 09-06-2019 05:02:17 8.5 C 43 %
3387 09-06-2019 05:14:17 8.3 C 44 %
3388 09-06-2019 05:26:17 8.3 C 45 %
3389 09-06-2019 05:38:17 8.3 C 45 %
3390 09-06-2019 05:50:17 8.3 C 46 %
3391 09-06-2019 06:02:18 8.3 C 45 %
3392 09-06-2019 06:14:18 8.4 C 45 %
3393 09-06-2019 06:26:17 8.2 C 45 %
3394 09-06-2019 06:38:17 8.5 C 46 %
3395 09-06-2019 06:50:17 9 C 46 %
3396 09-06-2019 07:02:17 9.3 C 46 %
3397 09-06-2019 07:14:17 9.5 C 45 %
3398 09-06-2019 07:26:17 10 C 45 %
3399 09-06-2019 07:38:17 10.2 C 44 %
3400 09-06-2019 07:50:17 10.4 C 43 %
Sensor: Nr:Datum:Temp:Feuchte:
Aussen-T/F 3401 09-06-2019 08:02:18 10.6 C 42 %
3402 09-06-2019 08:14:18 10.7 C 43 %
3403 09-06-2019 08:26:17 11.2 C 42 %
3404 09-06-2019 08:38:17 11.6 C 42 %
3405 09-06-2019 08:50:17 11.6 C 42 %
3406 09-06-2019 09:02:17 13.2 C 36 %
3407 09-06-2019 09:14:17 14.1 C 31 %
3408 09-06-2019 09:26:17 14.6 C 27 %
3409 09-06-2019 09:38:17 15 C 26 %
3410 09-06-2019 09:50:17 16.4 C 21 %
3411 09-06-2019 10:02:18 16.3 C 21 %
3412 09-06-2019 10:14:18 16.9 C 20 %
3413 09-06-2019 10:26:17 18.2 C 20 %
3414 09-06-2019 10:38:17 19.1 C 20 %
3415 09-06-2019 10:50:17 19.5 C 20 %
3416 09-06-2019 11:02:17 19.9 C 20 %
3417 09-06-2019 11:14:17 20.3 C 20 %
3418 09-06-2019 11:26:17 20.2 C 20 %
3419 09-06-2019 11:38:17 20.2 C 20 %
3420 09-06-2019 11:50:17 20.8 C 20 %
3421 09-06-2019 12:02:17 20.7 C 20 %
3422 09-06-2019 12:14:17 21.4 C 20 %
3423 09-06-2019 12:26:17 21.2 C 20 %
3424 09-06-2019 12:38:17 21 C 20 %
3425 09-06-2019 12:50:17 21 C 20 %
Sensor: Nr:Datum:Temp:Feuchte:
Aussen-T/F 3426 09-06-2019 13:02:17 21.1 C 20 %
3427 09-06-2019 13:14:17 21.4 C 20 %
3428 09-06-2019 13:26:17 21.6 C 20 %
3429 09-06-2019 13:38:18 21.6 C 20 %
3430 09-06-2019 13:50:17 22.7 C 20 %
3431 09-06-2019 14:02:17 23.1 C 20 %
3432 09-06-2019 14:14:17 23 C 20 %
3433 09-06-2019 14:26:17 23.4 C 20 %
3434 09-06-2019 14:38:17 23.6 C 20 %
3435 09-06-2019 14:50:17 23.6 C 20 %
3436 09-06-2019 15:02:17 23.6 C 20 %
3437 09-06-2019 15:14:17 23.4 C 20 %
3438 09-06-2019 15:26:18 23.7 C 20 %
3439 09-06-2019 15:38:17 24.2 C 20 %
3440 09-06-2019 15:50:17 24.2 C 20 %
3441 09-06-2019 16:02:17 24.1 C 20 %
3442 09-06-2019 16:14:17 24.3 C 20 %
3443 09-06-2019 16:26:17 24.1 C 20 %
3444 09-06-2019 16:38:17 24.1 C 20 %
3445 09-06-2019 16:50:17 24.1 C 20 %
3446 09-06-2019 17:02:18 23.7 C 20 %
3447 09-06-2019 17:14:18 23.6 C 20 %
3448 09-06-2019 17:26:17 23.8 C 20 %
3449 09-06-2019 17:38:17 23.4 C 20 %
3450 09-06-2019 17:50:17 23.2 C 20 %
Sensor: Nr:Datum:Temp:Feuchte:
Aussen-T/F 3451 09-06-2019 18:02:17 23.3 C 20 %
3452 09-06-2019 18:14:17 23.3 C 20 %
3453 09-06-2019 18:26:17 25 C 20 %
3454 09-06-2019 18:38:17 23.5 C 20 %
3455 09-06-2019 18:50:17 23.5 C 20 %
3456 09-06-2019 19:02:17 23.5 C 20 %
3457 09-06-2019 19:14:17 23.5 C 20 %
3458 09-06-2019 19:26:17 21.3 C 20 %
3459 09-06-2019 19:38:17 21.3 C 20 %
3460 09-06-2019 19:50:17 20.4 C 20 %
3461 09-06-2019 20:02:17 20.4 C 20 %
3462 09-06-2019 20:14:17 20.4 C 20 %
3463 09-06-2019 20:26:17 19.6 C 20 %
3464 09-06-2019 20:38:18 19.6 C 20 %
3465 09-06-2019 20:50:17 19.3 C 20 %
3466 09-06-2019 21:02:17 19.1 C 20 %
3467 09-06-2019 21:14:17 19.1 C 20 %
3468 09-06-2019 21:26:17 18.8 C 20 %
3469 09-06-2019 21:38:17 18.7 C 20 %
3470 09-06-2019 21:50:17 18.5 C 20 %
3471 09-06-2019 22:02:17 18.5 C 20 %
3472 09-06-2019 22:14:17 18.4 C 20 %
3473 09-06-2019 22:26:17 18.3 C 20 %
3474 09-06-2019 22:38:17 18.1 C 20 %
3475 09-06-2019 22:50:17 18 C 20 %
Sensor: Nr:Datum:Temp:Feuchte:
Aussen-T/F 3476 09-06-2019 23:02:17 18 C 20 %
3477 09-06-2019 23:14:17 17.9 C 21 %
3478 09-06-2019 23:26:17 17.8 C 21 %
3479 09-06-2019 23:38:17 17.8 C 21 %
3480 09-06-2019 23:50:17 17.8 C 21 %
3481 10-06-2019 00:02:17 17.7 C 22 %
3482 10-06-2019 00:14:17 17.7 C 22 %
3483 10-06-2019 00:26:17 17.7 C 22 %
3484 10-06-2019 00:38:17 17.2 C 23 %
3485 10-06-2019 00:50:17 17.2 C 23 %
3486 10-06-2019 01:02:17 17.2 C 21 %
3487 10-06-2019 01:14:17 17.2 C 21 %
3488 10-06-2019 01:26:17 17.2 C 21 %
3489 10-06-2019 01:38:17 16.3 C 25 %
3490 10-06-2019 01:50:17 16.2 C 25 %
3491 10-06-2019 02:02:17 16.3 C 25 %
3492 10-06-2019 02:14:17 16.3 C 25 %
3493 10-06-2019 02:26:17 14.3 C 25 %
3494 10-06-2019 02:38:17 15.4 C 26 %
3495 10-06-2019 02:50:17 15.4 C 26 %
3496 10-06-2019 03:02:18 15.4 C 26 %
3497 10-06-2019 03:14:18 15.4 C 26 %
3498 10-06-2019 03:26:17 15.4 C 26 %
3499 10-06-2019 03:38:17 15.4 C 26 %
3500 10-06-2019 03:50:17 15.4 C 26 %
Sensor: Nr:Datum:Temp:Feuchte:
Aussen-T/F 3501 10-06-2019 04:02:17 14.4 C 33 %
3502 10-06-2019 04:14:17 14.4 C 33 %
3503 10-06-2019 04:26:17 14.4 C 33 %
3504 10-06-2019 04:38:17 14.6 C 34 %
3505 10-06-2019 04:50:17 14.6 C 33 %
3506 10-06-2019 05:02:18 14.7 C 34 %
3507 10-06-2019 05:14:18 14.7 C 34 %
3508 10-06-2019 05:26:17 14.6 C 34 %
3509 10-06-2019 05:38:17 14.6 C 35 %
3510 10-06-2019 05:50:17 14.7 C 35 %
3511 10-06-2019 06:02:17 14.7 C 35 %
3512 10-06-2019 06:14:17 14.8 C 35 %
3513 10-06-2019 06:26:18 14.8 C 35 %
3514 10-06-2019 06:38:17 14.9 C 35 %
3515 10-06-2019 06:50:17 14.9 C 36 %
3516 10-06-2019 07:02:18 15 C 35 %
3517 10-06-2019 07:14:18 15.4 C 35 %
3518 10-06-2019 07:26:17 15.4 C 35 %
3519 10-06-2019 07:38:17 16.2 C 29 %
3520 10-06-2019 07:50:17 16.7 C 27 %
3521 10-06-2019 08:02:17 16.7 C 27 %
3522 10-06-2019 08:14:17 16.7 C 27 %
3523 10-06-2019 08:26:17 18.5 C 21 %
3524 10-06-2019 08:38:17 18.7 C 20 %
3525 10-06-2019 08:50:17 19.1 C 20 %
Sensor: Nr:Datum:Temp:Feuchte:
Aussen-T/F 3526 10-06-2019 09:02:17 19.2 C 20 %
3527 10-06-2019 09:14:17 19.1 C 20 %
3528 10-06-2019 09:26:17 19.3 C 20 %
3529 10-06-2019 09:38:17 19.9 C 20 %
3530 10-06-2019 09:50:17 19.8 C 20 %
3531 10-06-2019 10:02:18 20.2 C 20 %
3532 10-06-2019 10:14:18 20.3 C 20 %
3533 10-06-2019 10:26:17 20.7 C 20 %
3534 10-06-2019 10:38:17 21.3 C 20 %
3535 10-06-2019 10:50:17 21.7 C 20 %
3536 10-06-2019 11:02:17 21.8 C 20 %
3537 10-06-2019 11:14:17 21.8 C 20 %
3538 10-06-2019 11:26:17 22.6 C 20 %
3539 10-06-2019 11:38:18 23.5 C 20 %
3540 10-06-2019 11:50:17 25.3 C 20 %
3541 10-06-2019 12:02:18 25.3 C 20 %
3542 10-06-2019 12:14:18 23.9 C 20 %
3543 10-06-2019 12:26:17 23.2 C 20 %
3544 10-06-2019 12:38:17 23.1 C 20 %
3545 10-06-2019 12:50:17 23.5 C 20 %
3546 10-06-2019 13:02:17 23.9 C 20 %
3547 10-06-2019 13:14:17 23.8 C 20 %
3548 10-06-2019 13:26:17 23.6 C 20 %
3549 10-06-2019 13:38:17 23.4 C 20 %
3550 10-06-2019 13:50:17 24 C 20 %
Sensor: Nr:Datum:Temp:Feuchte:
Aussen-T/F 3551 10-06-2019 14:02:18 24.3 C 20 %
3552 10-06-2019 14:14:18 24.1 C 20 %
3553 10-06-2019 14:26:17 24.1 C 20 %
3554 10-06-2019 14:38:18 24.2 C 20 %
3555 10-06-2019 14:50:17 24.4 C 20 %
3556 10-06-2019 15:02:17 24.4 C 20 %
3557 10-06-2019 15:14:17 24.4 C 20 %
3558 10-06-2019 15:26:17 24 C 20 %
3559 10-06-2019 15:38:17 24.2 C 20 %
3560 10-06-2019 15:50:17 24.1 C 20 %
3561 10-06-2019 16:02:17 25.5 C 20 %
3562 10-06-2019 16:14:17 25.3 C 20 %
3563 10-06-2019 16:26:17 25.5 C 20 %
3564 10-06-2019 16:38:17 25.1 C 20 %
3565 10-06-2019 16:50:17 24.5 C 20 %
3566 10-06-2019 17:02:18 23.8 C 20 %
3567 10-06-2019 17:14:18 23.9 C 20 %
3568 10-06-2019 17:26:17 24.7 C 20 %
3569 10-06-2019 17:38:17 24.5 C 20 %
3570 10-06-2019 17:50:17 24.4 C 20 %
3571 10-06-2019 18:02:17 24 C 20 %
3572 10-06-2019 18:14:17 24.6 C 20 %
3573 10-06-2019 18:26:18 24.2 C 20 %
3574 10-06-2019 18:38:17 23.3 C 20 %
3575 10-06-2019 18:50:17 22.9 C 20 %
Sensor: Nr:Datum:Temp:Feuchte:
Aussen-T/F 3576 10-06-2019 19:02:17 22.5 C 20 %
3577 10-06-2019 19:14:17 22.1 C 20 %
3578 10-06-2019 19:26:17 22 C 20 %
3579 10-06-2019 19:38:17 22 C 20 %
3580 10-06-2019 19:50:17 21.4 C 20 %
3581 10-06-2019 20:02:17 21.1 C 20 %
3582 10-06-2019 20:14:17 20.8 C 20 %
3583 10-06-2019 20:26:17 20.7 C 20 %
3584 10-06-2019 20:38:17 20.5 C 20 %
3585 10-06-2019 20:50:17 20.1 C 20 %
3586 10-06-2019 21:02:17 19.5 C 20 %
3587 10-06-2019 21:14:17 19.5 C 20 %
3588 10-06-2019 21:26:17 19.5 C 20 %
3589 10-06-2019 21:38:17 19.4 C 20 %
3590 10-06-2019 21:50:17 19 C 20 %
3591 10-06-2019 22:02:17 18.6 C 20 %
3592 10-06-2019 22:14:17 18.4 C 22 %
3593 10-06-2019 22:26:17 18.2 C 23 %
3594 10-06-2019 22:38:17 18 C 23 %
3595 10-06-2019 22:50:17 17.6 C 25 %
3596 10-06-2019 23:02:17 17.4 C 26 %
3597 10-06-2019 23:14:17 17.4 C 26 %
3598 10-06-2019 23:26:17 17.4 C 25 %
3599 10-06-2019 23:38:17 17.3 C 27 %
3600 10-06-2019 23:50:18 17.1 C 28 %
Sensor: Nr:Datum:Temp:Feuchte:
G-T/H 1 12-05-2019 00:00:17 12.7 C 68 %
2 12-05-2019 00:12:17 12.7 C 68 %
3 12-05-2019 00:24:17 12.6 C 68 %
4 12-05-2019 00:36:17 12.6 C 68 %
5 12-05-2019 00:48:18 12.6 C 68 %
6 12-05-2019 01:00:17 12.6 C 68 %
7 12-05-2019 01:12:17 12.6 C 68 %
8 12-05-2019 01:24:17 12.6 C 68 %
9 12-05-2019 01:36:17 12.5 C 68 %
10 12-05-2019 01:48:17 12.5 C 68 %
11 12-05-2019 02:00:17 12.5 C 68 %
12 12-05-2019 02:12:17 12.5 C 68 %
13 12-05-2019 02:24:17 12.5 C 68 %
14 12-05-2019 02:36:17 12.5 C 68 %
15 12-05-2019 02:48:17 12.4 C 68 %
16 12-05-2019 03:00:17 12.4 C 68 %
17 12-05-2019 03:12:17 12.4 C 68 %
18 12-05-2019 03:24:17 12.4 C 68 %
19 12-05-2019 03:36:17 12.3 C 68 %
20 12-05-2019 03:48:17 12.3 C 68 %
21 12-05-2019 04:00:17 12.2 C 68 %
22 12-05-2019 04:12:17 12.2 C 68 %
23 12-05-2019 04:24:17 12.2 C 67 %
24 12-05-2019 04:36:18 12.1 C 67 %
25 12-05-2019 04:48:17 12.1 C 67 %
Sensor: Nr:Datum:Temp:Feuchte:
G-T/H 26 12-05-2019 05:00:17 12.1 C 66 %
27 12-05-2019 05:12:17 12 C 66 %
28 12-05-2019 05:24:17 12 C 66 %
29 12-05-2019 05:36:17 12 C 66 %
30 12-05-2019 05:48:17 11.9 C 66 %
31 12-05-2019 06:00:17 11.9 C 66 %
32 12-05-2019 06:12:17 11.8 C 66 %
33 12-05-2019 06:24:17 11.8 C 66 %
34 12-05-2019 06:36:17 11.8 C 66 %
35 12-05-2019 06:48:17 11.8 C 66 %
36 12-05-2019 07:00:17 11.7 C 66 %
37 12-05-2019 07:12:17 11.7 C 66 %
38 12-05-2019 07:24:17 11.7 C 66 %
39 12-05-2019 07:36:17 11.6 C 65 %
40 12-05-2019 07:48:17 11.6 C 65 %
41 12-05-2019 08:00:17 11.6 C 65 %
42 12-05-2019 08:12:17 11.6 C 65 %
43 12-05-2019 08:24:17 11.7 C 66 %
44 12-05-2019 08:36:17 11.7 C 66 %
45 12-05-2019 08:48:17 11.6 C 66 %
46 12-05-2019 09:00:17 11.7 C 66 %
47 12-05-2019 09:12:17 11.6 C 66 %
48 12-05-2019 09:24:17 11.6 C 66 %
49 12-05-2019 09:36:18 11.6 C 66 %
50 12-05-2019 09:48:17 11.6 C 66 %
Sensor: Nr:Datum:Temp:Feuchte:
G-T/H 51 12-05-2019 10:00:17 11.6 C 66 %
52 12-05-2019 10:12:17 11.6 C 66 %
53 12-05-2019 10:24:17 11.6 C 66 %
54 12-05-2019 10:36:17 11.6 C 66 %
55 12-05-2019 10:48:17 11.6 C 66 %
56 12-05-2019 11:00:17 11.6 C 66 %
57 12-05-2019 11:12:17 11.6 C 65 %
58 12-05-2019 11:24:17 11.5 C 65 %
59 12-05-2019 11:36:17 11.5 C 65 %
60 12-05-2019 11:48:17 11.5 C 65 %
61 12-05-2019 12:00:17 11.6 C 64 %
62 12-05-2019 12:12:17 11.6 C 64 %
63 12-05-2019 12:24:17 11.6 C 64 %
64 12-05-2019 12:36:17 11.6 C 64 %
65 12-05-2019 12:48:17 11.6 C 64 %
66 12-05-2019 13:00:18 11.6 C 64 %
67 12-05-2019 13:12:18 11.7 C 64 %
68 12-05-2019 13:24:17 11.7 C 64 %
69 12-05-2019 13:36:18 11.7 C 64 %
70 12-05-2019 13:48:17 11.7 C 64 %
71 12-05-2019 14:00:17 11.8 C 64 %
72 12-05-2019 14:12:17 11.8 C 64 %
73 12-05-2019 14:24:17 11.8 C 64 %
74 12-05-2019 14:36:17 11.9 C 64 %
75 12-05-2019 14:48:17 12 C 63 %
Sensor: Nr:Datum:Temp:Feuchte:
G-T/H 76 12-05-2019 15:00:18 12 C 62 %
77 12-05-2019 15:12:18 12.1 C 62 %
78 12-05-2019 15:24:17 12.1 C 62 %
79 12-05-2019 15:36:17 12.1 C 62 %
80 12-05-2019 15:48:18 12.1 C 62 %
81 12-05-2019 16:00:17 12.1 C 61 %
82 12-05-2019 16:12:17 12.1 C 61 %
83 12-05-2019 16:24:17 12.2 C 62 %
84 12-05-2019 16:36:17 12.2 C 62 %
85 12-05-2019 16:48:17 12.2 C 62 %
86 12-05-2019 17:00:17 12.3 C 62 %
87 12-05-2019 17:12:17 12.3 C 62 %
88 12-05-2019 17:24:17 12.3 C 62 %
89 12-05-2019 17:36:17 12.4 C 62 %
90 12-05-2019 17:48:18 12.4 C 62 %
91 12-05-2019 18:00:17 12.4 C 61 %
92 12-05-2019 18:12:17 12.4 C 61 %
93 12-05-2019 18:24:17 12.5 C 61 %
94 12-05-2019 18:36:18 12.5 C 61 %
95 12-05-2019 18:48:17 12.5 C 61 %
96 12-05-2019 19:00:17 12.5 C 61 %
97 12-05-2019 19:12:17 12.5 C 61 %
98 12-05-2019 19:24:17 12.5 C 61 %
99 12-05-2019 19:36:17 12.6 C 61 %
100 12-05-2019 19:48:17 12.6 C 61 %
Sensor: Nr:Datum:Temp:Feuchte:
G-T/H 101 12-05-2019 20:00:17 12.6 C 61 %
102 12-05-2019 20:12:17 12.6 C 61 %
103 12-05-2019 20:24:17 12.6 C 61 %
104 12-05-2019 20:36:18 12.6 C 60 %
105 12-05-2019 20:48:17 12.6 C 59 %
106 12-05-2019 21:00:17 12.6 C 58 %
107 12-05-2019 21:12:17 12.5 C 58 %
108 12-05-2019 21:24:17 12.5 C 58 %
109 12-05-2019 21:36:17 12.6 C 58 %
110 12-05-2019 21:48:17 12.6 C 59 %
111 12-05-2019 22:00:17 12.6 C 59 %
112 12-05-2019 22:12:17 12.6 C 59 %
113 12-05-2019 22:24:17 12.5 C 60 %
114 12-05-2019 22:36:17 12.5 C 60 %
115 12-05-2019 22:48:17 12.6 C 60 %
116 12-05-2019 23:00:17 12.6 C 60 %
117 12-05-2019 23:12:17 12.6 C 60 %
118 12-05-2019 23:24:17 12.6 C 61 %
119 12-05-2019 23:36:18 12.5 C 61 %
120 12-05-2019 23:48:17 12.5 C 61 %
121 13-05-2019 00:00:17 12.4 C 60 %
122 13-05-2019 00:12:17 12.4 C 60 %
123 13-05-2019 00:24:17 12.4 C 60 %
124 13-05-2019 00:36:17 12.4 C 60 %
125 13-05-2019 00:48:17 12.4 C 60 %
Sensor: Nr:Datum:Temp:Feuchte:
G-T/H 126 13-05-2019 01:00:18 12.3 C 60 %
127 13-05-2019 01:12:18 12.3 C 60 %
128 13-05-2019 01:24:17 12.2 C 60 %
129 13-05-2019 01:36:17 12.2 C 60 %
130 13-05-2019 01:48:17 12.2 C 60 %
131 13-05-2019 02:00:17 12.2 C 60 %
132 13-05-2019 02:12:17 12.2 C 60 %
133 13-05-2019 02:24:17 12.1 C 60 %
134 13-05-2019 02:36:17 12.1 C 60 %
135 13-05-2019 02:48:17 12.1 C 60 %
136 13-05-2019 03:00:17 12.1 C 60 %
137 13-05-2019 03:12:17 12 C 60 %
138 13-05-2019 03:24:17 12 C 60 %
139 13-05-2019 03:36:18 12 C 60 %
140 13-05-2019 03:48:17 12 C 60 %
141 13-05-2019 04:00:17 11.9 C 61 %
142 13-05-2019 04:12:17 11.9 C 61 %
143 13-05-2019 04:24:17 11.9 C 61 %
144 13-05-2019 04:36:17 11.9 C 61 %
145 13-05-2019 04:48:17 11.9 C 61 %
146 13-05-2019 05:00:18 11.8 C 60 %
147 13-05-2019 05:12:18 11.8 C 60 %
148 13-05-2019 05:24:17 11.7 C 60 %
149 13-05-2019 05:36:17 11.7 C 60 %
150 13-05-2019 05:48:18 11.7 C 60 %
Sensor: Nr:Datum:Temp:Feuchte:
G-T/H 151 13-05-2019 06:00:17 11.7 C 60 %
152 13-05-2019 06:12:17 11.8 C 60 %
153 13-05-2019 06:24:17 11.7 C 60 %
154 13-05-2019 06:36:17 11.7 C 61 %
155 13-05-2019 06:48:17 11.7 C 61 %
156 13-05-2019 07:00:18 11.6 C 61 %
157 13-05-2019 07:12:18 11.6 C 61 %
158 13-05-2019 07:24:17 11.6 C 60 %
159 13-05-2019 07:36:17 11.5 C 60 %
160 13-05-2019 07:48:17 11.5 C 60 %
161 13-05-2019 08:00:17 11.5 C 60 %
162 13-05-2019 08:12:17 11.4 C 60 %
163 13-05-2019 08:24:17 11.4 C 60 %
164 13-05-2019 08:36:17 11.4 C 61 %
165 13-05-2019 08:48:17 11.4 C 61 %
166 13-05-2019 09:00:17 11.4 C 61 %
167 13-05-2019 09:12:17 11.4 C 61 %
168 13-05-2019 09:24:17 11.4 C 61 %
169 13-05-2019 09:36:17 11.4 C 61 %
170 13-05-2019 09:48:17 11.4 C 62 %
171 13-05-2019 10:00:17 11.4 C 62 %
172 13-05-2019 10:12:17 11.4 C 62 %
173 13-05-2019 10:24:17 11.4 C 62 %
174 13-05-2019 10:36:17 11.3 C 61 %
175 13-05-2019 10:48:17 11.3 C 61 %
Sensor: Nr:Datum:Temp:Feuchte:
G-T/H 176 13-05-2019 11:00:17 11.3 C 60 %
177 13-05-2019 11:12:17 11.3 C 60 %
178 13-05-2019 11:24:17 11.3 C 60 %
179 13-05-2019 11:36:17 11.4 C 59 %
180 13-05-2019 11:48:17 11.4 C 59 %
181 13-05-2019 12:00:17 11.4 C 59 %
182 13-05-2019 12:12:17 11.4 C 59 %
183 13-05-2019 12:24:17 11.4 C 59 %
184 13-05-2019 12:36:17 11.4 C 59 %
185 13-05-2019 12:48:17 11.5 C 59 %
186 13-05-2019 13:00:18 11.5 C 59 %
187 13-05-2019 13:12:18 11.5 C 59 %
188 13-05-2019 13:24:17 11.6 C 59 %
189 13-05-2019 13:36:17 11.6 C 59 %
190 13-05-2019 13:48:17 11.7 C 59 %
191 13-05-2019 14:00:17 11.7 C 59 %
192 13-05-2019 14:12:17 11.8 C 59 %
193 13-05-2019 14:24:17 11.8 C 59 %
194 13-05-2019 14:36:17 11.8 C 60 %
195 13-05-2019 14:48:17 11.9 C 60 %
196 13-05-2019 15:00:17 11.9 C 60 %
197 13-05-2019 15:12:17 12 C 59 %
198 13-05-2019 15:24:17 12 C 59 %
199 13-05-2019 15:36:17 12 C 59 %
200 13-05-2019 15:48:17 12.1 C 59 %
Sensor: Nr:Datum:Temp:Feuchte:
G-T/H 201 13-05-2019 16:00:18 12.1 C 60 %
202 13-05-2019 16:12:18 12.2 C 60 %
203 13-05-2019 16:24:17 12.2 C 60 %
204 13-05-2019 16:36:17 12.3 C 60 %
205 13-05-2019 16:48:17 12.3 C 60 %
206 13-05-2019 17:00:17 12.3 C 60 %
207 13-05-2019 17:12:17 12.4 C 60 %
208 13-05-2019 17:24:17 12.4 C 60 %
209 13-05-2019 17:36:18 12.4 C 60 %
210 13-05-2019 17:48:17 12.5 C 60 %
211 13-05-2019 18:00:17 12.5 C 60 %
212 13-05-2019 18:12:17 12.5 C 60 %
213 13-05-2019 18:24:18 12.6 C 60 %
214 13-05-2019 18:36:17 12.6 C 60 %
215 13-05-2019 18:48:17 12.7 C 60 %
216 13-05-2019 19:00:18 12.7 C 60 %
217 13-05-2019 19:12:18 12.7 C 60 %
218 13-05-2019 19:24:17 12.7 C 60 %
219 13-05-2019 19:36:17 12.7 C 60 %
220 13-05-2019 19:48:17 12.8 C 60 %
221 13-05-2019 20:00:17 12.8 C 60 %
222 13-05-2019 20:12:17 12.8 C 60 %
223 13-05-2019 20:24:17 12.8 C 60 %
224 13-05-2019 20:36:18 12.8 C 60 %
225 13-05-2019 20:48:17 12.8 C 60 %
Sensor: Nr:Datum:Temp:Feuchte:
G-T/H 226 13-05-2019 21:00:17 12.8 C 60 %
227 13-05-2019 21:12:17 12.8 C 60 %
228 13-05-2019 21:24:18 12.8 C 59 %
229 13-05-2019 21:36:17 12.8 C 59 %
230 13-05-2019 21:48:17 12.7 C 59 %
231 13-05-2019 22:00:17 12.8 C 59 %
232 13-05-2019 22:12:17 12.8 C 59 %
233 13-05-2019 22:24:17 12.8 C 59 %
234 13-05-2019 22:36:17 12.7 C 60 %
235 13-05-2019 22:48:17 12.7 C 60 %
236 13-05-2019 23:00:17 12.8 C 60 %
237 13-05-2019 23:12:17 12.7 C 60 %
238 13-05-2019 23:24:18 12.8 C 60 %
239 13-05-2019 23:36:17 12.8 C 60 %
240 13-05-2019 23:48:17 12.8 C 60 %
241 14-05-2019 00:00:17 12.7 C 60 %
242 14-05-2019 00:12:17 12.7 C 60 %
243 14-05-2019 00:24:18 12.7 C 60 %
244 14-05-2019 00:36:17 12.7 C 60 %
245 14-05-2019 00:48:17 12.7 C 60 %
246 14-05-2019 01:00:17 12.7 C 60 %
247 14-05-2019 01:12:17 12.7 C 60 %
248 14-05-2019 01:24:17 12.7 C 60 %
249 14-05-2019 01:36:17 12.6 C 60 %
250 14-05-2019 01:48:17 12.6 C 60 %
Sensor: Nr:Datum:Temp:Feuchte:
G-T/H 251 14-05-2019 02:00:17 12.6 C 60 %
252 14-05-2019 02:12:17 12.6 C 60 %
253 14-05-2019 02:24:17 12.6 C 60 %
254 14-05-2019 02:36:17 12.6 C 60 %
255 14-05-2019 02:48:18 12.5 C 60 %
256 14-05-2019 03:00:17 12.5 C 60 %
257 14-05-2019 03:12:17 12.5 C 60 %
258 14-05-2019 03:24:17 12.5 C 60 %
259 14-05-2019 03:36:18 12.5 C 60 %
260 14-05-2019 03:48:17 12.5 C 60 %
261 14-05-2019 04:00:17 12.4 C 60 %
262 14-05-2019 04:12:17 12.4 C 60 %
263 14-05-2019 04:24:18 12.4 C 60 %
264 14-05-2019 04:36:17 12.3 C 60 %
265 14-05-2019 04:48:17 12.3 C 60 %
266 14-05-2019 05:00:17 12.3 C 60 %
267 14-05-2019 05:12:17 12.2 C 60 %
268 14-05-2019 05:24:17 12.2 C 60 %
269 14-05-2019 05:36:17 12.2 C 60 %
270 14-05-2019 05:48:17 12.2 C 60 %
271 14-05-2019 06:00:17 12.2 C 60 %
272 14-05-2019 06:12:17 12.1 C 60 %
273 14-05-2019 06:24:17 12.1 C 60 %
274 14-05-2019 06:36:17 12.1 C 60 %
275 14-05-2019 06:48:17 12.1 C 60 %
Sensor: Nr:Datum:Temp:Feuchte:
G-T/H 276 14-05-2019 07:00:17 12.1 C 60 %
277 14-05-2019 07:12:17 12 C 60 %
278 14-05-2019 07:24:18 12 C 60 %
279 14-05-2019 07:36:17 12 C 60 %
280 14-05-2019 07:48:17 12 C 60 %
281 14-05-2019 08:00:17 11.9 C 61 %
282 14-05-2019 08:12:17 11.9 C 61 %
283 14-05-2019 08:24:17 11.9 C 61 %
284 14-05-2019 08:36:17 11.8 C 61 %
285 14-05-2019 08:48:17 11.7 C 61 %
286 14-05-2019 09:00:17 11.7 C 61 %
287 14-05-2019 09:12:17 11.7 C 61 %
288 14-05-2019 09:24:17 11.7 C 61 %
289 14-05-2019 09:36:17 11.7 C 61 %
290 14-05-2019 09:48:17 11.7 C 61 %
291 14-05-2019 10:00:17 11.7 C 61 %
292 14-05-2019 10:12:17 11.7 C 61 %
293 14-05-2019 10:24:17 11.7 C 61 %
294 14-05-2019 10:36:17 11.7 C 61 %
295 14-05-2019 10:48:17 11.6 C 62 %
296 14-05-2019 11:00:17 11.6 C 62 %
297 14-05-2019 11:12:17 11.6 C 62 %
298 14-05-2019 11:24:17 11.6 C 61 %
299 14-05-2019 11:36:17 11.7 C 61 %
300 14-05-2019 11:48:17 11.7 C 60 %
Sensor: Nr:Datum:Temp:Feuchte:
G-T/H 301 14-05-2019 12:00:17 11.7 C 60 %
302 14-05-2019 12:12:17 11.7 C 59 %
303 14-05-2019 12:24:17 11.7 C 59 %
304 14-05-2019 12:36:17 11.8 C 58 %
305 14-05-2019 12:48:17 11.8 C 58 %
306 14-05-2019 13:00:17 11.8 C 59 %
307 14-05-2019 13:12:17 11.8 C 59 %
308 14-05-2019 13:24:17 11.9 C 59 %
309 14-05-2019 13:36:18 11.9 C 59 %
310 14-05-2019 13:48:17 12 C 58 %
311 14-05-2019 14:00:17 12 C 58 %
312 14-05-2019 14:12:17 12 C 58 %
313 14-05-2019 14:24:17 12 C 58 %
314 14-05-2019 14:36:17 12.1 C 59 %
315 14-05-2019 14:48:17 12.1 C 59 %
316 14-05-2019 15:00:17 12.2 C 59 %
317 14-05-2019 15:12:17 12.2 C 59 %
318 14-05-2019 15:24:17 12.2 C 59 %
319 14-05-2019 15:36:17 12.3 C 59 %
320 14-05-2019 15:48:17 12.3 C 59 %
321 14-05-2019 16:00:17 12.3 C 59 %
322 14-05-2019 16:12:17 12.4 C 60 %
323 14-05-2019 16:24:17 12.4 C 60 %
324 14-05-2019 16:36:17 12.4 C 60 %
325 14-05-2019 16:48:17 12.5 C 60 %
Sensor: Nr:Datum:Temp:Feuchte:
G-T/H 326 14-05-2019 17:00:17 12.5 C 60 %
327 14-05-2019 17:12:17 12.5 C 60 %
328 14-05-2019 17:24:17 12.5 C 60 %
329 14-05-2019 17:36:17 12.5 C 60 %
330 14-05-2019 17:48:18 12.6 C 60 %
331 14-05-2019 18:00:17 12.6 C 60 %
332 14-05-2019 18:12:17 12.7 C 60 %
333 14-05-2019 18:24:17 12.7 C 60 %
334 14-05-2019 18:36:17 12.7 C 60 %
335 14-05-2019 18:48:17 12.8 C 60 %
336 14-05-2019 19:00:17 12.7 C 61 %
337 14-05-2019 19:12:17 12.8 C 61 %
338 14-05-2019 19:24:17 12.8 C 61 %
339 14-05-2019 19:36:17 12.8 C 61 %
340 14-05-2019 19:48:17 12.9 C 61 %
341 14-05-2019 20:00:18 12.8 C 61 %
342 14-05-2019 20:12:18 12.8 C 60 %
343 14-05-2019 20:24:17 12.8 C 60 %
344 14-05-2019 20:36:17 12.8 C 59 %
345 14-05-2019 20:48:17 12.8 C 58 %
346 14-05-2019 21:00:17 12.8 C 57 %
347 14-05-2019 21:12:17 12.8 C 57 %
348 14-05-2019 21:24:17 12.8 C 57 %
349 14-05-2019 21:36:17 12.8 C 57 %
350 14-05-2019 21:48:17 12.8 C 57 %
Sensor: Nr:Datum:Temp:Feuchte:
G-T/H 351 14-05-2019 22:00:17 12.8 C 58 %
352 14-05-2019 22:12:17 12.8 C 58 %
353 14-05-2019 22:24:17 12.8 C 58 %
354 14-05-2019 22:36:17 12.7 C 58 %
355 14-05-2019 22:48:17 12.8 C 58 %
356 14-05-2019 23:00:18 12.7 C 59 %
357 14-05-2019 23:12:18 12.7 C 59 %
358 14-05-2019 23:24:17 12.8 C 59 %
359 14-05-2019 23:36:17 12.7 C 59 %
360 14-05-2019 23:48:17 12.8 C 59 %
361 15-05-2019 00:00:18 12.7 C 59 %
362 15-05-2019 00:12:18 12.7 C 59 %
363 15-05-2019 00:24:17 12.7 C 59 %
364 15-05-2019 00:36:17 12.7 C 59 %
365 15-05-2019 00:48:17 12.7 C 59 %
366 15-05-2019 01:00:17 12.7 C 59 %
367 15-05-2019 01:12:17 12.7 C 59 %
368 15-05-2019 01:24:17 12.6 C 60 %
369 15-05-2019 01:36:17 12.6 C 60 %
370 15-05-2019 01:48:17 12.6 C 60 %
371 15-05-2019 02:00:17 12.6 C 60 %
372 15-05-2019 02:12:17 12.5 C 60 %
373 15-05-2019 02:24:17 12.5 C 60 %
374 15-05-2019 02:36:17 12.6 C 60 %
375 15-05-2019 02:48:17 12.5 C 60 %
Sensor: Nr:Datum:Temp:Feuchte:
G-T/H 376 15-05-2019 03:00:17 12.5 C 59 %
377 15-05-2019 03:12:17 12.5 C 60 %
378 15-05-2019 03:24:17 12.5 C 60 %
379 15-05-2019 03:36:18 12.4 C 60 %
380 15-05-2019 03:48:17 12.4 C 60 %
381 15-05-2019 04:00:18 12.4 C 60 %
382 15-05-2019 04:12:18 12.4 C 60 %
383 15-05-2019 04:24:17 12.3 C 60 %
384 15-05-2019 04:36:17 12.3 C 60 %
385 15-05-2019 04:48:18 12.3 C 60 %
386 15-05-2019 05:00:17 12.3 C 60 %
387 15-05-2019 05:12:17 12.2 C 60 %
388 15-05-2019 05:24:17 12.2 C 60 %
389 15-05-2019 05:36:17 12.2 C 60 %
390 15-05-2019 05:48:17 12.2 C 60 %
391 15-05-2019 06:00:18 12.1 C 60 %
392 15-05-2019 06:12:18 12.1 C 60 %
393 15-05-2019 06:24:17 12.1 C 59 %
394 15-05-2019 06:36:17 12.1 C 59 %
395 15-05-2019 06:48:17 12.1 C 59 %
396 15-05-2019 07:00:17 12 C 59 %
397 15-05-2019 07:12:17 12 C 59 %
398 15-05-2019 07:24:17 12 C 59 %
399 15-05-2019 07:36:18 11.9 C 60 %
400 15-05-2019 07:48:17 11.9 C 60 %
Sensor: Nr:Datum:Temp:Feuchte:
G-T/H 401 15-05-2019 08:00:17 11.9 C 60 %
402 15-05-2019 08:12:17 11.9 C 60 %
403 15-05-2019 08:24:17 11.8 C 61 %
404 15-05-2019 08:36:17 11.8 C 61 %
405 15-05-2019 08:48:17 11.7 C 61 %
406 15-05-2019 09:00:18 11.7 C 60 %
407 15-05-2019 09:12:18 11.6 C 60 %
408 15-05-2019 09:24:17 11.6 C 60 %
409 15-05-2019 09:36:18 11.6 C 60 %
410 15-05-2019 09:48:17 11.6 C 60 %
411 15-05-2019 10:00:17 11.6 C 61 %
412 15-05-2019 10:12:17 11.6 C 61 %
413 15-05-2019 10:24:18 11.5 C 61 %
414 15-05-2019 10:36:17 11.6 C 60 %
415 15-05-2019 10:48:17 11.6 C 60 %
416 15-05-2019 11:00:17 11.5 C 59 %
417 15-05-2019 11:12:17 11.5 C 59 %
418 15-05-2019 11:24:17 11.5 C 58 %
419 15-05-2019 11:36:17 11.5 C 58 %
420 15-05-2019 11:48:18 11.6 C 58 %
421 15-05-2019 12:00:17 11.6 C 58 %
422 15-05-2019 12:12:17 11.7 C 58 %
423 15-05-2019 12:24:17 11.9 C 57 %
424 15-05-2019 12:36:17 12 C 53 %
425 15-05-2019 12:48:17 12.2 C 50 %
Sensor: Nr:Datum:Temp:Feuchte:
G-T/H 426 15-05-2019 13:00:18 12.3 C 48 %
427 15-05-2019 13:12:18 12.4 C 47 %
428 15-05-2019 13:24:17 12.5 C 45 %
429 15-05-2019 13:36:17 12.6 C 44 %
430 15-05-2019 13:48:18 12.8 C 44 %
431 15-05-2019 14:00:17 12.9 C 43 %
432 15-05-2019 14:12:17 13 C 42 %
433 15-05-2019 14:24:17 13 C 41 %
434 15-05-2019 14:36:17 13.2 C 40 %
435 15-05-2019 14:48:17 13.2 C 40 %
436 15-05-2019 15:00:17 13.3 C 40 %
437 15-05-2019 15:12:17 13.4 C 39 %
438 15-05-2019 15:24:18 13.4 C 38 %
439 15-05-2019 15:36:17 13.5 C 37 %
440 15-05-2019 15:48:17 13.6 C 37 %
441 15-05-2019 16:00:17 13.7 C 37 %
442 15-05-2019 16:12:17 13.7 C 37 %
443 15-05-2019 16:24:17 14 C 36 %
444 15-05-2019 16:36:17 14.1 C 37 %
445 15-05-2019 16:48:17 14.1 C 38 %
446 15-05-2019 17:00:17 14.1 C 39 %
447 15-05-2019 17:12:17 14.1 C 40 %
448 15-05-2019 17:24:17 14 C 40 %
449 15-05-2019 17:36:17 14 C 41 %
450 15-05-2019 17:48:17 14 C 42 %
Sensor: Nr:Datum:Temp:Feuchte:
G-T/H 451 15-05-2019 18:00:17 13.9 C 44 %
452 15-05-2019 18:12:17 13.9 C 44 %
453 15-05-2019 18:24:17 13.9 C 45 %
454 15-05-2019 18:36:17 13.9 C 45 %
455 15-05-2019 18:48:17 13.8 C 45 %
456 15-05-2019 19:00:18 13.8 C 46 %
457 15-05-2019 19:12:18 13.9 C 46 %
458 15-05-2019 19:24:17 13.8 C 47 %
459 15-05-2019 19:36:17 13.8 C 48 %
460 15-05-2019 19:48:17 13.9 C 48 %
461 15-05-2019 20:00:17 13.8 C 49 %
462 15-05-2019 20:12:17 13.8 C 50 %
463 15-05-2019 20:24:17 13.8 C 50 %
464 15-05-2019 20:36:17 13.8 C 51 %
465 15-05-2019 20:48:17 13.8 C 51 %
466 15-05-2019 21:00:17 13.7 C 51 %
467 15-05-2019 21:12:17 13.7 C 52 %
468 15-05-2019 21:24:18 13.7 C 52 %
469 15-05-2019 21:36:17 13.6 C 52 %
470 15-05-2019 21:48:17 13.6 C 52 %
471 15-05-2019 22:00:18 13.6 C 52 %
472 15-05-2019 22:12:18 13.6 C 52 %
473 15-05-2019 22:24:17 13.6 C 52 %
474 15-05-2019 22:36:17 13.5 C 52 %
475 15-05-2019 22:48:17 13.5 C 52 %
Sensor: Nr:Datum:Temp:Feuchte:
G-T/H 476 15-05-2019 23:00:17 13.5 C 52 %
477 15-05-2019 23:12:17 13.4 C 52 %
478 15-05-2019 23:24:17 13.5 C 52 %
479 15-05-2019 23:36:17 13.4 C 51 %
480 15-05-2019 23:48:17 13.4 C 51 %
481 16-05-2019 00:00:17 13.4 C 51 %
482 16-05-2019 00:12:17 13.4 C 51 %
483 16-05-2019 00:24:17 13.4 C 51 %
484 16-05-2019 00:36:18 13.3 C 51 %
485 16-05-2019 00:48:17 13.3 C 52 %
486 16-05-2019 01:00:17 13.3 C 52 %
487 16-05-2019 01:12:17 13.3 C 52 %
488 16-05-2019 01:24:17 13.2 C 52 %
489 16-05-2019 01:36:17 13.2 C 52 %
490 16-05-2019 01:48:17 13.2 C 52 %
491 16-05-2019 02:00:17 13.1 C 52 %
492 16-05-2019 02:12:18 13.1 C 52 %
493 16-05-2019 02:24:17 13.1 C 52 %
494 16-05-2019 02:36:17 13.1 C 52 %
495 16-05-2019 02:48:17 13.1 C 52 %
496 16-05-2019 03:00:17 13.1 C 52 %
497 16-05-2019 03:12:17 13.1 C 52 %
498 16-05-2019 03:24:17 13 C 52 %
499 16-05-2019 03:36:18 13 C 52 %
500 16-05-2019 03:48:17 13 C 53 %
Sensor: Nr:Datum:Temp:Feuchte:
G-T/H 501 16-05-2019 04:00:17 13 C 53 %
502 16-05-2019 04:12:17 13 C 53 %
503 16-05-2019 04:24:17 12.9 C 54 %
504 16-05-2019 04:36:18 12.9 C 54 %
505 16-05-2019 04:48:17 12.9 C 54 %
506 16-05-2019 05:00:17 12.8 C 54 %
507 16-05-2019 05:12:17 12.8 C 54 %
508 16-05-2019 05:24:17 12.8 C 54 %
509 16-05-2019 05:36:17 12.8 C 54 %
510 16-05-2019 05:48:17 12.8 C 55 %
511 16-05-2019 06:00:17 12.8 C 55 %
512 16-05-2019 06:12:17 12.8 C 55 %
513 16-05-2019 06:24:17 12.7 C 55 %
514 16-05-2019 06:36:17 12.7 C 55 %
515 16-05-2019 06:48:17 12.7 C 55 %
516 16-05-2019 07:00:17 12.6 C 55 %
517 16-05-2019 07:12:17 12.6 C 55 %
518 16-05-2019 07:24:17 12.7 C 55 %
519 16-05-2019 07:36:17 12.6 C 55 %
520 16-05-2019 07:48:17 12.6 C 55 %
521 16-05-2019 08:00:18 12.6 C 56 %
522 16-05-2019 08:12:18 12.6 C 56 %
523 16-05-2019 08:24:17 12.5 C 56 %
524 16-05-2019 08:36:17 12.5 C 56 %
525 16-05-2019 08:48:17 12.5 C 56 %
Sensor: Nr:Datum:Temp:Feuchte:
G-T/H 526 16-05-2019 09:00:17 12.5 C 56 %
527 16-05-2019 09:12:17 12.5 C 56 %
528 16-05-2019 09:24:18 12.5 C 56 %
529 16-05-2019 09:36:17 12.5 C 56 %
530 16-05-2019 09:48:17 12.5 C 56 %
531 16-05-2019 10:00:18 12.5 C 56 %
532 16-05-2019 10:12:18 12.5 C 56 %
533 16-05-2019 10:24:17 12.5 C 56 %
534 16-05-2019 10:36:18 12.5 C 56 %
535 16-05-2019 10:48:17 12.5 C 56 %
536 16-05-2019 11:00:18 12.5 C 56 %
537 16-05-2019 11:12:18 12.5 C 56 %
538 16-05-2019 11:24:17 12.5 C 56 %
539 16-05-2019 11:36:18 12.5 C 56 %
540 16-05-2019 11:48:17 12.5 C 56 %
541 16-05-2019 12:00:17 12.5 C 56 %
542 16-05-2019 12:12:17 12.5 C 57 %
543 16-05-2019 12:24:17 12.6 C 57 %
544 16-05-2019 12:36:17 12.6 C 57 %
545 16-05-2019 12:48:17 12.6 C 57 %
546 16-05-2019 13:00:17 12.6 C 57 %
547 16-05-2019 13:12:17 12.7 C 57 %
548 16-05-2019 13:24:17 12.7 C 58 %
549 16-05-2019 13:36:18 12.7 C 58 %
550 16-05-2019 13:48:17 12.8 C 59 %
Sensor: Nr:Datum:Temp:Feuchte:
G-T/H 551 16-05-2019 14:00:17 12.8 C 59 %
552 16-05-2019 14:12:17 12.8 C 59 %
553 16-05-2019 14:24:17 12.8 C 59 %
554 16-05-2019 14:36:17 12.8 C 59 %
555 16-05-2019 14:48:17 12.9 C 59 %
556 16-05-2019 15:00:17 13 C 58 %
557 16-05-2019 15:12:17 13 C 58 %
558 16-05-2019 15:24:17 13 C 59 %
559 16-05-2019 15:36:18 13 C 59 %
560 16-05-2019 15:48:17 13.1 C 59 %
561 16-05-2019 16:00:17 13.1 C 59 %
562 16-05-2019 16:12:17 13.2 C 59 %
563 16-05-2019 16:24:18 13.2 C 59 %
564 16-05-2019 16:36:17 13.2 C 59 %
565 16-05-2019 16:48:17 13.2 C 59 %
566 16-05-2019 17:00:17 13.2 C 59 %
567 16-05-2019 17:12:17 13.3 C 59 %
568 16-05-2019 17:24:17 13.3 C 60 %
569 16-05-2019 17:36:17 13.3 C 60 %
570 16-05-2019 17:48:17 13.4 C 60 %
571 16-05-2019 18:00:17 13.4 C 60 %
572 16-05-2019 18:12:17 13.4 C 60 %
573 16-05-2019 18:24:17 13.4 C 60 %
574 16-05-2019 18:36:17 13.5 C 60 %
575 16-05-2019 18:48:17 13.5 C 60 %
Sensor: Nr:Datum:Temp:Feuchte:
G-T/H 576 16-05-2019 19:00:17 13.5 C 60 %
577 16-05-2019 19:12:17 13.4 C 60 %
578 16-05-2019 19:24:17 13.4 C 60 %
579 16-05-2019 19:36:17 13.5 C 60 %
580 16-05-2019 19:48:17 13.5 C 60 %
581 16-05-2019 20:00:17 13.5 C 60 %
582 16-05-2019 20:12:17 13.5 C 60 %
583 16-05-2019 20:24:17 13.5 C 60 %
584 16-05-2019 20:36:17 13.5 C 60 %
585 16-05-2019 20:48:17 13.5 C 60 %
586 16-05-2019 21:00:17 13.5 C 60 %
587 16-05-2019 21:12:17 13.5 C 60 %
588 16-05-2019 21:24:17 13.5 C 60 %
589 16-05-2019 21:36:17 13.5 C 60 %
590 16-05-2019 21:48:17 13.5 C 60 %
591 16-05-2019 22:00:17 13.5 C 59 %
592 16-05-2019 22:12:17 13.5 C 59 %
593 16-05-2019 22:24:17 13.5 C 59 %
594 16-05-2019 22:36:18 13.5 C 59 %
595 16-05-2019 22:48:17 13.5 C 60 %
596 16-05-2019 23:00:17 13.5 C 60 %
597 16-05-2019 23:12:17 13.5 C 60 %
598 16-05-2019 23:24:17 13.5 C 60 %
599 16-05-2019 23:36:17 13.5 C 60 %
600 16-05-2019 23:48:17 13.5 C 60 %
Sensor: Nr:Datum:Temp:Feuchte:
G-T/H 601 17-05-2019 00:00:17 13.5 C 60 %
602 17-05-2019 00:12:17 13.5 C 60 %
603 17-05-2019 00:24:17 13.4 C 60 %
604 17-05-2019 00:36:17 13.5 C 61 %
605 17-05-2019 00:48:17 13.4 C 61 %
606 17-05-2019 01:00:17 13.5 C 61 %
607 17-05-2019 01:12:17 13.4 C 61 %
608 17-05-2019 01:24:18 13.4 C 61 %
609 17-05-2019 01:36:17 13.4 C 61 %
610 17-05-2019 01:48:17 13.4 C 61 %
611 17-05-2019 02:00:17 13.4 C 61 %
612 17-05-2019 02:12:17 13.4 C 61 %
613 17-05-2019 02:24:17 13.4 C 61 %
614 17-05-2019 02:36:17 13.4 C 61 %
615 17-05-2019 02:48:17 13.4 C 61 %
616 17-05-2019 03:00:18 13.4 C 61 %
617 17-05-2019 03:12:18 13.4 C 62 %
618 17-05-2019 03:24:17 13.4 C 62 %
619 17-05-2019 03:36:17 13.3 C 62 %
620 17-05-2019 03:48:17 13.3 C 62 %
621 17-05-2019 04:00:18 13.3 C 62 %
622 17-05-2019 04:12:18 13.3 C 62 %
623 17-05-2019 04:24:17 13.3 C 62 %
624 17-05-2019 04:36:17 13.3 C 62 %
625 17-05-2019 04:48:17 13.3 C 62 %
Sensor: Nr:Datum:Temp:Feuchte:
G-T/H 626 17-05-2019 05:00:17 13.2 C 62 %
627 17-05-2019 05:12:17 13.2 C 62 %
628 17-05-2019 05:24:17 13.2 C 62 %
629 17-05-2019 05:36:17 13.2 C 62 %
630 17-05-2019 05:48:18 13.2 C 62 %
631 17-05-2019 06:00:17 13.2 C 62 %
632 17-05-2019 06:12:17 13.2 C 62 %
633 17-05-2019 06:24:17 13.1 C 62 %
634 17-05-2019 06:36:17 13.2 C 62 %
635 17-05-2019 06:48:17 13.2 C 62 %
636 17-05-2019 07:00:17 13.1 C 62 %
637 17-05-2019 07:12:17 13.1 C 62 %
638 17-05-2019 07:24:17 13.1 C 62 %
639 17-05-2019 07:36:17 13.1 C 62 %
640 17-05-2019 07:48:17 13.1 C 62 %
641 17-05-2019 08:00:17 13.1 C 62 %
642 17-05-2019 08:12:17 13.1 C 62 %
643 17-05-2019 08:24:17 13 C 62 %
644 17-05-2019 08:36:17 13 C 62 %
645 17-05-2019 08:48:17 13 C 62 %
646 17-05-2019 09:00:17 13 C 62 %
647 17-05-2019 09:12:17 13 C 62 %
648 17-05-2019 09:24:17 13 C 62 %
649 17-05-2019 09:36:17 13 C 62 %
650 17-05-2019 09:48:18 13 C 62 %
Sensor: Nr:Datum:Temp:Feuchte:
G-T/H 651 17-05-2019 10:00:17 13 C 62 %
652 17-05-2019 10:12:17 13 C 62 %
653 17-05-2019 10:24:17 13 C 62 %
654 17-05-2019 10:36:17 13 C 62 %
655 17-05-2019 10:48:17 13 C 62 %
656 17-05-2019 11:00:18 13 C 62 %
657 17-05-2019 11:12:18 13 C 62 %
658 17-05-2019 11:24:17 12.9 C 63 %
659 17-05-2019 11:36:17 12.9 C 63 %
660 17-05-2019 11:48:17 12.9 C 63 %
661 17-05-2019 12:00:17 12.9 C 63 %
662 17-05-2019 12:12:17 12.9 C 63 %
663 17-05-2019 12:24:17 12.9 C 63 %
664 17-05-2019 12:36:17 12.9 C 63 %
665 17-05-2019 12:48:17 13 C 63 %
666 17-05-2019 13:00:18 13 C 63 %
667 17-05-2019 13:12:18 13 C 63 %
668 17-05-2019 13:24:17 13 C 63 %
669 17-05-2019 13:36:17 13 C 63 %
670 17-05-2019 13:48:17 13 C 63 %
671 17-05-2019 14:00:17 13 C 63 %
672 17-05-2019 14:12:17 13 C 63 %
673 17-05-2019 14:24:18 13 C 64 %
674 17-05-2019 14:36:17 13 C 64 %
675 17-05-2019 14:48:17 13 C 64 %
Sensor: Nr:Datum:Temp:Feuchte:
G-T/H 676 17-05-2019 15:00:17 13.1 C 64 %
677 17-05-2019 15:12:17 13.1 C 64 %
678 17-05-2019 15:24:18 13.1 C 64 %
679 17-05-2019 15:36:17 13.1 C 64 %
680 17-05-2019 15:48:17 13.1 C 64 %
681 17-05-2019 16:00:17 13.2 C 64 %
682 17-05-2019 16:12:17 13.1 C 64 %
683 17-05-2019 16:24:17 13.2 C 64 %
684 17-05-2019 16:36:17 13.2 C 65 %
685 17-05-2019 16:48:17 13.2 C 65 %
686 17-05-2019 17:00:17 13.2 C 65 %
687 17-05-2019 17:12:17 13.2 C 65 %
688 17-05-2019 17:24:17 13.2 C 65 %
689 17-05-2019 17:36:17 13.3 C 65 %
690 17-05-2019 17:48:17 13.3 C 65 %
691 17-05-2019 18:00:17 13.3 C 65 %
692 17-05-2019 18:12:17 13.3 C 65 %
693 17-05-2019 18:24:17 13.3 C 65 %
694 17-05-2019 18:36:17 13.3 C 65 %
695 17-05-2019 18:48:17 13.4 C 65 %
696 17-05-2019 19:00:18 13.4 C 65 %
697 17-05-2019 19:12:18 13.4 C 65 %
698 17-05-2019 19:24:17 13.4 C 65 %
699 17-05-2019 19:36:17 13.4 C 65 %
700 17-05-2019 19:48:17 13.4 C 65 %
Sensor: Nr:Datum:Temp:Feuchte:
G-T/H 701 17-05-2019 20:00:17 13.4 C 65 %
702 17-05-2019 20:12:17 13.4 C 65 %
703 17-05-2019 20:24:17 13.4 C 66 %
704 17-05-2019 20:36:17 13.4 C 66 %
705 17-05-2019 20:48:17 13.4 C 66 %
706 17-05-2019 21:00:17 13.4 C 65 %
707 17-05-2019 21:12:17 13.4 C 65 %
708 17-05-2019 21:24:17 13.4 C 65 %
709 17-05-2019 21:36:17 13.4 C 65 %
710 17-05-2019 21:48:17 13.5 C 65 %
711 17-05-2019 22:00:17 13.5 C 65 %
712 17-05-2019 22:12:17 13.4 C 65 %
713 17-05-2019 22:24:17 13.4 C 65 %
714 17-05-2019 22:36:17 13.4 C 65 %
715 17-05-2019 22:48:17 13.4 C 65 %
716 17-05-2019 23:00:17 13.5 C 65 %
717 17-05-2019 23:12:17 13.5 C 65 %
718 17-05-2019 23:24:17 13.4 C 65 %
719 17-05-2019 23:36:17 13.4 C 65 %
720 17-05-2019 23:48:17 13.5 C 65 %
721 18-05-2019 00:00:17 13.5 C 66 %
722 18-05-2019 00:12:17 13.5 C 65 %
723 18-05-2019 00:24:17 13.4 C 65 %
724 18-05-2019 00:36:17 13.4 C 65 %
725 18-05-2019 00:48:17 13.4 C 65 %
Sensor: Nr:Datum:Temp:Feuchte:
G-T/H 726 18-05-2019 01:00:18 13.5 C 66 %
727 18-05-2019 01:12:18 13.4 C 66 %
728 18-05-2019 01:24:17 13.4 C 66 %
729 18-05-2019 01:36:17 13.4 C 66 %
730 18-05-2019 01:48:17 13.4 C 66 %
731 18-05-2019 02:00:17 13.4 C 66 %
732 18-05-2019 02:12:17 13.4 C 66 %
733 18-05-2019 02:24:18 13.4 C 66 %
734 18-05-2019 02:36:17 13.4 C 66 %
735 18-05-2019 02:48:17 13.4 C 66 %
736 18-05-2019 03:00:17 13.4 C 66 %
737 18-05-2019 03:12:17 13.4 C 66 %
738 18-05-2019 03:24:17 13.4 C 66 %
739 18-05-2019 03:36:17 13.3 C 66 %
740 18-05-2019 03:48:17 13.3 C 66 %
741 18-05-2019 04:00:17 13.3 C 66 %
742 18-05-2019 04:12:17 13.3 C 66 %
743 18-05-2019 04:24:17 13.3 C 66 %
744 18-05-2019 04:36:17 13.3 C 66 %
745 18-05-2019 04:48:17 13.3 C 66 %
746 18-05-2019 05:00:17 13.3 C 66 %
747 18-05-2019 05:12:17 13.2 C 66 %
748 18-05-2019 05:24:17 13.2 C 66 %
749 18-05-2019 05:36:17 13.2 C 66 %
750 18-05-2019 05:48:17 13.2 C 66 %
Sensor: Nr:Datum:Temp:Feuchte:
G-T/H 751 18-05-2019 06:00:17 13.2 C 66 %
752 18-05-2019 06:12:17 13.2 C 66 %
753 18-05-2019 06:24:17 13.2 C 66 %
754 18-05-2019 06:36:17 13.2 C 66 %
755 18-05-2019 06:48:17 13.2 C 66 %
756 18-05-2019 07:00:17 13.1 C 66 %
757 18-05-2019 07:12:17 13.1 C 66 %
758 18-05-2019 07:24:17 13.1 C 66 %
759 18-05-2019 07:36:17 13.2 C 66 %
760 18-05-2019 07:48:17 13.1 C 66 %
761 18-05-2019 08:00:17 13.1 C 66 %
762 18-05-2019 08:12:17 13.1 C 66 %
763 18-05-2019 08:24:17 13.1 C 66 %
764 18-05-2019 08:36:17 13.2 C 66 %
765 18-05-2019 08:48:18 13.2 C 66 %
766 18-05-2019 09:00:17 13.2 C 66 %
767 18-05-2019 09:12:17 13.1 C 66 %
768 18-05-2019 09:24:17 13.1 C 66 %
769 18-05-2019 09:36:17 13.2 C 66 %
770 18-05-2019 09:48:17 13.1 C 66 %
771 18-05-2019 10:00:17 13.1 C 66 %
772 18-05-2019 10:12:17 13.2 C 66 %
773 18-05-2019 10:24:17 13.2 C 66 %
774 18-05-2019 10:36:17 13.2 C 66 %
775 18-05-2019 10:48:17 13.2 C 67 %
Sensor: Nr:Datum:Temp:Feuchte:
G-T/H 776 18-05-2019 11:00:17 13.2 C 67 %
777 18-05-2019 11:12:17 13.2 C 67 %
778 18-05-2019 11:24:17 13.2 C 67 %
779 18-05-2019 11:36:17 13.2 C 67 %
780 18-05-2019 11:48:17 13.3 C 67 %
781 18-05-2019 12:00:17 13.4 C 67 %
782 18-05-2019 12:12:17 13.4 C 67 %
783 18-05-2019 12:24:17 13.5 C 67 %
784 18-05-2019 12:36:18 13.5 C 67 %
785 18-05-2019 12:48:17 13.5 C 67 %
786 18-05-2019 13:00:17 13.5 C 67 %
787 18-05-2019 13:12:17 13.5 C 67 %
788 18-05-2019 13:24:17 13.5 C 67 %
789 18-05-2019 13:36:17 13.6 C 67 %
790 18-05-2019 13:48:17 13.6 C 67 %
791 18-05-2019 14:00:17 13.6 C 67 %
792 18-05-2019 14:12:17 13.7 C 67 %
793 18-05-2019 14:24:17 13.7 C 67 %
794 18-05-2019 14:36:17 13.7 C 67 %
795 18-05-2019 14:48:17 13.7 C 67 %
796 18-05-2019 15:00:18 13.8 C 67 %
797 18-05-2019 15:12:18 13.8 C 67 %
798 18-05-2019 15:24:17 13.9 C 67 %
799 18-05-2019 15:36:17 13.9 C 67 %
800 18-05-2019 15:48:17 13.9 C 67 %
Sensor: Nr:Datum:Temp:Feuchte:
G-T/H 801 18-05-2019 16:00:18 14 C 67 %
802 18-05-2019 16:12:18 14 C 67 %
803 18-05-2019 16:24:17 14.1 C 67 %
804 18-05-2019 16:36:17 14.1 C 67 %
805 18-05-2019 16:48:17 14.8 C 68 %
806 18-05-2019 17:00:17 16.4 C 66 %
807 18-05-2019 17:12:17 16.7 C 65 %
808 18-05-2019 17:24:17 16.6 C 65 %
809 18-05-2019 17:36:17 16.3 C 65 %
810 18-05-2019 17:48:18 16.2 C 66 %
811 18-05-2019 18:00:17 16.1 C 66 %
812 18-05-2019 18:12:17 16 C 66 %
813 18-05-2019 18:24:17 15.9 C 67 %
814 18-05-2019 18:36:18 15.9 C 67 %
815 18-05-2019 18:48:17 15.8 C 67 %
816 18-05-2019 19:00:17 15.7 C 67 %
817 18-05-2019 19:12:17 15.7 C 67 %
818 18-05-2019 19:24:18 15.6 C 67 %
819 18-05-2019 19:36:17 15.6 C 67 %
820 18-05-2019 19:48:17 15.6 C 67 %
821 18-05-2019 20:00:17 15.5 C 67 %
822 18-05-2019 20:12:17 15.5 C 67 %
823 18-05-2019 20:24:17 15.5 C 67 %
824 18-05-2019 20:36:17 15.5 C 67 %
825 18-05-2019 20:48:18 15.4 C 67 %
Sensor: Nr:Datum:Temp:Feuchte:
G-T/H 826 18-05-2019 21:00:17 15.4 C 66 %
827 18-05-2019 21:12:17 15.4 C 66 %
828 18-05-2019 21:24:17 15.4 C 67 %
829 18-05-2019 21:36:18 15.3 C 67 %
830 18-05-2019 21:48:17 15.3 C 67 %
831 18-05-2019 22:00:17 15.3 C 67 %
832 18-05-2019 22:12:17 15.3 C 67 %
833 18-05-2019 22:24:18 15.2 C 67 %
834 18-05-2019 22:36:17 15.2 C 67 %
835 18-05-2019 22:48:17 15.2 C 67 %
836 18-05-2019 23:00:18 15.2 C 67 %
837 18-05-2019 23:12:18 15.2 C 67 %
838 18-05-2019 23:24:17 15.1 C 67 %
839 18-05-2019 23:36:17 15.1 C 67 %
840 18-05-2019 23:48:17 15.1 C 67 %
841 19-05-2019 00:00:17 15.1 C 67 %
842 19-05-2019 00:12:17 15 C 67 %
843 19-05-2019 00:24:18 15 C 67 %
844 19-05-2019 00:36:17 15 C 67 %
845 19-05-2019 00:48:17 14.9 C 68 %
846 19-05-2019 01:00:17 15 C 67 %
847 19-05-2019 01:12:17 14.9 C 68 %
848 19-05-2019 01:24:17 14.9 C 68 %
849 19-05-2019 01:36:17 14.9 C 68 %
850 19-05-2019 01:48:17 14.8 C 68 %
Sensor: Nr:Datum:Temp:Feuchte:
G-T/H 851 19-05-2019 02:00:17 14.9 C 68 %
852 19-05-2019 02:12:17 14.8 C 68 %
853 19-05-2019 02:24:17 14.8 C 68 %
854 19-05-2019 02:36:17 14.8 C 68 %
855 19-05-2019 02:48:17 14.8 C 68 %
856 19-05-2019 03:00:17 14.8 C 68 %
857 19-05-2019 03:12:17 14.7 C 68 %
858 19-05-2019 03:24:17 14.7 C 68 %
859 19-05-2019 03:36:17 14.7 C 68 %
860 19-05-2019 03:48:17 14.7 C 68 %
861 19-05-2019 04:00:17 14.7 C 68 %
862 19-05-2019 04:12:17 14.7 C 68 %
863 19-05-2019 04:24:17 14.6 C 68 %
864 19-05-2019 04:36:17 14.6 C 68 %
865 19-05-2019 04:48:17 14.6 C 68 %
866 19-05-2019 05:00:17 14.6 C 68 %
867 19-05-2019 05:12:17 14.6 C 68 %
868 19-05-2019 05:24:17 14.5 C 68 %
869 19-05-2019 05:36:18 14.5 C 68 %
870 19-05-2019 05:48:17 14.5 C 68 %
871 19-05-2019 06:00:17 14.5 C 68 %
872 19-05-2019 06:12:17 14.5 C 68 %
873 19-05-2019 06:24:17 14.5 C 68 %
874 19-05-2019 06:36:17 14.5 C 68 %
875 19-05-2019 06:48:18 14.5 C 68 %
Sensor: Nr:Datum:Temp:Feuchte:
G-T/H 876 19-05-2019 07:00:17 14.4 C 68 %
877 19-05-2019 07:12:17 14.4 C 68 %
878 19-05-2019 07:24:17 14.4 C 68 %
879 19-05-2019 07:36:18 14.4 C 68 %
880 19-05-2019 07:48:17 14.4 C 68 %
881 19-05-2019 08:00:17 14.4 C 68 %
882 19-05-2019 08:12:17 14.4 C 68 %
883 19-05-2019 08:24:17 14.4 C 68 %
884 19-05-2019 08:36:17 14.4 C 68 %
885 19-05-2019 08:48:17 14.4 C 68 %
886 19-05-2019 09:00:18 14.4 C 68 %
887 19-05-2019 09:12:18 14.4 C 68 %
888 19-05-2019 09:24:17 14.3 C 68 %
889 19-05-2019 09:36:17 14.3 C 68 %
890 19-05-2019 09:48:17 14.3 C 68 %
891 19-05-2019 10:00:18 14.3 C 68 %
892 19-05-2019 10:12:18 14.3 C 68 %
893 19-05-2019 10:24:17 14.4 C 68 %
894 19-05-2019 10:36:17 14.4 C 68 %
895 19-05-2019 10:48:17 14.3 C 68 %
896 19-05-2019 11:00:17 14.4 C 68 %
897 19-05-2019 11:12:17 14.4 C 68 %
898 19-05-2019 11:24:17 14.4 C 68 %
899 19-05-2019 11:36:17 14.4 C 68 %
900 19-05-2019 11:48:17 14.4 C 68 %
Sensor: Nr:Datum:Temp:Feuchte:
G-T/H 901 19-05-2019 12:00:17 14.4 C 68 %
902 19-05-2019 12:12:17 14.4 C 68 %
903 19-05-2019 12:24:17 14.4 C 68 %
904 19-05-2019 12:36:17 14.5 C 68 %
905 19-05-2019 12:48:17 14.5 C 68 %
906 19-05-2019 13:00:17 14.5 C 68 %
907 19-05-2019 13:12:18 14.5 C 68 %
908 19-05-2019 13:24:17 14.5 C 69 %
909 19-05-2019 13:36:17 14.6 C 69 %
910 19-05-2019 13:48:17 14.5 C 69 %
911 19-05-2019 14:00:17 14.6 C 69 %
912 19-05-2019 14:12:17 14.6 C 69 %
913 19-05-2019 14:24:18 14.7 C 69 %
914 19-05-2019 14:36:17 14.7 C 69 %
915 19-05-2019 14:48:17 14.7 C 69 %
916 19-05-2019 15:00:18 14.7 C 69 %
917 19-05-2019 15:12:18 14.7 C 69 %
918 19-05-2019 15:24:17 14.8 C 69 %
919 19-05-2019 15:36:18 14.8 C 69 %
920 19-05-2019 15:48:17 14.9 C 69 %
921 19-05-2019 16:00:17 14.9 C 69 %
922 19-05-2019 16:12:17 14.9 C 69 %
923 19-05-2019 16:24:18 15 C 68 %
924 19-05-2019 16:36:17 15 C 68 %
925 19-05-2019 16:48:17 15 C 68 %
Sensor: Nr:Datum:Temp:Feuchte:
G-T/H 926 19-05-2019 17:00:18 15.1 C 68 %
927 19-05-2019 17:12:18 15.1 C 68 %
928 19-05-2019 17:24:17 15.1 C 68 %
929 19-05-2019 17:36:17 15.1 C 68 %
930 19-05-2019 17:48:17 15.2 C 68 %
931 19-05-2019 18:00:17 15.2 C 68 %
932 19-05-2019 18:12:17 15.2 C 68 %
933 19-05-2019 18:24:17 15.2 C 68 %
934 19-05-2019 18:36:17 15.3 C 68 %
935 19-05-2019 18:48:17 15.3 C 68 %
936 19-05-2019 19:00:18 15.3 C 68 %
937 19-05-2019 19:12:18 15.4 C 68 %
938 19-05-2019 19:24:17 15.4 C 68 %
939 19-05-2019 19:36:18 15.4 C 68 %
940 19-05-2019 19:48:17 15.5 C 68 %
941 19-05-2019 20:00:17 15.5 C 67 %
942 19-05-2019 20:12:17 15.5 C 68 %
943 19-05-2019 20:24:18 15.5 C 68 %
944 19-05-2019 20:36:17 15.5 C 68 %
945 19-05-2019 20:48:17 15.5 C 68 %
946 19-05-2019 21:00:17 15.4 C 68 %
947 19-05-2019 21:12:17 15.4 C 68 %
948 19-05-2019 21:24:17 15.4 C 68 %
949 19-05-2019 21:36:17 15.4 C 68 %
950 19-05-2019 21:48:17 15.4 C 68 %
Sensor: Nr:Datum:Temp:Feuchte:
G-T/H 951 19-05-2019 22:00:17 15.4 C 68 %
952 19-05-2019 22:12:17 15.4 C 68 %
953 19-05-2019 22:24:17 15.4 C 68 %
954 19-05-2019 22:36:17 15.4 C 68 %
955 19-05-2019 22:48:17 15.4 C 68 %
956 19-05-2019 23:00:17 15.4 C 68 %
957 19-05-2019 23:12:17 15.4 C 68 %
958 19-05-2019 23:24:17 15.4 C 68 %
959 19-05-2019 23:36:18 15.3 C 68 %
960 19-05-2019 23:48:17 15.4 C 68 %
961 20-05-2019 00:00:17 15.4 C 68 %
962 20-05-2019 00:12:17 15.4 C 68 %
963 20-05-2019 00:24:17 15.4 C 68 %
964 20-05-2019 00:36:17 15.3 C 68 %
965 20-05-2019 00:48:17 15.3 C 68 %
966 20-05-2019 01:00:18 15.3 C 68 %
967 20-05-2019 01:12:18 15.3 C 68 %
968 20-05-2019 01:24:17 15.3 C 68 %
969 20-05-2019 01:36:17 15.3 C 69 %
970 20-05-2019 01:48:17 15.2 C 69 %
971 20-05-2019 02:00:17 15.3 C 69 %
972 20-05-2019 02:12:17 15.2 C 69 %
973 20-05-2019 02:24:17 15.2 C 69 %
974 20-05-2019 02:36:18 15.2 C 69 %
975 20-05-2019 02:48:17 15.2 C 69 %
Sensor: Nr:Datum:Temp:Feuchte:
G-T/H 976 20-05-2019 03:00:17 15.2 C 69 %
977 20-05-2019 03:12:17 15.2 C 68 %
978 20-05-2019 03:24:17 15.2 C 68 %
979 20-05-2019 03:36:17 15.1 C 68 %
980 20-05-2019 03:48:17 15.1 C 68 %
981 20-05-2019 04:00:18 15.1 C 68 %
982 20-05-2019 04:12:18 15.1 C 69 %
983 20-05-2019 04:24:17 15.1 C 69 %
984 20-05-2019 04:36:17 15.1 C 69 %
985 20-05-2019 04:48:17 15.1 C 69 %
986 20-05-2019 05:00:17 15.1 C 68 %
987 20-05-2019 05:12:17 15 C 68 %
988 20-05-2019 05:24:17 15 C 68 %
989 20-05-2019 05:36:17 15 C 68 %
990 20-05-2019 05:48:17 15 C 68 %
991 20-05-2019 06:00:18 15 C 68 %
992 20-05-2019 06:12:18 15 C 68 %
993 20-05-2019 06:24:17 15 C 68 %
994 20-05-2019 06:36:17 15 C 68 %
995 20-05-2019 06:48:17 15 C 68 %
996 20-05-2019 07:00:18 15 C 68 %
997 20-05-2019 07:12:18 14.9 C 69 %
998 20-05-2019 07:24:17 14.9 C 69 %
999 20-05-2019 07:36:17 14.9 C 69 %
1000 20-05-2019 07:48:17 14.9 C 69 %
Sensor: Nr:Datum:Temp:Feuchte:
G-T/H 1001 20-05-2019 08:00:17 14.9 C 69 %
1002 20-05-2019 08:12:17 14.9 C 69 %
1003 20-05-2019 08:24:17 14.8 C 69 %
1004 20-05-2019 08:36:18 14.8 C 69 %
1005 20-05-2019 08:48:18 14.8 C 69 %
1006 20-05-2019 09:00:17 14.8 C 69 %
1007 20-05-2019 09:12:17 14.8 C 69 %
1008 20-05-2019 09:24:17 14.9 C 69 %
1009 20-05-2019 09:36:18 14.8 C 69 %
1010 20-05-2019 09:48:17 14.8 C 69 %
1011 20-05-2019 10:00:17 14.8 C 69 %
1012 20-05-2019 10:12:17 14.8 C 69 %
1013 20-05-2019 10:24:17 14.8 C 69 %
1014 20-05-2019 10:36:17 14.8 C 69 %
1015 20-05-2019 10:48:17 14.8 C 69 %
1016 20-05-2019 11:00:17 14.8 C 69 %
1017 20-05-2019 11:12:17 14.8 C 69 %
1018 20-05-2019 11:24:17 14.8 C 69 %
1019 20-05-2019 11:36:17 14.8 C 69 %
1020 20-05-2019 11:48:17 14.8 C 69 %
1021 20-05-2019 12:00:17 14.7 C 69 %
1022 20-05-2019 12:12:17 14.7 C 69 %
1023 20-05-2019 12:24:17 14.8 C 69 %
1024 20-05-2019 12:36:18 14.7 C 69 %
1025 20-05-2019 12:48:17 14.8 C 69 %
Sensor: Nr:Datum:Temp:Feuchte:
G-T/H 1026 20-05-2019 13:00:17 14.8 C 69 %
1027 20-05-2019 13:12:17 14.7 C 69 %
1028 20-05-2019 13:24:18 14.7 C 69 %
1029 20-05-2019 13:36:17 14.7 C 69 %
1030 20-05-2019 13:48:17 14.8 C 69 %
1031 20-05-2019 14:00:17 14.7 C 69 %
1032 20-05-2019 14:12:17 14.7 C 69 %
1033 20-05-2019 14:24:17 14.7 C 69 %
1034 20-05-2019 14:36:17 14.7 C 69 %
1035 20-05-2019 14:48:17 14.7 C 69 %
1036 20-05-2019 15:00:17 14.7 C 69 %
1037 20-05-2019 15:12:17 14.7 C 69 %
1038 20-05-2019 15:24:17 14.7 C 69 %
1039 20-05-2019 15:36:17 14.7 C 69 %
1040 20-05-2019 15:48:17 14.7 C 69 %
1041 20-05-2019 16:00:18 14.7 C 69 %
1042 20-05-2019 16:12:18 14.7 C 69 %
1043 20-05-2019 16:24:17 14.7 C 69 %
1044 20-05-2019 16:36:18 14.7 C 69 %
1045 20-05-2019 16:48:18 14.7 C 69 %
1046 20-05-2019 17:00:17 14.7 C 69 %
1047 20-05-2019 17:12:17 14.7 C 69 %
1048 20-05-2019 17:24:17 14.7 C 69 %
1049 20-05-2019 17:36:17 14.7 C 69 %
1050 20-05-2019 17:48:17 14.7 C 69 %
Sensor: Nr:Datum:Temp:Feuchte:
G-T/H 1051 20-05-2019 18:00:18 14.7 C 69 %
1052 20-05-2019 18:12:18